[[{"header":{"parameterUnit":"m.s-1","parameterCategory":1,"la1":30.6,"la2":29.2853,"lo1":-89.7004,"lo2":-87.6739,"dy":0.0162,"dx":0.0183,"nx":112,"ny":82,"refTime":"2023-03-25T12:00:00:Z","depth":0,"parameterNumber":2,"parameterNumberName":"U-component_of_WINDS"},"data":[0.0,0.0,0.0,0.0,0.0,0.0,0.0,0.0,0.0,0.0,0.0,0.0,0.0,0.0,0.0,0.0,0.0,0.0,0.0,0.0,0.0,0.0,0.0,0.0,0.0,0.0,0.0,0.0,0.0,0.0,0.0,0.0,0.0,0.0,0.0,0.0,0.0,0.0,0.0,0.0,0.0,0.0,0.0,0.0,0.0,0.0,0.0,0.0,0.0,0.0,0.0,0.0,0.0,0.0,0.0,0.0,0.0,0.0,0.0,0.0,0.0,0.0,0.0,0.0,0.0,0.0,0.0,0.0,0.0,0.0,0.0,0.0,0.0,0.0,0.0,0.0,0.0,0.0,0.0,0.0,0.0,0.0,0.0,0.0,0.0,0.0,0.0,0.0,0.0,0.0,5.2608,5.3768,5.5935,5.7598,5.8333,5.7714,5.6239,5.3761,0.0,0.0,0.0,0.0,0.0,0.0,0.0,0.0,0.0,0.0,0.0,0.0,0.0,0.0,0.0,0.0,0.0,0.0,0.0,0.0,0.0,0.0,0.0,0.0,0.0,0.0,0.0,0.0,0.0,0.0,0.0,0.0,0.0,0.0,0.0,0.0,0.0,0.0,0.0,0.0,0.0,0.0,0.0,0.0,0.0,0.0,0.0,0.0,0.0,0.0,0.0,0.0,0.0,0.0,0.0,0.0,0.0,0.0,0.0,0.0,0.0,0.0,0.0,0.0,0.0,0.0,0.0,0.0,0.0,0.0,0.0,0.0,0.0,0.0,0.0,0.0,0.0,0.0,0.0,0.0,0.0,0.0,0.0,0.0,0.0,0.0,0.0,0.0,0.0,0.0,0.0,0.0,0.0,0.0,0.0,0.0,0.0,0.0,0.0,0.0,0.0,0.0,0.0,0.0,5.3072,5.5393,5.6631,5.7366,5.7482,5.7404,5.6239,5.3761,0.0,0.0,0.0,0.0,0.0,0.0,0.0,0.0,0.0,0.0,0.0,0.0,0.0,0.0,0.0,0.0,0.0,0.0,0.0,0.0,0.0,0.0,0.0,0.0,0.0,0.0,0.0,0.0,0.0,0.0,0.0,0.0,0.0,0.0,0.0,0.0,0.0,0.0,0.0,0.0,0.0,0.0,0.0,0.0,0.0,0.0,0.0,0.0,0.0,0.0,0.0,0.0,0.0,0.0,0.0,0.0,0.0,0.0,0.0,0.0,0.0,0.0,0.0,0.0,0.0,0.0,0.0,0.0,0.0,0.0,0.0,0.0,0.0,0.0,0.0,0.0,0.0,0.0,0.0,0.0,0.0,0.0,0.0,0.0,0.0,0.0,0.0,0.0,0.0,0.0,0.0,0.0,0.0,0.0,0.0,0.0,0.0,0.0,0.0,0.0,0.0,0.0,0.0,5.373,5.5084,5.7172,5.7753,5.7985,5.7985,5.7559,5.6239,5.3761,5.3621,0.0,0.0,0.0,0.0,0.0,0.0,0.0,0.0,0.0,0.0,0.0,0.0,0.0,0.0,0.0,0.0,0.0,0.0,0.0,0.0,0.0,0.0,0.0,0.0,0.0,0.0,0.0,0.0,0.0,0.0,0.0,0.0,0.0,0.0,0.0,0.0,0.0,0.0,0.0,0.0,0.0,0.0,0.0,0.0,0.0,0.0,0.0,0.0,0.0,0.0,0.0,0.0,0.0,0.0,0.0,0.0,0.0,0.0,0.0,0.0,0.0,0.0,0.0,0.0,0.0,0.0,0.0,0.0,0.0,0.0,0.0,0.0,0.0,0.0,0.0,0.0,0.0,0.0,0.0,0.0,0.0,0.0,0.0,0.0,0.0,0.0,0.0,0.0,0.0,0.0,0.0,0.0,0.0,0.0,0.0,0.0,0.0,0.0,0.0,0.0,0.0,0.0,5.5354,5.6283,5.783,5.7985,5.7985,5.7985,5.7366,5.6123,5.4033,5.3698,0.0,0.0,0.0,0.0,0.0,0.0,0.0,0.0,0.0,0.0,0.0,0.0,0.0,0.0,0.0,0.0,0.0,0.0,0.0,0.0,0.0,0.0,0.0,0.0,0.0,0.0,0.0,0.0,0.0,0.0,0.0,0.0,0.0,0.0,0.0,0.0,0.0,0.0,0.0,0.0,0.0,0.0,0.0,0.0,0.0,0.0,0.0,0.0,0.0,0.0,0.0,0.0,0.0,0.0,0.0,0.0,0.0,0.0,0.0,0.0,0.0,0.0,0.0,0.0,0.0,0.0,0.0,0.0,0.0,0.0,0.0,0.0,0.0,0.0,0.0,0.0,0.0,0.0,0.0,0.0,0.0,0.0,0.0,0.0,0.0,0.0,0.0,0.0,0.0,0.0,0.0,0.0,0.0,0.0,0.0,0.0,0.0,0.0,0.0,0.0,0.0,0.0,5.4851,5.5238,5.6089,5.6167,5.6167,5.6167,5.6128,5.5736,5.4846,5.4047,0.0,0.0,0.0,0.0,0.0,0.0,0.0,0.0,0.0,0.0,0.0,0.0,0.0,0.0,0.0,0.0,0.0,0.0,0.0,0.0,0.0,0.0,0.0,0.0,0.0,0.0,0.0,0.0,0.0,0.0,0.0,0.0,0.0,0.0,0.0,0.0,0.0,0.0,0.0,0.0,0.0,0.0,0.0,0.0,0.0,0.0,0.0,0.0,0.0,0.0,0.0,0.0,0.0,0.0,0.0,0.0,0.0,0.0,0.0,0.0,0.0,0.0,0.0,0.0,0.0,0.0,0.0,0.0,0.0,0.0,0.0,0.0,0.0,0.0,0.0,0.0,0.0,0.0,0.0,0.0,0.0,0.0,0.0,0.0,0.0,0.0,0.0,0.0,0.0,0.0,0.0,0.0,0.0,0.0,0.0,0.0,0.0,0.0,0.0,0.0,0.0,0.0,5.6012,5.6476,0.0,5.7288,5.7404,5.6863,5.6824,5.6278,5.4963,0.0,0.0,0.0,0.0,0.0,0.0,0.0,0.0,0.0,0.0,0.0,0.0,0.0,0.0,0.0,0.0,0.0,0.0,0.0,0.0,0.0,0.0,0.0,0.0,0.0,0.0,0.0,0.0,0.0,0.0,0.0,0.0,0.0,0.0,0.0,0.0,0.0,0.0,0.0,0.0,0.0,0.0,0.0,0.0,0.0,0.0,0.0,0.0,0.0,0.0,0.0,0.0,0.0,0.0,0.0,0.0,0.0,0.0,0.0,0.0,0.0,0.0,0.0,0.0,0.0,0.0,0.0,0.0,0.0,0.0,0.0,0.0,0.0,0.0,0.0,0.0,0.0,0.0,0.0,0.0,0.0,0.0,0.0,0.0,0.0,0.0,0.0,0.0,0.0,0.0,0.0,0.0,0.0,0.0,0.0,0.0,0.0,0.0,0.0,0.0,0.0,0.0,5.5935,5.6515,5.6902,0.0,5.7404,5.7521,5.694,5.6902,5.6433,5.5389,0.0,0.0,0.0,0.0,0.0,0.0,0.0,0.0,0.0,0.0,0.0,0.0,0.0,0.0,0.0,0.0,0.0,0.0,0.0,0.0,0.0,0.0,0.0,0.0,0.0,0.0,0.0,0.0,0.0,0.0,0.0,0.0,0.0,0.0,0.0,0.0,0.0,0.0,0.0,0.0,0.0,0.0,0.0,0.0,0.0,0.0,0.0,0.0,0.0,0.0,0.0,0.0,0.0,0.0,0.0,0.0,0.0,0.0,0.0,0.0,0.0,0.0,0.0,0.0,0.0,0.0,0.0,0.0,0.0,0.0,0.0,0.0,0.0,0.0,0.0,0.0,0.0,0.0,0.0,0.0,0.0,0.0,0.0,0.0,0.0,0.0,0.0,0.0,0.0,0.0,0.0,0.0,0.0,0.0,0.0,0.0,0.0,0.0,0.0,0.0,0.0,0.0,5.6012,5.6012,5.6012,5.6012,5.6012,5.6012,5.6012,5.6012,5.6046,0.0,0.0,0.0,0.0,0.0,0.0,0.0,0.0,0.0,0.0,0.0,0.0,0.0,0.0,0.0,0.0,0.0,0.0,0.0,0.0,0.0,0.0,0.0,0.0,0.0,0.0,0.0,0.0,0.0,0.0,0.0,0.0,0.0,0.0,0.0,0.0,0.0,0.0,0.0,0.0,0.0,0.0,0.0,0.0,0.0,0.0,0.0,0.0,0.0,0.0,0.0,0.0,0.0,0.0,0.0,0.0,0.0,0.0,0.0,0.0,0.0,0.0,0.0,0.0,0.0,0.0,0.0,0.0,0.0,0.0,0.0,0.0,0.0,0.0,0.0,0.0,0.0,0.0,0.0,0.0,0.0,0.0,0.0,0.0,0.0,0.0,0.0,0.0,0.0,0.0,0.0,0.0,0.0,0.0,0.0,0.0,0.0,0.0,0.0,0.0,0.0,0.0,0.0,5.6012,5.6012,5.6012,5.6012,5.6012,5.6012,5.6012,5.6012,5.6046,5.618,0.0,0.0,0.0,0.0,0.0,0.0,0.0,0.0,0.0,0.0,0.0,0.0,0.0,0.0,0.0,0.0,0.0,0.0,0.0,0.0,0.0,0.0,0.0,0.0,0.0,0.0,0.0,0.0,0.0,0.0,0.0,0.0,0.0,0.0,0.0,0.0,0.0,0.0,0.0,0.0,0.0,0.0,0.0,0.0,0.0,0.0,0.0,0.0,0.0,0.0,0.0,0.0,0.0,0.0,0.0,0.0,0.0,0.0,0.0,0.0,0.0,0.0,0.0,0.0,0.0,0.0,0.0,0.0,0.0,0.0,0.0,0.0,0.0,0.0,0.0,0.0,0.0,0.0,0.0,0.0,0.0,0.0,0.0,0.0,0.0,0.0,0.0,0.0,0.0,0.0,0.0,0.0,0.0,0.0,0.0,0.0,0.0,0.0,0.0,0.0,0.0,0.0,5.6012,5.6012,5.6012,5.6012,5.6012,5.6012,5.6012,5.6012,5.6046,5.618,0.0,0.0,0.0,0.0,0.0,0.0,0.0,0.0,0.0,0.0,0.0,0.0,0.0,0.0,0.0,0.0,0.0,0.0,0.0,0.0,0.0,0.0,0.0,0.0,0.0,0.0,0.0,0.0,0.0,0.0,0.0,0.0,0.0,0.0,0.0,0.0,0.0,0.0,0.0,0.0,0.0,0.0,0.0,0.0,0.0,0.0,0.0,0.0,0.0,0.0,0.0,0.0,0.0,0.0,0.0,0.0,0.0,0.0,0.0,0.0,0.0,0.0,0.0,0.0,0.0,0.0,0.0,0.0,0.0,0.0,0.0,0.0,0.0,0.0,0.0,0.0,0.0,0.0,0.0,0.0,0.0,0.0,0.0,0.0,0.0,0.0,0.0,0.0,0.0,0.0,0.0,0.0,0.0,0.0,0.0,0.0,0.0,0.0,0.0,0.0,0.0,0.0,5.6012,5.6012,5.6012,5.6012,5.6012,5.6012,5.6012,5.6012,5.6046,5.618,0.0,0.0,0.0,0.0,0.0,0.0,0.0,0.0,0.0,0.0,0.0,0.0,0.0,0.0,0.0,0.0,0.0,0.0,0.0,0.0,0.0,0.0,0.0,0.0,0.0,0.0,0.0,0.0,0.0,0.0,0.0,0.0,0.0,0.0,0.0,0.0,0.0,0.0,0.0,0.0,0.0,0.0,0.0,0.0,0.0,0.0,0.0,0.0,0.0,0.0,0.0,0.0,0.0,0.0,0.0,0.0,0.0,0.0,0.0,0.0,5.1628,0.0,0.0,0.0,0.0,0.0,0.0,0.0,0.0,0.0,0.0,0.0,0.0,0.0,0.0,0.0,0.0,0.0,0.0,0.0,0.0,0.0,0.0,0.0,0.0,0.0,0.0,0.0,0.0,0.0,0.0,0.0,0.0,0.0,0.0,0.0,0.0,0.0,0.0,0.0,0.0,0.0,5.6012,5.6012,5.6012,5.6012,5.6012,5.6012,5.6012,5.6046,5.6117,5.618,5.6209,0.0,0.0,0.0,0.0,0.0,0.0,0.0,0.0,0.0,0.0,0.0,0.0,0.0,0.0,0.0,0.0,0.0,0.0,0.0,0.0,0.0,0.0,0.0,0.0,0.0,0.0,0.0,0.0,0.0,0.0,0.0,0.0,0.0,0.0,0.0,0.0,0.0,0.0,0.0,0.0,0.0,0.0,0.0,0.0,0.0,0.0,0.0,0.0,0.0,0.0,0.0,0.0,0.0,0.0,0.0,0.0,0.0,0.0,0.0,0.0,5.2412,0.0,0.0,0.0,0.0,0.0,0.0,0.0,0.0,0.0,0.0,0.0,0.0,0.0,0.0,0.0,0.0,0.0,0.0,0.0,0.0,0.0,0.0,0.0,0.0,0.0,0.0,0.0,0.0,0.0,0.0,0.0,0.0,0.0,0.0,0.0,0.0,0.0,0.0,0.0,0.0,5.7284,5.7267,5.725,5.725,5.7267,5.7284,5.7284,5.693,5.6746,5.683,5.6417,0.0,0.0,0.0,0.0,0.0,0.0,0.0,0.0,0.0,0.0,0.0,0.0,0.0,0.0,0.0,0.0,0.0,0.0,0.0,0.0,0.0,0.0,0.0,0.0,0.0,0.0,0.0,0.0,0.0,0.0,0.0,0.0,0.0,0.0,0.0,0.0,0.0,0.0,0.0,0.0,0.0,0.0,0.0,0.0,0.0,0.0,0.0,0.0,0.0,0.0,0.0,0.0,0.0,5.4611,5.4871,5.4277,5.4946,5.4871,5.4203,5.3572,5.3609,5.4019,5.4351,0.0,0.0,0.0,0.0,0.0,0.0,0.0,0.0,0.0,0.0,0.0,0.0,0.0,0.0,0.0,0.0,0.0,0.0,0.0,0.0,0.0,0.0,0.0,0.0,5.5223,5.5632,0.0,0.0,0.0,0.0,0.0,0.0,0.0,0.0,0.0,0.0,0.0,0.0,5.8656,5.8639,5.8604,5.8621,5.8656,5.8712,5.869,5.8025,5.7683,5.7712,5.6911,5.6459,0.0,0.0,0.0,0.0,0.0,0.0,0.0,0.0,0.0,0.0,0.0,0.0,0.0,0.0,0.0,0.0,0.0,0.0,0.0,0.0,0.0,0.0,0.0,0.0,0.0,0.0,0.0,0.0,0.0,0.0,0.0,0.0,4.889,4.889,0.0,0.0,0.0,0.0,0.0,0.0,0.0,0.0,0.0,0.0,0.0,0.0,0.0,5.3497,5.3497,5.502,5.58,5.58,5.6023,5.606,5.5986,5.6097,5.606,5.5986,5.5874,0.0,5.4056,5.4802,0.0,0.0,0.0,0.0,0.0,0.0,0.0,0.0,0.0,0.0,0.0,0.0,0.0,0.0,0.0,0.0,0.0,0.0,0.0,0.0,0.0,0.0,5.5747,5.6695,5.6974,5.7089,0.0,5.7105,5.7079,5.8065,5.8066,0.0,0.0,0.0,0.0,0.0,0.0,0.0,5.8621,5.8604,5.8621,5.8656,5.8673,5.869,5.8684,5.8653,5.8644,5.8644,5.7857,5.7418,5.7418,5.668,0.0,0.0,0.0,0.0,0.0,0.0,0.0,0.0,0.0,0.0,0.0,0.0,0.0,0.0,0.0,0.0,0.0,0.0,0.0,0.0,0.0,0.0,0.0,0.0,0.0,0.0,0.0,0.0,0.0,4.9299,4.9559,4.9559,5.0005,5.0302,0.0,0.0,0.0,0.0,0.0,0.0,0.0,0.0,0.0,5.3423,5.4574,5.5206,5.5206,5.5949,5.632,5.632,5.6766,5.6989,5.6989,5.7435,5.7398,5.6989,5.7472,5.6769,5.5283,5.521,5.4764,5.4128,0.0,0.0,0.0,0.0,5.4409,5.4409,5.4409,5.4409,0.0,5.4409,0.0,0.0,0.0,0.0,0.0,0.0,0.0,0.0,0.0,0.0,5.6472,5.6983,5.7092,5.7305,5.8038,5.8025,5.7966,0.0,5.8214,5.8406,5.9186,0.0,0.0,0.0,0.0,6.0014,6.0071,6.0014,6.0014,6.0106,6.0123,6.0173,6.0166,5.9784,5.9527,5.9527,5.8725,5.8273,5.8273,5.7457,5.7029,0.0,0.0,0.0,0.0,0.0,0.0,0.0,0.0,0.0,0.0,0.0,0.0,0.0,0.0,0.0,0.0,0.0,0.0,0.0,0.0,0.0,0.0,0.0,0.0,0.0,0.0,0.0,0.0,5.0228,5.0673,5.045,5.1193,5.1639,0.0,0.0,0.0,0.0,0.0,0.0,5.3497,5.4128,5.4723,5.5317,5.6172,5.6729,5.6915,5.7138,5.7323,5.7546,5.8178,5.8438,5.8475,5.9069,5.8884,5.8141,5.8772,5.8103,5.6543,5.599,5.5322,5.4615,5.4763,5.4872,5.4907,5.4978,5.5013,5.5047,5.5047,5.5047,5.5047,5.5047,0.0,5.5948,5.5948,0.0,0.0,0.0,0.0,5.6962,5.715,5.7225,5.7263,5.745,5.7525,5.7747,5.8589,5.8769,5.8736,0.0,5.8577,5.888,5.9919,0.0,0.0,0.0,0.0,6.1446,6.1503,6.1446,6.1369,6.1229,6.1436,6.1624,6.1648,6.1094,6.0759,6.0759,5.9749,5.9127,5.9127,5.835,5.7923,5.7923,0.0,0.0,0.0,0.0,0.0,0.0,0.0,0.0,0.0,0.0,0.0,0.0,0.0,0.0,0.0,0.0,0.0,0.0,0.0,0.0,0.0,0.0,0.0,0.0,0.0,0.0,0.0,0.0,0.0,5.1416,5.2048,0.0,0.0,0.0,0.0,5.3608,5.4388,5.5206,5.606,5.6134,5.6209,5.6246,5.7026,5.7806,5.8586,5.9367,6.0147,6.0964,6.1001,6.1001,6.1038,6.1076,6.0593,5.9775,5.9812,5.8958,5.7435,5.7398,5.6958,5.6292,5.6292,5.6406,5.6593,5.6593,5.6665,5.6774,5.6774,5.6774,5.6774,5.6774,5.6812,5.6812,5.6812,5.6849,0.0,0.0,5.6887,5.7075,5.7863,5.8051,5.8239,5.899,5.9178,5.9178,5.9252,5.9252,5.943,0.0,5.99,5.9908,6.0556,0.0,6.0687,6.2104,6.2356,6.2356,6.2356,6.2356,6.2084,6.1358,6.1995,6.2493,6.2609,6.2585,6.2585,6.2585,6.0953,6.0021,6.0021,5.9205,5.8739,5.8739,5.7962,0.0,0.0,0.0,0.0,0.0,0.0,0.0,0.0,0.0,0.0,0.0,0.0,0.0,0.0,0.0,0.0,0.0,0.0,0.0,0.0,0.0,0.0,0.0,0.0,0.0,0.0,0.0,0.0,5.2977,5.4166,0.0,5.4574,5.4797,5.5094,5.5391,5.5689,5.5986,5.6283,5.7286,5.7843,5.7843,5.9181,6.0035,6.0333,6.0593,6.089,6.1187,6.1187,6.1484,6.1967,6.1967,6.1819,6.1521,6.1521,6.089,5.9887,5.9887,5.8475,5.6362,5.6364,5.648,5.6669,5.6668,5.6778,5.6887,5.6887,5.6887,5.7,5.7488,5.7676,5.7788,5.8276,5.8427,5.8427,5.8427,5.8427,5.8502,5.8802,5.929,5.9666,5.9365,5.9741,5.9966,5.9403,5.929,5.9364,5.9571,6.016,6.0697,6.1141,6.1114,6.1092,6.1273,6.1302,6.1383,6.1524,6.1543,6.1503,6.1336,6.1569,6.1756,6.1871,6.1847,6.2119,6.2663,6.1575,6.1186,6.1769,6.0409,5.9632,5.9632,5.8817,5.8117,0.0,0.0,0.0,0.0,0.0,0.0,0.0,0.0,0.0,0.0,0.0,0.0,0.0,0.0,0.0,0.0,0.0,0.0,0.0,0.0,0.0,0.0,0.0,0.0,0.0,0.0,5.4648,5.4648,5.5874,5.6617,5.632,5.632,5.6432,5.6692,5.6952,5.7249,5.7509,5.8809,5.9552,5.9552,6.063,6.1484,6.2004,6.2004,6.2153,6.2413,6.2413,6.2562,6.2822,6.2822,6.2673,6.2413,6.2413,6.193,6.1187,6.1187,5.9924,5.7955,5.7999,5.812,5.8237,5.8314,5.8428,5.8539,5.8539,5.8539,5.8652,5.9178,5.9365,5.944,5.9966,5.9966,5.9741,5.9741,5.9515,5.929,5.929,5.9741,6.0004,5.944,5.9741,6.0004,5.9403,5.929,5.9403,5.9666,6.0111,6.0539,6.086,6.0921,6.0953,6.1118,6.1127,6.1257,6.1505,6.1814,6.1813,6.1375,6.1801,6.2067,6.1871,6.1847,6.208,6.2663,6.1886,6.1652,6.2235,6.1147,6.0526,6.0526,5.9671,5.8817,5.8001,0.0,0.0,0.0,0.0,0.0,0.0,0.0,0.0,0.0,0.0,0.0,0.0,0.0,0.0,0.0,0.0,0.0,0.0,0.0,0.0,0.0,0.0,0.0,5.502,5.5763,5.6357,5.6357,5.71,5.7286,5.6543,5.6469,5.6766,5.7583,5.8364,5.9144,5.9924,6.0778,6.1261,6.1261,6.1336,6.2116,6.3676,6.3676,6.4048,6.4828,6.4791,6.4345,6.3602,6.3602,6.3193,6.245,6.245,6.2004,6.1261,6.1261,6.1261,6.1261,6.1224,6.1316,6.1487,6.1487,6.1609,6.1806,6.1768,6.1768,6.1768,6.1731,6.1731,6.1768,6.1731,6.1168,6.0567,6.0567,5.9966,5.929,5.929,5.9328,5.9328,5.929,5.9328,5.9328,5.929,5.929,5.9553,6.0417,5.9891,5.94,5.9782,5.9847,6.0297,6.1722,6.1911,0.0,6.2317,6.3091,6.3013,6.1491,6.2771,6.3463,6.2803,6.274,6.2701,6.274,6.1886,6.1419,6.1458,6.1419,6.1419,6.1419,6.0526,5.9671,5.8855,0.0,0.0,0.0,0.0,0.0,0.0,0.0,0.0,0.0,0.0,0.0,0.0,0.0,0.0,0.0,0.0,0.0,0.0,0.0,0.0,0.0,0.0,5.502,5.502,5.6246,5.7398,5.7992,5.8772,5.9404,5.9812,5.985,5.9961,6.0184,6.0407,6.063,6.0853,6.219,6.2933,6.2933,6.4122,6.4976,6.5422,6.4791,6.4605,6.4791,6.4233,6.3825,6.3602,6.3602,6.349,6.3267,6.3267,6.3156,6.2933,6.2933,6.2933,6.2822,6.167,6.1316,6.1487,6.1487,6.1609,6.1731,6.113,6.1318,6.1581,6.0379,6.0417,6.083,6.0191,5.9816,5.9666,5.9666,5.9478,5.929,5.929,5.9778,6.0079,5.944,5.9778,6.0079,5.944,5.929,5.9365,5.9628,5.9478,5.9515,6.0264,6.0377,6.0405,6.0411,6.0395,0.0,6.1097,6.1395,6.1695,6.2134,6.2577,6.3075,6.3595,6.3051,6.2973,6.3595,6.2235,6.1691,6.2313,6.173,6.1419,6.1419,6.0526,5.9982,0.0,0.0,0.0,0.0,0.0,0.0,0.0,0.0,0.0,0.0,0.0,0.0,0.0,0.0,0.0,0.0,0.0,0.0,0.0,0.0,0.0,0.0,5.5317,5.58,5.6469,5.7398,5.8326,5.9107,5.9961,6.063,6.115,6.1187,6.1187,6.1187,6.1819,6.2227,6.2227,6.375,6.4642,6.4642,6.5608,6.6091,6.6091,6.5608,6.5162,6.4791,6.4345,6.3936,6.3602,6.3602,6.3602,0.0,6.3602,6.3602,6.3602,6.3602,6.3602,0.0,0.0,0.0,0.0,0.0,6.2473,6.2294,6.1806,6.1693,6.1618,6.0642,6.068,6.1017,6.0492,6.0116,5.9853,5.9853,5.9591,5.929,5.929,5.9666,5.9929,5.9403,5.9703,5.9929,5.9403,5.929,5.929,5.929,5.929,0.0,5.9966,6.0079,6.0001,5.982,5.9809,5.9962,6.0444,6.1233,6.1918,6.2278,6.3085,6.3712,6.3983,6.3556,0.0,0.0,0.0,6.2002,6.2157,6.1691,0.0,0.0,0.0,6.0642,6.0642,0.0,0.0,0.0,5.8933,5.8545,0.0,0.0,0.0,0.0,0.0,0.0,0.0,0.0,0.0,0.0,0.0,0.0,0.0,0.0,0.0,0.0,5.5949,5.71,5.8624,5.8995,5.9404,6.011,6.0853,6.141,6.1596,6.1633,6.167,6.1744,6.3082,6.3899,6.3899,0.0,0.0,0.0,0.0,6.6239,6.6239,6.6054,6.5571,6.4828,6.4716,6.4308,6.3602,6.3602,6.3602,6.3602,6.3602,6.3602,6.3602,6.3602,6.3602,6.3602,6.3602,6.3691,6.3823,6.4037,6.3753,6.3195,6.3008,0.0,0.0,6.1618,6.1581,6.1656,6.1543,6.1017,6.0454,6.0454,5.9891,5.929,5.929,5.929,5.929,5.929,5.929,5.929,5.929,5.9365,5.944,5.944,5.9515,5.9591,5.9591,5.944,5.9438,5.9824,5.9895,6.0026,6.0428,6.2081,6.3053,6.2506,0.0,0.0,6.4333,6.4178,6.3828,6.3012,6.2896,6.2429,6.1458,6.1497,6.1497,6.1419,6.1419,6.1419,6.1419,6.1419,6.1419,6.1381,5.9827,5.9088,0.0,0.0,0.0,0.0,0.0,0.0,0.0,0.0,0.0,0.0,0.0,0.0,0.0,0.0,0.0,5.58,5.7286,5.8586,5.9552,6.0853,6.1744,6.1893,6.2079,6.2673,6.401,6.4122,6.4419,6.5088,6.5459,6.5645,6.5645,6.6537,6.7094,6.7094,6.7094,6.7094,6.7094,6.5756,6.4976,6.4791,0.0,0.0,6.3602,6.3602,6.3602,6.3602,6.3602,6.3602,6.3602,6.3602,6.3647,6.3736,6.3736,6.3823,6.3873,6.4079,6.4091,6.3871,6.2519,6.2407,6.2519,6.0454,6.0266,6.0717,6.0004,5.9666,0.0,5.9553,5.944,5.929,5.929,5.929,5.929,5.929,5.929,5.929,5.929,5.9853,6.0342,6.0342,6.0867,6.1318,6.1318,6.0191,5.9553,6.0341,6.0454,6.0856,6.2069,6.2623,6.3295,6.4386,6.492,6.5413,6.5965,6.5382,6.4916,6.4721,6.41,6.3051,6.1458,6.208,6.2119,6.1419,6.1419,6.1419,6.1419,6.1419,6.1419,6.1381,6.107,6.0914,0.0,0.0,0.0,0.0,0.0,0.0,0.0,0.0,0.0,0.0,0.0,5.4054,5.4909,0.0,5.606,5.7286,5.8512,5.9738,6.1001,6.2227,6.3007,6.3007,6.3379,6.4085,6.5348,6.5459,6.5645,6.6091,6.6462,6.6722,6.6722,6.7465,6.7911,6.7911,6.7503,6.7131,6.6722,6.5459,6.4605,6.4196,6.3788,6.3602,6.3602,6.4048,6.4196,6.4233,6.4679,6.4605,6.4196,6.3788,6.3691,6.378,6.378,6.3867,6.4,6.4079,6.3941,6.3571,6.2745,6.2181,6.1656,6.0379,5.9966,5.9853,5.944,5.929,5.929,5.929,5.9628,5.9966,5.9966,6.0266,6.0529,6.0529,6.0529,6.0529,6.0529,6.0905,6.1205,6.1205,6.1543,6.1806,6.1806,6.1093,6.0717,6.113,6.1205,6.1469,6.2163,6.2994,6.3809,6.4563,6.5353,6.6027,6.647,6.5693,6.5188,6.5188,6.445,6.3595,6.274,6.3129,6.3168,6.2701,6.2701,6.2701,6.2701,6.2701,6.2701,6.2701,6.2701,6.2235,0.0,0.0,0.0,0.0,0.0,0.0,0.0,5.4054,5.4277,5.5094,5.5243,5.5503,5.6357,5.7212,5.7992,5.8809,5.9775,6.0927,6.2413,6.3342,6.3973,6.4308,6.4753,6.5385,6.6239,6.6351,6.6425,6.6574,6.7168,6.754,6.754,6.8023,6.8283,6.8283,6.7317,6.65,6.5868,6.5013,6.4345,6.3825,6.3825,6.3936,6.4122,6.4753,6.5051,6.5088,6.5645,6.5459,6.4753,6.3936,6.3691,6.3823,6.3823,6.3995,6.4162,6.4121,6.3791,6.3308,6.3158,6.2219,6.1055,6.0905,6.0379,5.9778,5.9778,5.9778,5.9778,5.9778,6.0304,6.083,6.083,6.1318,6.1806,6.1806,6.1806,6.1806,6.1806,6.1919,6.2031,6.2031,6.2181,6.2294,6.2294,6.2294,6.2219,6.2069,6.2031,6.2183,6.2447,6.3594,6.4419,6.4616,6.5702,6.6439,6.6508,6.5848,6.5382,6.5226,6.476,6.4333,6.4022,6.4139,6.4139,6.3983,6.3983,6.3983,6.3983,6.3983,6.3983,6.3983,6.3983,6.3245,5.3683,5.3683,5.3683,5.3794,5.3794,5.398,0.0,5.4871,5.5131,5.5986,5.6172,5.6395,5.7212,5.8029,5.8846,5.9627,6.1113,6.245,6.3342,6.4159,6.5236,6.6722,6.6351,6.6277,6.7094,6.7168,6.7465,6.8208,6.832,6.8394,6.8394,6.78,6.7428,6.7428,6.5905,6.5051,6.4976,6.4159,6.4048,6.4679,6.4679,6.5088,6.5831,6.5905,6.5942,6.5942,6.5236,6.4902,6.4753,6.4026,6.3823,6.3873,6.4,6.4162,6.4244,6.4162,6.4128,6.4059,6.3345,6.297,6.2707,6.1919,6.1581,6.1506,6.1506,6.1506,6.1506,6.1506,6.1581,6.1656,6.1656,6.1731,6.1806,6.1806,6.1806,6.1806,6.1806,6.2407,6.297,6.297,6.3533,6.4021,6.4021,6.4021,6.3759,6.3045,6.297,6.3427,6.4731,6.494,6.5301,6.607,6.6205,6.6299,6.6493,6.6392,6.6003,6.5265,6.5848,6.5537,6.4061,6.4683,6.4721,6.4022,6.3983,6.3983,6.3983,6.3983,6.3983,6.3983,6.3983,6.3906,5.3794,5.3794,5.3905,5.4388,5.45,5.4723,5.5577,5.5763,5.5986,5.684,5.736,5.7955,5.8772,5.9961,6.0964,6.1298,6.2747,6.3936,6.427,6.5013,6.5831,6.6537,6.6314,6.6611,6.7874,6.7577,6.7651,6.8468,6.8506,6.8506,6.8506,6.8208,6.78,6.7317,6.6648,6.6054,6.5571,6.5236,6.5236,6.5571,6.5571,6.5756,6.6128,6.6574,6.7057,6.7465,6.6648,6.6017,6.5496,6.4725,6.4189,6.3915,6.3958,6.4083,6.4284,6.4244,6.4244,6.4247,6.3909,6.3496,6.3045,6.267,6.2219,6.1806,6.1806,6.1806,6.1806,6.1806,6.2181,6.2557,6.2557,6.2895,6.3233,6.3233,6.3233,6.3383,6.3834,6.4247,6.466,6.5148,6.5523,6.5749,6.5749,6.5749,6.5636,6.5298,6.481,6.4783,6.5597,6.5862,6.6074,6.6358,6.6389,6.6406,6.6508,6.6508,6.6353,6.5965,6.6314,6.6198,6.5498,6.577,6.5809,6.546,6.546,6.546,6.546,6.546,6.546,6.546,6.546,6.546,5.3794,5.398,5.4277,5.4871,5.5206,5.5577,5.6432,5.6803,5.7212,5.7992,5.8809,5.9589,6.0147,6.1447,6.2487,6.271,6.3899,6.4902,6.5125,6.5719,6.6091,6.6091,6.5905,6.6314,6.7725,6.7317,6.7205,6.78,6.806,6.8097,6.7874,6.7837,6.7577,6.6982,6.676,6.6462,6.6091,6.6091,6.6202,6.6425,6.6425,6.6574,6.6797,6.7391,6.7948,6.8468,6.7428,6.6648,6.6017,6.4939,6.4257,6.3915,6.3915,6.4042,6.4284,6.4284,6.4284,6.4284,6.4284,6.3909,6.3421,6.3421,6.3008,6.2482,6.2482,6.2482,6.2482,6.2482,6.2932,6.3496,6.3683,6.4172,6.4697,6.4923,6.496,6.5148,6.5711,6.5861,6.6049,6.665,6.68,6.68,6.68,6.68,6.6875,6.71,6.6575,6.6249,6.6332,6.6796,6.7102,6.7056,6.716,6.713,6.6897,6.6858,6.6742,6.6508,6.6508,6.6508,6.6508,6.6508,6.6508,6.6508,6.6508,6.6508,6.6508,6.6508,6.6508,6.6508,6.6508,6.6508,5.3794,5.4388,5.4983,5.4983,5.5652,5.6469,5.7286,5.8066,5.8884,5.9664,6.0518,6.115,6.115,6.1856,6.2673,6.3453,6.427,6.5125,6.5942,6.6091,6.6091,6.6091,6.5348,6.5199,6.6091,6.6165,6.6165,6.6165,6.6908,6.702,6.6202,6.6165,6.6165,6.6128,6.5348,6.5274,6.6091,6.6091,6.65,6.728,6.728,6.7688,6.8431,6.8468,6.8506,6.8431,6.6834,6.6128,6.5979,6.4345,6.3736,6.3915,6.3915,6.4042,6.4284,6.4284,6.4284,6.4284,6.4284,6.4284,6.4247,6.4247,6.4247,6.4209,6.4209,6.4209,6.4209,6.4209,6.4247,6.4434,6.5223,6.5448,6.5674,6.65,6.6725,6.6725,6.6762,6.6762,6.6762,6.6762,6.68,6.68,6.68,6.68,6.7063,6.7851,6.7926,6.7755,6.724,6.785,6.8413,6.8704,6.8912,6.8684,6.7829,6.7752,6.7402,6.6547,6.6508,6.6508,6.6508,6.6508,6.6508,6.6508,6.6508,6.6508,6.6508,6.6508,6.6508,6.6508,6.6508,6.6508,5.4314,5.4797,5.5391,5.7063,5.7695,5.8252,5.9627,6.0184,6.0295,5.9961,6.0593,6.1038,6.0444,6.1484,6.2487,6.2784,6.4419,6.5571,6.5274,6.6202,6.65,6.5385,6.4976,6.4716,6.4456,6.4939,6.5496,6.6054,6.6351,6.6611,6.6871,6.6908,6.6908,6.6908,6.7131,6.7168,6.6908,6.7428,6.7837,6.8097,6.8097,6.8246,6.8506,6.8506,6.8506,6.8468,6.7948,6.7391,6.6871,6.6314,6.5858,6.5559,6.5559,6.5689,6.5936,6.5936,6.5936,6.5786,6.4697,6.4284,6.4397,6.4923,6.511,6.5185,6.5786,6.5936,6.5936,6.5936,6.5936,6.6011,6.6274,6.6349,6.6425,6.6725,6.68,6.695,6.7476,6.7589,6.7739,6.8302,6.8377,6.8377,6.8377,6.8377,6.849,6.8753,6.8553,6.8338,6.8294,6.8212,6.8346,6.87,6.884,6.8855,6.8668,6.8645,6.8529,6.8257,6.7674,6.7363,6.7363,6.6819,6.6508,6.6508,6.6508,6.6508,6.6508,6.6508,6.6508,6.6508,6.6508,6.6508,5.5094,5.5874,5.6766,5.8661,5.9367,5.9887,6.0964,6.1187,6.1038,6.0481,6.0555,6.0555,5.9998,6.0778,6.1633,6.193,6.3788,6.5125,6.4865,6.5756,6.6017,6.4939,6.4568,6.4196,6.3676,6.4345,6.4939,6.5199,6.5756,6.6202,6.6425,6.6982,6.7317,6.7317,6.78,6.7986,6.7725,6.8246,6.8506,6.8506,6.8506,6.8506,6.8506,6.8506,6.8506,6.8506,6.8208,6.78,6.728,6.703,6.6723,6.6381,6.6462,6.6593,6.68,6.68,6.68,6.665,6.5561,6.5185,6.5261,6.5786,6.5974,6.6049,6.6612,6.68,6.68,6.68,6.68,6.6838,6.7138,6.7213,6.7288,6.7589,6.7664,6.7814,6.834,6.8452,6.8602,6.9128,6.9203,6.9316,6.9616,6.9917,7.0104,7.0104,6.983,6.9549,6.9274,6.9005,6.902,6.9568,6.9691,6.9653,6.9523,6.9539,6.9422,6.9111,6.8567,6.8257,6.8257,6.7441,6.6975,6.6975,6.6664,6.6508,6.6508,6.6508,6.6508,6.6508,6.6508,6.6508,5.6172,5.7583,5.8995,5.9812,6.0667,6.1261,6.1261,6.1261,6.1261,6.115,6.0481,5.9887,5.985,5.9924,6.0258,6.1076,6.2636,6.401,6.4716,6.4939,6.4976,6.4902,6.4233,6.3788,6.375,6.4419,6.4568,6.3788,0.0,6.5756,6.4976,6.6462,6.7317,6.7354,6.7354,6.7725,6.8506,6.8543,6.858,6.858,6.858,6.8543,6.8506,6.8506,6.8506,6.8468,6.7688,6.7354,6.7317,6.6639,6.6441,6.653,6.6662,6.6791,6.6913,6.6913,6.6913,6.6913,6.6913,6.6838,6.68,6.6838,6.6838,6.6838,6.6913,6.6913,6.6913,6.6913,6.6913,6.71,6.7851,6.8077,6.8264,6.9015,6.9203,6.9241,6.9278,6.9278,6.9278,6.9316,6.9353,6.9616,7.0405,7.1193,7.1719,7.1719,7.1719,7.1304,7.0296,7.0137,7.0425,7.1175,7.1278,7.1048,7.0416,7.0354,7.0044,6.9267,6.9189,6.915,6.915,6.8334,6.7868,6.7868,6.7052,6.6625,6.6625,6.6625,6.6625,6.6625,6.6625,6.6625,5.7546,5.8846,5.9961,6.141,6.193,6.2116,6.2116,6.2116,6.1744,6.0481,6.0072,5.9738,5.9144,6.0035,6.0964,6.115,6.3602,6.5311,6.4865,6.6388,6.7131,6.5905,6.6128,6.6128,6.5534,6.5645,6.5682,0.0,6.5868,6.6277,6.6648,6.7094,6.7577,6.8208,6.8208,6.832,6.8506,6.91,6.9397,6.9397,6.9397,6.91,6.8506,6.8506,6.8506,6.8506,6.8283,6.8208,6.8208,6.8129,6.8111,6.8249,6.8384,6.8435,6.8602,6.8602,6.8602,6.8602,6.8602,6.7814,6.6875,6.7476,6.7701,6.7814,6.8415,6.8602,6.8602,6.8602,6.8602,6.864,6.8865,6.8903,6.8978,6.9166,6.9203,6.9391,7.0029,7.0179,7.0367,7.0968,7.1081,7.1156,7.1381,7.1569,7.1719,7.1719,7.1719,7.1482,7.0915,7.0877,7.0861,7.086,7.0965,7.1054,7.1029,7.1197,7.117,7.0976,7.0354,7.0005,7.0005,6.9228,6.8762,6.8762,6.8567,6.8451,6.8451,6.8451,6.8451,6.8451,6.8451,6.8451,5.9218,6.0407,6.1336,6.2599,6.2673,6.2413,6.2413,6.1856,6.1038,6.011,5.9367,5.8846,5.8735,5.9478,6.0221,6.0593,6.2784,6.4568,6.4791,6.6017,6.6834,6.6648,6.6722,6.6611,6.6128,6.6425,6.6648,6.6648,6.6648,6.6834,6.728,6.7651,6.8023,6.8506,6.884,6.9211,6.9583,7.0029,7.0066,6.9732,6.9732,6.9286,6.8506,6.8506,6.8506,6.8506,0.0,6.8506,6.8506,6.865,6.8744,6.8921,6.8983,6.9072,6.9203,6.9203,6.9203,6.9203,6.9203,6.8602,6.7926,6.8377,6.8527,6.8602,6.9091,6.9203,6.9203,6.9203,6.9203,6.9316,6.9691,6.9766,6.9879,7.0217,7.033,7.0442,7.093,7.1043,7.1156,7.1606,7.1982,7.2245,7.2245,7.2545,7.2808,7.2808,7.2808,7.2642,7.2078,7.1863,7.1849,7.1948,7.1724,7.1688,7.1959,7.1648,7.149,7.1598,7.1131,7.086,7.086,7.0083,6.9616,6.9616,6.9267,6.9111,6.9111,6.9111,6.9111,6.9111,6.9111,6.9111,6.089,6.1967,6.2747,6.3453,6.3007,6.2376,6.2264,6.1038,5.9887,5.9775,5.8624,5.7881,5.8586,5.8809,5.9144,5.9961,6.1484,6.3082,6.4605,6.5013,6.5682,6.7131,6.6797,6.6425,6.6425,6.7057,6.7465,6.7465,6.7465,6.7465,6.7465,6.8134,6.858,6.8654,6.9472,7.0252,7.1069,7.0958,7.0549,6.988,6.9769,6.9286,6.8506,6.8506,6.8506,6.8506,6.8506,0.0,6.8506,6.865,6.8744,6.8921,6.8983,6.9147,6.9391,6.9391,6.9466,6.9541,6.9541,6.9541,6.9504,6.9278,6.9278,6.9391,6.9391,6.9466,6.9541,6.9541,6.9541,6.9729,7.048,7.0668,7.0855,7.1531,7.1719,7.1757,7.1832,7.1944,7.2057,7.2057,7.262,7.3071,7.3071,7.3709,7.4197,7.4197,7.4197,7.4026,7.3458,7.3041,7.3008,7.3443,7.2894,7.26,7.2947,7.2076,7.1572,7.1719,7.1675,7.1598,7.1598,7.086,7.0471,7.0471,6.9811,6.9422,6.9422,6.9422,6.9422,6.9422,6.9422,6.9422,6.1744,6.2784,6.3453,6.3565,6.3007,6.2227,6.1558,6.063,5.9738,5.9069,5.8698,5.8549,5.8661,5.9255,5.9998,6.0853,6.2339,6.3713,6.4679,6.6017,6.6982,6.728,6.7763,6.8097,6.8097,6.8208,6.832,6.832,6.832,6.832,6.832,6.8431,6.8803,6.9472,7.0289,7.1106,7.1961,7.1255,7.0846,7.0698,7.0029,6.9286,6.8506,6.8506,6.8506,6.8506,6.8506,0.0,6.8506,6.865,6.8744,6.8921,6.8983,6.9484,7.0255,7.0255,7.0705,7.1268,7.1268,7.1268,7.1043,6.9654,6.9691,7.0255,7.0255,7.0743,7.1268,7.1268,7.1268,7.1306,7.1456,7.1494,7.1531,7.1681,7.1719,7.1907,7.2545,7.3258,7.3784,7.3784,7.3897,7.3972,7.3972,7.4122,7.4197,7.4197,7.4197,7.4214,7.4249,7.379,7.3345,7.3137,7.3273,7.3407,7.3481,7.2948,7.2559,7.2424,7.1917,7.1598,7.1598,7.1442,7.1365,7.1365,7.1248,7.117,7.117,7.117,7.117,7.117,7.117,7.117,6.271,6.3305,6.3602,6.3602,6.2673,6.167,6.1298,6.0221,5.9181,5.8772,5.8698,5.8698,5.8698,5.9367,6.0035,6.0481,6.1558,6.2784,6.401,6.5236,6.6314,6.7205,6.8023,6.8506,6.8506,6.8506,6.8691,6.91,6.9137,6.9137,6.9137,6.9546,7.014,7.0958,7.1366,7.1961,7.2815,7.1998,7.1366,7.092,7.0103,6.9286,6.8506,6.8506,6.8506,6.8506,6.8506,0.0,6.8543,6.9,6.9283,6.9463,6.992,7.0471,7.1029,7.1029,7.1336,7.1719,7.1719,7.1719,7.1569,7.078,7.078,7.1118,7.1118,7.1381,7.1719,7.1719,7.1719,7.1794,7.2207,7.232,7.2432,7.2883,7.2996,7.3108,7.3484,7.3897,7.4197,7.4197,7.4197,7.4197,7.4197,7.4197,7.4197,7.4197,7.4197,7.4243,7.4297,7.418,7.4141,7.427,7.4284,7.432,7.4378,7.3673,7.3253,7.3291,7.244,7.2016,7.2134,7.1687,7.149,7.1598,7.1598,7.1598,7.1598,7.1598,7.1598,7.1598,7.1598,7.1598,6.3305,6.3602,6.3602,6.3602,6.2413,6.1187,6.1187,5.9924,5.8698,5.8698,5.8698,5.8698,5.8698,5.9218,5.9701,5.9887,6.0481,6.1484,6.3119,6.4196,6.5385,6.6871,6.7911,6.8506,6.8506,6.8654,6.9026,6.9657,7.0029,7.0177,6.9992,7.0735,7.1478,7.2146,7.2184,7.2481,7.3112,7.2146,7.1329,7.066,6.9843,6.9137,6.8506,6.8506,6.8617,6.8766,6.8766,0.0,0.0,6.9732,7.0041,7.0225,7.0858,7.1376,7.1762,7.1762,7.192,7.2245,7.2245,7.2245,7.2245,7.2245,7.2132,7.1982,7.1982,7.2094,7.2245,7.2245,7.2245,7.2395,7.2996,7.3183,7.3334,7.4047,7.4197,7.4197,7.4197,7.4197,7.4197,7.4197,7.4197,7.4197,7.4197,7.4197,7.4197,7.4197,7.4197,7.4197,7.4197,7.4387,7.4695,7.5205,7.5134,7.5118,7.5276,7.4422,7.3895,7.4099,7.3148,7.2684,7.2865,7.2035,7.1688,7.187,7.1714,7.1598,7.1598,7.1598,7.1598,7.1598,7.1598,7.1598,6.297,6.3602,6.3602,6.3602,6.2413,6.1187,6.1187,5.9924,5.8698,5.8698,5.8698,5.8698,5.8698,5.8772,5.9069,5.9775,5.9998,6.0593,6.2301,6.3825,6.5162,6.6091,6.7577,6.8506,6.8506,6.9174,6.962,6.9694,7.1106,7.1626,7.0846,7.1589,7.2109,7.2184,7.2184,7.2221,7.2295,7.0735,6.9917,6.9806,6.8989,6.858,6.8506,6.8506,6.8914,6.962,6.962,0.0,0.0,7.0772,7.0859,7.1007,7.1082,7.1712,7.2623,7.2623,7.3157,7.3972,7.3972,7.3972,7.3972,7.3972,7.3446,7.2808,7.2808,7.3334,7.3972,7.3972,7.3972,7.4009,7.4085,7.4085,7.4122,7.4197,7.4197,7.4197,7.4197,7.4197,7.4197,7.4197,7.4197,7.4197,7.4197,7.4197,7.4197,7.4197,7.4197,7.4197,7.4197,7.4387,7.4482,7.4568,7.5092,7.5595,7.6006,7.5195,7.4694,7.4719,7.3961,7.3572,7.3756,7.2943,7.256,7.2802,7.1986,7.1598,7.1598,7.1598,7.1598,7.1598,7.1598,7.1598,6.2361,6.2965,6.3158,6.3511,6.2114,6.0757,6.11,5.9924,5.8698,5.8698,5.8698,5.8698,5.8698,5.8698,5.8809,5.9144,5.9589,6.0333,6.1521,6.3082,6.4605,6.5942,6.7094,6.8171,6.9137,6.9509,7.014,7.1143,7.2258,7.2778,7.2406,7.2704,7.2666,7.2221,7.2184,7.1923,7.1441,7.0289,6.9732,6.9694,6.8877,6.8506,6.8543,6.9026,6.9397,6.9732,7.0215,0.0,0.0,7.1478,7.1714,7.1802,7.2322,7.2795,7.3243,7.3243,7.3565,7.3961,7.4056,7.4009,7.3961,7.4056,7.3784,7.3484,7.3625,7.3934,7.4197,7.4197,7.4197,7.4197,7.4197,7.4197,7.4197,7.4197,7.4197,7.4197,7.4197,7.4197,7.4197,7.4197,7.4197,7.4197,7.4197,7.4197,7.4197,7.4197,7.4197,7.4197,7.4197,7.4289,7.4342,7.4476,7.5132,7.5551,7.571,7.5524,7.539,7.539,7.4512,7.4101,7.4446,7.3635,7.3347,7.3695,7.2841,7.2375,7.2375,7.187,7.1598,7.1598,7.1598,7.1598,6.1879,6.2475,6.2741,6.314,6.1883,6.0591,6.0766,5.9738,5.8698,5.8698,5.8884,5.8995,5.8735,5.8884,5.8995,5.8735,5.9404,6.0221,6.1076,6.2599,6.4122,6.5571,6.6462,6.7577,6.9211,7.0029,7.1032,7.2444,7.3075,7.3372,7.3372,7.3149,7.2778,7.2221,7.1701,7.118,7.0549,6.9769,6.936,6.936,6.9026,6.8877,6.8877,6.9694,7.0215,7.0475,7.1032,0.0,0.0,7.2295,7.2518,7.2592,7.3149,7.3476,7.3615,7.3615,7.3715,7.3815,7.3912,7.3912,7.3815,7.3912,7.3864,7.3815,7.4009,7.4104,7.4151,7.4151,7.4151,7.4197,7.4197,7.4197,7.4197,7.4197,7.4197,7.4197,7.4197,7.4197,7.4197,7.4197,7.4197,7.4197,7.4197,7.4197,7.4197,7.4197,7.4197,7.4197,7.4197,7.4197,7.4243,7.4387,7.4901,7.5277,7.5489,7.5622,7.5718,7.578,7.5085,7.4804,7.5089,7.4333,7.4108,7.444,7.3678,7.3268,7.3268,7.2685,7.2219,7.1986,7.1986,7.1831,6.1521,6.2413,6.2413,6.2413,6.1819,6.0964,6.011,5.9292,5.8698,5.8698,5.9329,5.9664,5.8846,5.9367,5.9627,5.8846,5.9404,6.0221,6.1076,6.2599,6.3899,6.4716,6.5571,6.676,6.8357,7.0735,7.2481,7.3298,7.3372,0.0,7.3372,7.2629,7.2184,7.2184,7.0586,6.9732,6.9732,6.8914,6.8506,6.8543,6.9323,6.9694,6.9732,7.0549,7.1366,7.2146,0.0,0.0,0.0,7.3372,7.3372,7.3372,7.3372,7.3476,7.3615,7.3615,7.3715,7.3815,7.3815,7.3815,7.3815,7.3815,7.3815,7.3815,7.3815,7.3912,7.4009,7.4009,7.4104,7.4197,7.4197,7.4197,7.4197,7.4197,7.4197,7.4197,7.4197,7.4197,7.4197,7.4197,7.4197,7.4197,7.4197,7.4197,7.4197,7.4197,7.4197,7.4197,7.4197,7.4197,7.4197,7.4197,7.4387,7.4781,7.5417,7.5523,7.5589,7.578,7.578,7.578,7.578,7.5166,7.4871,7.5094,7.4518,7.42,7.42,7.4162,7.3734,7.288,7.288,7.2413,5.9812,6.0272,6.0129,6.13,6.0397,5.9333,5.9789,5.9701,5.9515,5.9515,6.0221,6.0704,6.0481,6.0147,5.9812,5.9589,5.9738,6.0221,6.1076,6.2116,6.349,6.5459,6.7874,6.9583,7.0103,7.1886,7.3112,7.3372,7.3372,7.3149,7.2592,7.1775,7.1329,7.1329,7.0289,6.9472,6.8914,6.8654,6.8803,6.9323,6.9583,6.9992,7.0549,7.1403,7.1923,0.0,0.0,0.0,0.0,7.3372,7.3372,7.3372,7.3372,7.3424,7.3424,7.3424,7.3476,7.3527,7.3665,7.3578,7.3527,7.3665,7.3615,7.3564,7.3564,7.3678,7.3912,7.4009,7.4056,7.4104,7.4151,7.4197,7.4197,7.4197,7.4197,7.4197,7.4197,7.4197,7.4197,7.4197,7.4197,7.4197,7.4197,7.4197,7.4197,7.4197,7.4197,7.4197,7.4197,7.4197,7.4197,7.4197,7.4243,7.4432,7.4781,7.5095,7.532,7.5392,7.5532,7.566,7.578,7.5601,7.5644,7.5985,7.5214,7.4907,7.5094,7.4472,7.4045,7.3773,7.3773,7.3657,5.875,5.9091,5.8878,6.0359,5.9642,5.8689,5.9087,5.9536,5.9758,5.9366,6.0552,6.1515,6.0966,6.0611,6.0295,5.9961,6.0184,6.0593,6.1113,6.2413,6.4122,6.6314,6.8877,7.0586,7.0883,7.2406,7.3261,7.2964,7.2927,7.2592,7.1738,7.092,7.0475,7.0475,6.9694,6.9026,6.8506,6.8803,6.9211,6.9732,7.0363,7.092,7.1441,7.2258,7.2629,0.0,0.0,0.0,0.0,7.3372,7.3372,7.3372,7.3372,7.3372,7.3372,7.3372,7.3372,7.3424,7.3513,7.3476,7.3424,7.3513,7.3476,7.3372,7.3372,7.3527,7.3765,7.3912,7.3961,7.4009,7.4104,7.4151,7.4197,7.4197,7.4197,7.4197,7.4197,7.4197,7.4197,7.4197,7.4197,7.4197,7.4197,7.4197,7.4197,7.4197,7.4197,7.4197,7.4197,7.4197,7.4197,7.4197,7.4197,7.4243,7.4387,7.4859,7.5171,7.5209,7.5462,7.5666,7.5692,7.5787,7.5928,7.616,7.5802,7.5679,7.5818,7.5077,7.4706,7.4667,7.4356,7.42,0.0,5.8505,5.8355,5.9472,5.9345,5.8794,5.8189,5.9065,0.0,5.871,6.0662,6.2094,6.0662,6.0839,6.0927,6.0035,6.0593,6.115,6.1187,6.3342,6.5496,6.7131,6.8766,7.0103,7.0846,7.2369,7.3001,7.2258,7.2109,7.1738,7.0883,7.014,6.9694,6.962,6.8951,6.8617,6.8617,6.936,6.9769,6.9917,7.1441,7.2221,7.2295,7.3038,7.3372,0.0,0.0,0.0,0.0,7.3372,7.3372,7.3372,7.3372,7.3372,7.3372,7.3372,7.3372,7.3372,7.3372,7.3372,7.3372,7.3372,7.3372,7.3372,7.3372,7.3513,7.3578,7.3765,7.3864,7.4009,7.4009,7.4104,7.4197,7.4197,7.4197,7.4197,7.4197,7.4197,7.4197,7.4197,7.4197,7.4197,7.4197,7.4197,7.4197,7.4197,7.4197,7.4197,7.4197,7.4197,7.4197,7.4197,7.4197,7.4197,7.4197,7.4743,7.5056,7.5171,7.5527,7.566,7.5501,7.566,7.5818,7.578,7.6224,7.6411,7.6433,7.5837,7.5599,7.556,7.4744,7.4395,5.6582,0.0,5.6542,5.7993,5.7993,5.7911,0.0,6.0172,6.0863,6.0774,6.2113,6.2909,6.147,6.1246,6.0927,6.0035,6.0072,6.0444,6.1113,6.3862,6.6165,6.7205,6.9286,7.0698,7.0883,7.1849,7.2369,7.2184,7.1589,7.0846,7.0029,6.9806,6.9434,6.8803,6.9211,6.9434,6.9434,6.962,7.0363,7.1626,7.1998,7.2518,7.3112,7.3298,7.3372,0.0,0.0,0.0,7.3372,7.3372,7.3372,7.3372,7.3372,7.3372,7.3372,7.3372,7.3372,7.3372,7.3372,7.3372,7.3372,7.3372,7.3372,7.3372,7.3372,7.3424,7.3476,7.3615,7.3665,7.3728,7.3961,7.4056,7.4056,7.4151,7.4197,7.4197,7.4197,7.4197,7.4197,7.4197,7.4197,7.4197,7.4197,7.4197,7.4197,7.4197,7.4197,7.4197,7.4197,7.4197,7.4197,7.4197,7.4197,7.4197,7.4197,7.4482,7.4653,7.4691,7.5095,7.532,7.5284,7.5462,7.5628,7.578,7.6224,7.6475,7.6632,7.6475,7.6415,7.6415,7.6221,7.6104,5.5794,5.5706,5.5822,5.7216,5.7116,5.718,5.882,6.0029,6.0886,6.109,6.2424,6.3317,6.2242,6.1911,6.1484,6.063,6.0815,6.1484,6.2673,6.4382,6.6239,6.8171,6.9583,7.066,7.1441,7.1923,7.1849,7.1106,7.0623,7.0029,6.9211,6.9174,6.8951,6.8506,6.9286,6.9732,6.9732,7.0475,7.1292,7.2184,7.2555,7.2964,7.3372,7.3372,7.3372,0.0,0.0,0.0,7.3372,7.3372,7.3372,7.3372,7.3372,7.3372,7.3372,7.3372,7.3372,7.3372,7.3372,7.3372,7.3372,7.3372,7.3372,7.3372,7.3372,7.3372,7.3424,7.3513,7.3527,7.3628,7.3815,7.3912,7.4009,7.4104,7.4151,7.4197,7.4197,7.4197,7.4197,7.4197,7.4197,7.4197,7.4197,7.4197,7.4197,7.4197,7.4197,7.4197,7.4197,7.4197,7.4197,7.4197,7.4197,7.4197,7.4197,7.4289,7.4387,7.4519,7.4857,7.5056,7.5209,7.5321,7.5497,7.578,7.6083,7.6366,7.6536,7.6651,7.6687,7.6687,7.6687,7.6687,5.5507,5.5507,5.5764,5.6704,5.6652,5.6689,5.8172,5.9443,6.0408,6.0772,6.2254,6.3299,6.2647,6.2355,6.1967,6.115,6.1707,6.2859,6.4753,6.5013,6.6165,6.936,6.9732,7.0326,7.1849,7.1886,7.1218,6.9806,6.962,6.9249,6.8543,6.8506,6.858,6.8691,6.9472,6.9955,7.0103,7.1478,7.2258,7.2369,7.3038,7.3372,7.3372,7.3372,7.3372,7.3372,0.0,0.0,7.3372,7.3372,7.3372,7.3372,7.3372,7.3372,7.3372,7.3372,7.3372,7.3372,7.3372,7.3372,7.3372,7.3372,7.3372,7.3372,7.3372,7.3372,7.3372,7.3372,7.3476,7.3578,7.3578,7.3765,7.3961,7.4009,7.4104,7.4151,7.4197,7.4197,7.4197,7.4197,7.4197,7.4197,7.4197,7.4197,7.4197,7.4197,7.4197,7.4197,7.4197,7.4197,7.4197,7.4197,7.4197,7.4197,7.4197,7.4197,7.4289,7.4432,7.4653,7.4859,7.5209,7.5209,7.5427,7.584,7.6013,7.6185,7.6454,7.6614,7.6687,7.6687,7.6687,7.6687,5.5507,5.5507,5.5648,5.6257,5.6366,5.6832,5.8858,5.9502,6.001,6.1444,6.2318,6.261,6.1814,6.1542,6.1113,6.0258,6.0815,6.245,6.5496,6.5905,6.6871,6.9397,6.9732,7.0103,7.1032,7.0475,6.9992,6.9732,6.91,6.8654,6.8506,6.8506,6.884,6.9509,7.0326,7.1069,7.1812,7.2035,7.2518,7.3187,7.3335,7.3372,7.3372,7.3372,7.3372,7.3372,0.0,7.3372,7.3372,7.3372,7.3372,7.3372,7.3372,7.3372,7.3372,7.3372,7.3372,7.3372,7.3372,7.3372,7.3372,7.3372,7.3372,7.3372,7.3372,7.3372,7.3372,7.3372,7.3424,7.3424,7.3564,7.3665,7.3715,7.3961,7.4009,7.4056,7.4151,7.4197,7.4197,7.4197,7.4197,7.4197,7.4197,7.4197,7.4197,7.4197,7.4197,7.4197,7.4197,7.4197,7.4197,7.4197,7.4197,7.4197,7.4197,7.4197,7.4197,7.4243,7.4432,7.4733,7.5171,7.5209,7.5459,7.6068,7.6095,7.6297,7.6651,7.6669,7.6687,7.6687,7.6687,7.6687,5.5507,5.5507,5.5566,5.5822,5.6162,5.7071,5.9459,5.9832,6.0178,6.1927,6.2544,6.2438,6.1667,6.1726,6.1856,6.1893,6.2599,6.3862,6.5831,6.6091,6.6834,0.0,0.0,6.9397,7.0177,6.9917,6.9546,6.91,6.8729,6.8506,6.8506,6.8506,6.8877,6.9694,7.0512,7.1329,7.2184,7.2629,7.3001,7.3372,7.3372,7.3372,7.3372,7.3372,7.3372,7.3372,0.0,7.3372,7.3372,7.3372,7.3372,7.3372,7.3372,7.3372,7.3372,7.3372,7.3372,7.3372,7.3372,7.3372,7.3372,7.3372,7.3372,7.3372,7.3372,7.3372,7.3372,7.3372,7.3372,7.3424,7.3476,7.3564,7.3665,7.3728,7.3875,7.4009,7.4104,7.4151,7.4197,7.4197,7.4197,7.4197,7.4197,7.4197,7.4197,7.4197,7.4197,7.4197,7.4197,7.4197,7.4197,7.4197,7.4197,7.4197,7.4197,7.4197,7.4197,7.4197,7.4387,7.4606,7.4816,7.5056,7.5356,7.5589,7.5918,7.6199,7.6389,7.6614,7.6687,7.6687,7.6687,7.6687,5.5507,5.5507,5.5543,5.586,5.6294,5.7188,5.9481,5.9799,6.0196,6.226,6.2448,6.2068,6.163,6.1744,6.2197,6.2974,6.3882,6.4976,6.6202,6.6388,6.6982,6.8617,6.8617,6.884,6.962,6.9546,6.9174,6.858,6.8506,6.8506,6.8506,6.8506,6.8989,6.9955,7.0586,7.1403,7.2444,7.3075,7.3372,7.3372,7.3372,7.3372,7.3372,7.3372,7.3372,7.3372,7.3372,7.3372,7.3372,7.3372,7.3372,7.3372,7.3372,7.3372,7.3372,7.3372,7.3372,7.3372,7.3372,7.3372,7.3372,7.3372,7.3372,7.3372,7.3372,7.3372,7.3372,7.3372,7.3372,7.3372,7.3372,7.3476,7.3564,7.3578,7.3765,7.3923,7.4009,7.4104,7.4151,7.4197,7.4197,7.4197,7.4197,7.4197,7.4197,7.4197,7.4197,7.4197,7.4197,7.4197,7.4197,7.4197,7.4197,7.4197,7.4197,7.4197,7.4197,7.4197,7.4342,7.4476,7.4519,7.4939,7.5208,7.5318,7.589,7.616,7.6248,7.6536,7.6687,7.6687,7.6687,7.6687,5.5507,5.5507,5.5766,5.6944,5.6905,5.6951,5.8452,5.8958,5.9739,6.2208,6.1667,6.0913,6.1508,6.1018,6.0809,6.1617,6.2845,6.4531,6.6871,0.0,6.7837,6.9434,6.8951,6.884,6.962,6.9026,6.858,6.8506,6.8506,6.8506,6.8506,6.8506,6.9211,7.0772,7.0883,7.1701,7.3298,7.3372,7.3372,7.3372,7.3372,7.3372,7.3372,7.3372,7.3372,7.3372,7.3372,7.3372,7.3372,7.3372,7.3372,7.3372,7.3372,7.3372,7.3372,7.3372,7.3372,7.3372,7.3372,7.3372,7.3372,7.3372,7.3372,7.3372,7.3372,7.3372,7.3372,7.3372,7.3372,7.3372,7.3372,7.3372,7.3424,7.3564,7.3578,7.3715,7.3961,7.4009,7.4056,7.4151,7.4197,7.4197,7.4197,7.4197,7.4197,7.4197,7.4197,7.4197,7.4197,7.4197,7.4197,7.4197,7.4197,7.4197,7.4197,7.4197,7.4197,7.4197,7.4197,7.4335,7.4519,7.4865,7.5306,7.5763,7.6185,7.6475,7.6651,7.6669,7.6687,7.6687,7.6687,7.6687,5.5507,5.5507,5.5742,5.6682,5.7127,5.7811,5.9506,6.0045,6.0606,6.1933,6.1667,6.1189,6.1311,6.1513,6.192,6.2697,6.454,6.6239,6.7168,6.7725,6.8283,6.8877,6.8691,6.8617,6.8951,6.8691,6.8506,6.8506,6.8506,6.8506,6.8506,6.8506,6.9249,7.0883,7.092,7.1701,7.3372,7.3372,7.3372,7.3372,7.3372,7.3372,7.3372,7.3372,7.3372,7.3372,7.3372,7.3372,7.3372,7.3372,7.3372,7.3372,7.3372,7.3372,7.3372,7.3372,7.3372,7.3372,7.3372,7.3372,7.3372,7.3372,7.3372,7.3372,7.3372,7.3372,7.3372,7.3372,7.3372,7.3372,7.3372,7.3372,7.3424,7.3424,7.3527,7.3665,7.3765,7.3875,7.4009,7.4056,7.4151,7.4197,7.4197,7.4197,7.4197,7.4197,7.4197,7.4197,7.4197,7.4197,7.4197,7.4197,7.4197,7.4197,7.4197,7.4197,7.4197,7.4197,7.4197,7.4342,7.4619,7.4942,7.531,7.5733,7.6121,7.6411,7.6496,7.6632,7.6687,7.6687,7.6687,7.6687,5.5507,5.5507,5.5753,5.6736,5.7403,5.8341,6.026,6.0884,6.1221,6.1969,6.1448,6.0823,6.0692,6.1107,6.1966,0.0,6.5292,6.6797,6.7577,6.7948,6.8246,6.8468,6.8506,6.8506,6.8506,6.8506,6.8506,6.8506,6.8506,6.8506,6.8506,6.8506,6.9249,7.0883,7.092,7.1701,7.3372,7.3372,7.3372,7.3372,7.3372,7.3372,7.3372,7.3372,7.3372,7.3372,7.3372,7.3372,7.3372,7.3372,7.3372,7.3372,7.3372,7.3372,7.3372,7.3372,7.3372,7.3372,7.3372,7.3372,7.3372,7.3372,7.3372,7.3372,7.3372,7.3372,7.3372,7.3372,7.3372,7.3372,7.3372,7.3372,7.3372,7.3372,7.3476,7.3527,7.3615,7.3728,7.3912,7.3971,7.4056,7.4151,7.4197,7.4197,7.4197,7.4197,7.4197,7.4197,7.4197,7.4197,7.4197,7.4197,7.4197,7.4197,7.4197,7.4197,7.4243,7.435,7.435,7.4444,7.4705,7.5019,7.5379,7.5763,7.621,7.6471,7.6493,7.6632,7.6687,7.6687,7.6687,7.6687,5.5507,5.5507,5.5894,5.7438,5.779,5.836,6.0487,6.1022,6.13,6.2457,6.0974,5.9522,5.9559,5.9522,0.0,6.3539,6.4425,6.5682,6.8134,6.78,6.7614,6.8394,6.8506,6.8506,6.8506,6.8506,6.8506,6.8506,6.8506,6.8506,6.8506,6.8506,6.9249,7.0846,7.092,7.1701,7.3372,7.3372,7.3372,7.3372,7.3372,7.3372,7.3372,7.3372,7.3372,7.3372,7.3372,7.3372,7.3372,7.3372,7.3372,7.3372,7.3372,7.3372,7.3372,7.3372,7.3372,7.3372,7.3372,7.3372,7.3372,7.3372,7.3372,7.3372,7.3372,7.3372,7.3372,7.3372,7.3372,7.3372,7.3372,7.3372,7.3372,7.3372,7.3372,7.3424,7.3564,7.3615,7.3715,7.3961,7.4009,7.4056,7.4151,7.4197,7.4197,7.4197,7.4197,7.4197,7.4197,7.4197,7.4197,7.4197,7.4197,7.4197,7.4197,7.4197,7.4305,7.4664,7.4705,7.4705,7.4705,7.5165,7.5533,7.5898,7.645,7.6691,7.6691,7.6708,7.6687,7.6687,7.6687,7.6687,5.5507,5.621,5.7078,5.7666,5.8827,6.0044,6.0831,6.0848,6.09,6.1523,6.1261,6.1056,6.1466,6.156,0.0,6.3484,6.4327,6.5088,6.5794,6.6722,6.7391,6.7651,6.8171,6.8506,6.8506,6.8506,6.8506,6.8506,6.8506,6.8506,6.8506,6.8506,6.8989,7.0029,7.0623,7.1441,7.2518,7.3112,7.3372,7.3372,7.3372,7.3372,7.3372,7.3372,7.3372,7.3372,7.3372,7.3372,7.3372,7.3372,7.3372,7.3372,7.3372,7.3372,7.3372,7.3372,7.3372,7.3372,7.3372,7.3372,7.3372,7.3372,7.3372,7.3372,7.3372,7.3372,7.3372,7.3372,7.3372,7.3372,7.3372,7.3372,7.3372,7.3372,7.3372,7.3372,7.3424,7.3527,7.3665,7.3815,7.3961,7.4056,7.4151,7.4197,7.4197,7.4197,7.4197,7.4197,7.4197,7.4197,7.4197,7.4197,7.4197,7.4197,7.4197,7.4197,7.4305,7.4664,7.4705,7.4943,7.5513,7.5679,7.5918,7.6297,7.6488,7.6612,7.6691,7.671,7.669,7.6687,7.6687,7.6687,5.5507,5.6294,5.7211,5.7701,5.9064,6.032,6.0388,6.0755,6.1079,6.1018,6.1163,6.1558,6.2372,6.2361,0.0,6.3845,6.4233,6.4568,6.5236,6.5905,6.6574,6.7243,6.7725,6.8171,6.8468,6.8506,6.8506,6.8506,6.8506,6.8506,6.8506,6.8506,6.8877,6.9694,7.0512,7.1329,7.2184,7.3001,7.3372,7.3372,7.3372,7.3372,7.3372,7.3372,7.3372,7.3372,7.3372,7.3372,7.3372,7.3372,7.3372,7.3372,7.3372,7.3372,7.3372,7.3372,7.3372,7.3372,7.3372,7.3372,7.3372,7.3372,7.3372,7.3372,7.3372,7.3372,7.3372,7.3372,7.3372,7.3372,7.3372,7.3372,7.3372,7.3372,7.3372,7.3372,7.3372,7.3424,7.3564,7.3715,7.3864,7.3961,7.4104,7.4151,7.4197,7.4197,7.4197,7.4197,7.4197,7.4197,7.4197,7.4197,7.4197,7.4197,7.4197,7.4197,7.4394,7.4904,7.4904,7.5271,7.6068,7.5957,7.6068,7.6444,7.6466,7.651,7.6632,7.6672,7.671,7.669,7.6708,7.6687,5.5507,5.6164,5.6937,5.7614,5.8804,5.9767,5.9545,6.0629,6.1462,6.0808,6.0824,6.1343,6.2595,6.2339,6.2579,6.4382,6.4085,6.4159,6.5682,6.5274,6.5385,6.702,6.728,6.7614,6.8431,6.8506,6.8506,6.8506,6.8506,6.8506,6.8506,6.8506,6.884,6.9583,7.0475,7.1292,7.2072,7.2964,7.3372,7.3372,7.3372,7.3372,7.3372,7.3372,7.3372,7.3372,7.3372,7.3372,7.3372,7.3372,7.3372,7.3372,7.3372,7.3372,7.3372,7.3372,7.3372,7.3372,7.3372,7.3372,7.3372,7.3372,7.3372,7.3372,7.3372,7.3372,7.3372,7.3372,7.3372,7.3372,7.3372,7.3372,7.3372,7.3372,7.3372,7.3372,7.3372,7.3372,7.3424,7.3578,7.3715,7.3864,7.4009,7.4104,7.4197,7.4197,7.4197,7.4197,7.4197,7.4197,7.4197,7.4197,7.4197,7.4197,7.4197,7.4197,7.4525,7.5274,7.531,7.5641,7.6374,7.6133,7.6106,7.6397,7.6444,7.6488,7.6488,7.6632,7.6691,7.6691,7.669,7.6726,5.5507,5.6869,5.8165,5.7877,5.8804,5.9731,5.9545,5.9812,6.0134,6.0395,6.0586,6.126,6.3047,6.2831,6.2705,6.3688,6.3622,6.3622,6.4085,6.4531,6.5199,6.6239,6.6945,6.7614,6.8431,6.8506,6.8506,6.8506,6.8506,6.8506,6.8506,6.8506,6.858,6.8766,7.0177,7.0995,7.118,7.2666,7.3372,0.0,7.3372,7.3372,7.3372,7.3372,7.3372,7.3372,7.3372,7.3372,7.3372,7.3372,7.3372,7.3372,7.3372,7.3372,7.3372,7.3372,7.3372,7.3372,7.3372,7.3372,7.3372,7.3372,7.3372,7.3372,7.3372,7.3372,7.3372,7.3372,7.3372,7.3372,7.3372,7.3372,7.3372,7.3372,7.3372,7.3372,7.3372,7.3372,7.3424,7.3578,7.3715,7.3864,7.4009,7.4104,7.4197,7.4197,7.4197,7.4197,7.4197,7.4197,7.4197,7.4197,7.4197,7.4197,7.4197,7.4197,7.4525,7.5274,7.531,7.5641,7.6374,7.6311,7.635,7.6397,7.6421,7.6444,7.6488,7.651,7.6612,7.6691,7.671,7.669,5.5354,5.674,5.8474,5.9158,5.9087,5.8875,5.8948,5.8376,5.7999,5.8661,5.9744,6.1136,6.265,6.2768,6.2672,6.2953,6.3242,6.3289,6.3014,6.3611,6.4493,6.5753,6.6271,6.6975,6.8198,6.8309,6.8309,6.8309,6.8309,6.8309,6.8309,6.8309,6.8309,6.8309,6.9865,7.0717,7.0717,7.2347,7.3199,7.3199,7.3305,7.3357,7.3372,7.3372,7.3372,7.3372,7.3372,7.3372,7.3372,7.3372,7.3372,7.3372,7.3372,7.3372,7.3372,7.3372,7.3372,7.3372,7.3372,7.3372,7.3372,7.3372,7.3372,7.3372,7.3372,7.3372,7.3372,7.3372,7.3372,7.3372,7.3372,7.3372,7.3372,7.3372,7.3372,7.3372,7.3372,7.3372,7.3424,7.3476,7.3578,7.3765,7.3912,7.4056,7.4197,7.4197,7.4197,7.4197,7.4197,7.4197,7.4197,7.4197,7.4197,7.4197,7.4197,7.435,7.4702,7.5274,7.548,7.5831,7.6397,7.6397,7.6397,7.6397,7.6397,7.6421,7.6444,7.6466,7.6549,7.6612,7.6652,7.6691,5.5294,5.6475,5.8264,6.0451,5.931,5.7851,5.8284,5.7178,5.6253,5.6723,5.8639,6.0612,6.1776,6.2251,6.2418,6.2344,6.2781,6.2965,6.2391,6.2768,6.3726,6.5484,6.5706,6.6334,6.7922,6.807,6.807,6.807,6.807,6.807,6.807,6.807,6.807,6.807,6.951,7.036,7.0507,7.2022,7.2834,7.2982,7.3091,7.3252,7.332,7.332,7.3372,7.3372,7.3372,7.3372,7.3372,7.3372,7.3372,7.3372,7.3372,7.3372,7.3372,7.3372,7.3372,7.3372,7.3372,7.3372,7.3372,7.3372,7.3372,7.3372,7.3372,7.3372,7.3372,7.3372,7.3372,7.3372,7.3372,7.3372,7.3372,7.3372,7.3372,7.3372,7.3372,7.3372,7.3372,7.3372,7.3564,7.3715,7.3815,7.4056,7.4197,7.4197,7.4197,7.4197,7.4197,7.4197,7.4197,7.4197,7.4197,7.4197,7.4197,7.453,7.4866,7.5274,7.5679,7.6041,7.6397,7.6397,7.6397,7.6397,7.6397,7.6397,7.6397,7.6444,7.6466,7.6488,7.657,7.6632,5.5448,5.6475,5.8044,6.0235,5.9065,5.7541,5.8107,5.7382,5.6492,5.6049,5.7281,5.9002,6.0887,6.1335,6.1579,6.2182,6.2271,6.2271,6.2287,6.2339,6.3254,6.5435,6.5706,6.6334,6.7922,6.807,6.807,6.807,6.807,6.807,6.807,6.807,6.807,6.807,6.8956,6.9769,7.0507,7.1431,7.2243,7.2982,7.3037,7.3037,7.3037,7.3199,7.3305,7.3372,7.3372,7.3372,7.3372,7.3372,7.3372,7.3372,7.3372,7.3372,7.3372,7.3372,7.3372,7.3372,7.3372,7.3372,7.3372,7.3372,7.3372,7.3372,7.3372,7.3372,7.3372,7.3372,7.3372,7.3372,7.3372,7.3372,7.3372,7.3372,7.3372,7.3372,7.3372,7.3372,7.3372,7.3372,7.3578,7.3815,7.3961,7.4104,7.4197,7.4197,7.4197,7.4197,7.4197,7.4197,7.4197,7.4197,7.4197,7.4197,7.4197,7.453,7.4866,7.5274,7.5679,7.6041,7.6397,7.6397,7.6397,7.6397,7.6397,7.6397,7.6397,7.6421,7.6444,7.6488,7.6488,7.657,5.644,5.7332,5.8352,5.9727,5.866,5.7352,5.7471,5.6586,5.5519,5.5164,5.5916,5.7409,5.9885,6.0496,6.0855,6.1436,6.186,6.1969,6.1604,6.2129,6.3291,6.5271,6.5455,6.6132,6.7715,6.7899,6.7899,6.7899,6.7899,6.7899,6.7899,6.7899,6.7899,6.7899,6.8673,6.9483,7.0293,7.1048,7.1913,7.2835,7.2835,7.2927,7.2982,7.3037,7.3145,7.3305,7.3372,7.3372,7.3372,7.3372,7.3372,7.3372,7.3372,7.3372,7.3372,7.3372,7.3372,7.3372,7.3372,7.3372,7.3372,7.3372,7.3372,7.3372,7.3372,7.3372,7.3372,7.3372,7.3372,7.3372,7.3372,7.3372,7.3372,7.3372,7.3372,7.3372,7.3372,7.3372,7.3372,7.3372,7.3615,7.3815,7.3864,7.4056,7.4197,7.4197,7.4197,7.4197,7.4197,7.4197,7.4197,7.4197,7.4197,7.4197,7.4197,7.4702,7.5092,7.531,7.5861,7.6237,7.6397,7.6397,7.6397,7.6397,7.6397,7.6397,7.6397,7.6397,7.6421,7.6444,7.6444,7.6466,5.7095,5.791,5.8546,5.9346,5.8446,5.7339,5.7002,5.6056,5.5112,5.4592,5.5208,5.6528,5.8752,5.9585,6.0035,6.058,6.1149,6.1415,6.0938,6.1751,6.2975,6.4772,6.5191,6.5852,6.7247,6.7577,6.7687,6.7687,6.7687,6.7687,6.7687,6.7687,6.7687,6.7687,6.8274,6.8972,6.9779,7.0807,7.1782,7.2667,7.2667,7.2723,7.2872,7.2927,7.2982,7.3091,7.3305,7.3372,7.3372,7.3372,7.3372,7.3372,7.3372,7.3372,7.3372,7.3372,7.3372,7.3372,7.3372,7.3372,7.3372,7.3372,7.3372,7.3372,7.3372,7.3372,7.3372,7.3372,7.3372,7.3372,7.3372,7.3372,7.3372,7.3372,7.3372,7.3372,7.3372,7.3372,7.3372,7.3372,7.3615,7.3765,7.3815,7.4009,7.4151,7.4197,7.4197,7.4197,7.4197,7.4197,7.4197,7.4197,7.4197,7.4197,7.4197,7.4903,7.531,7.531,7.5975,7.6397,7.6397,7.6397,7.6397,7.6397,7.6397,7.6397,7.6397,7.6397,7.6397,7.6397,7.6397,7.6421,5.708,5.7751,5.8383,5.9111,5.8561,5.7667,5.6943,5.6593,5.6038,5.4758,5.5549,5.6771,5.7666,5.8413,5.9159,5.996,6.0065,6.0282,6.0855,6.0938,6.1759,6.3914,6.4861,6.5632,6.6476,6.7247,6.7687,6.7687,6.7687,6.7687,6.7687,6.7687,6.7687,6.7687,6.7724,6.8128,6.8972,7.055,7.1725,7.2496,7.2496,7.2496,7.2496,7.2667,7.2723,7.2723,7.3091,7.3305,7.3372,7.3372,7.3372,7.3372,7.3372,7.3372,7.3372,7.3372,7.3372,7.3372,7.3372,7.3372,7.3372,7.3372,7.3372,7.3372,7.3372,7.3372,7.3372,7.3372,7.3372,7.3372,7.3372,7.3372,7.3372,7.3372,7.3372,7.3372,7.3372,7.3372,7.3372,7.3372,7.3476,7.3665,7.3765,7.3912,7.4056,7.4151,7.4197,7.4197,7.4197,7.4197,7.4197,7.4197,7.4197,7.4197,7.4197,7.4903,7.531,7.531,7.5975,7.6397,7.6397,7.6397,7.6397,7.6397,7.6397,7.6397,7.6397,7.6397,7.6397,7.6397,7.6397,7.6397,5.7717,5.8415,5.8905,5.908,5.8528,5.784,5.7564,5.669,5.575,5.5352,5.5617,5.6189,5.6987,5.7751,5.8646,5.9832,6.0001,6.0065,6.0282,6.1068,6.1984,6.3293,6.4542,6.5632,6.6402,6.721,6.7687,6.7687,6.7687,6.7687,6.7687,6.7687,6.7687,6.7687,6.7687,6.8091,6.8898,7.0513,7.1468,7.1762,7.2275,7.2496,7.2496,7.2553,7.261,7.2723,7.2835,7.2945,7.3145,7.3252,7.3252,7.3305,7.341,7.3372,7.3372,7.3372,7.3372,7.3372,7.3372,7.3372,7.3372,7.3372,7.3372,7.3372,7.3372,7.3372,7.3372,7.3372,7.3372,7.3372,7.3372,7.3372,7.3372,7.3372,7.3372,7.3372,7.3372,7.3372,7.3372,7.3372,7.3513,7.3665,7.3765,7.3912,7.4056,7.4151,7.4197,7.4197,7.4197,7.4197,7.4197,7.4197,7.4197,7.4197,7.4197,7.4903,7.531,7.531,7.5975,7.6397,7.6397,7.6397,7.6397,7.6397,7.6397,7.6397,7.6397,7.6397,7.6397,7.6397,7.6397,7.6397,5.7971,5.8663,5.9149,5.9012,5.8633,5.8219,5.7978,5.7116,5.6322,5.6046,5.6012,5.6253,5.7047,5.7564,5.8285,5.9443,5.9648,5.9779,5.9937,6.0891,6.1856,6.2621,6.4035,6.5228,6.6035,6.6806,6.7393,6.765,6.7687,0.0,6.7687,6.7687,6.7687,6.7687,6.7687,6.8091,6.8898,6.9963,7.0624,7.0917,7.1725,7.2092,7.2129,7.2386,7.2553,7.261,7.261,7.2779,7.2982,7.3145,7.3199,7.3199,7.3357,7.3372,7.3372,7.3372,7.3372,7.3372,7.3372,7.3372,7.3372,7.3372,7.3372,7.3372,7.3372,7.3372,7.3372,7.3372,7.3372,7.3372,7.3372,7.3372,7.3372,7.3372,7.3372,7.3372,7.3372,7.3372,7.3372,7.3372,7.3476,7.3615,7.3715,7.3864,7.4009,7.4104,7.4151,7.4197,7.4197,7.446,7.461,7.461,7.461,7.461,7.461,7.5321,7.5615,7.531,7.6514,7.7132,7.6862,7.7132,7.7248,7.7248,7.7248,7.7248,7.7248,7.6668,7.6397,7.6397,7.6397,7.6397,0.0,0.0,0.0,5.9012,5.9012,5.8806,5.8116,5.7909,5.7702,5.6978,5.684,5.7047,5.7771,5.7909,5.8185,5.8909,5.9012,5.9182,5.9873,6.0494,6.1091,6.1787,6.3179,6.4332,6.5139,6.5946,6.6806,6.7577,6.7687,6.7687,6.7687,6.7687,6.7687,6.7687,6.7687,6.8054,6.8862,6.8898,6.9302,7.0073,7.0881,7.1284,7.1321,7.2092,7.2459,7.2459,7.2459,7.2667,7.2982,7.3145,7.3199,7.3199,7.332,7.3372,7.3372,7.3372,7.3372,7.3372,7.3372,7.3372,7.3372,7.3372,7.3372,7.3372,7.3372,7.3372,7.3372,7.3372,7.3372,7.3372,7.3372,7.3372,7.3372,7.3372,7.3372,7.3372,7.3372,7.3372,7.3372,7.3372,7.3372,7.3424,7.3578,7.3715,7.3864,7.4009,7.4104,7.4197,7.4235,7.4911,7.5399,7.5436,7.5399,7.5399,7.5446,7.6118,7.6227,7.5386,7.7631,7.8641,7.7751,7.8525,7.8989,7.8989,7.8989,7.8989,7.8989,7.7287,7.6475,7.6475,7.6475,7.6475,5.8564,0.0,0.0,0.0,0.0,0.0,5.8737,5.8288,5.784,5.7633,5.7598,5.7667,5.7874,5.8357,5.8771,5.8978,5.9012,5.9081,5.9249,5.9873,6.0282,6.0468,6.1843,6.2975,6.3639,6.4967,6.6043,0.0,6.7357,6.7687,6.7687,6.7687,6.7687,6.7687,6.7687,6.7797,6.8017,6.8605,6.9009,6.9229,7.0036,7.044,7.044,7.066,7.1101,7.1651,7.1651,7.2039,7.261,7.2779,7.289,7.3091,7.3199,7.3305,7.3372,7.3372,7.3372,7.3372,7.3372,7.3372,7.3372,7.3372,7.3372,7.3372,7.3372,7.3372,7.3372,7.3372,7.3372,7.3372,7.3372,7.3372,7.3372,7.3372,7.3372,7.3372,7.3372,7.3372,7.3372,7.3372,7.3372,7.3476,7.3715,7.3765,7.3864,7.4104,7.4151,7.4423,7.4986,7.5249,7.5624,7.6262,7.5774,7.5501,7.582,7.6275,7.6456,7.6191,7.794,7.8735,7.8209,7.8735,7.8989,7.8989,7.8989,7.8989,7.8989,7.8525,7.8293,7.8293,7.8293,7.8293,5.8909,5.9012,5.9012,5.9012,0.0,0.0,5.9012,5.8668,5.8357,5.8357,5.8357,5.8357,5.8357,5.8737,5.9012,5.9012,5.9012,5.9012,5.9012,5.9582,6.0065,6.0344,6.1379,6.2449,6.342,6.4676,6.5752,6.6476,6.7247,6.7687,6.7687,6.7687,6.7687,6.7687,6.7687,6.7687,6.7687,6.8164,6.8385,6.8421,6.9192,6.9596,6.9596,6.9963,7.0367,7.0807,7.0807,7.1284,7.2018,7.2039,7.2484,7.2982,7.3145,7.3305,7.3372,7.3372,7.3372,7.3372,7.3372,7.3372,7.3372,7.3372,7.3372,7.3372,7.3372,7.3372,7.3372,7.3372,7.3372,7.3372,7.3372,7.3372,7.3372,7.3372,7.3372,7.3372,7.3372,7.3372,7.3372,7.3372,7.3372,7.3424,7.3615,7.3715,7.3864,7.4009,7.4104,7.4498,7.5286,7.5699,7.6262,7.7089,7.6751,7.6601,7.7013,7.7262,7.7265,7.7031,7.8784,7.9499,7.8938,7.9648,8.0034,8.0034,8.0034,8.0034,8.0034,7.9337,7.8989,7.8989,7.8989,7.8989,5.9012,5.9012,5.9012,5.9012,5.9012,0.0,5.9012,5.9012,5.9012,5.9012,5.9012,5.9012,5.9012,5.9012,5.9012,5.9012,5.9012,5.9012,5.9012,5.9516,6.0129,6.0736,6.1358,6.2241,6.3679,6.4574,6.5433,6.6292,6.7173,6.7687,6.7687,6.7687,6.7687,6.7687,6.7687,6.7687,6.7687,6.7687,6.7687,6.7687,6.8421,6.8788,6.8788,6.9522,6.9889,6.9963,6.9963,7.044,7.1174,7.1284,7.1968,7.2982,7.3145,7.3252,7.3372,7.3372,7.3372,7.3372,7.3372,7.3372,7.3372,7.3372,7.3372,7.3372,7.3372,7.3372,7.3372,7.3372,7.3372,7.3372,7.3372,7.3372,7.3372,7.3372,7.3372,7.3372,7.3372,7.3372,7.3372,7.3372,7.3372,7.3372,7.3424,7.3615,7.3815,7.3815,7.4009,7.4498,7.5286,7.615,7.7013,7.7802,7.7877,7.8078,7.8452,7.8495,7.8321,7.7911,7.9752,8.0523,7.9722,8.0856,8.1504,8.1504,8.1504,8.1504,8.1504,7.9995,7.9299,7.9299,7.9299,7.9221,0.0,0.0,0.0,0.0,0.0,0.0,5.9012,5.9012,5.9012,5.9012,5.9012,5.9012,5.9012,5.9012,5.9012,5.9012,5.9012,5.9012,5.9012,5.9149,5.945,6.0129,6.0317,6.0903,6.2169,6.3039,6.4093,6.5433,6.688,6.7687,6.7687,6.7687,6.7687,6.7687,6.7687,6.7687,6.7687,6.7687,6.7687,6.7687,6.7834,6.7907,6.7944,6.8091,6.8531,6.9119,6.9119,6.9596,7.0367,7.1027,7.1968,7.2982,7.3037,7.3199,7.3372,7.3372,7.3372,7.3372,7.3372,7.3372,7.3372,7.3372,7.3372,7.3372,7.3372,7.3372,7.3372,7.3372,7.3372,7.3372,7.3372,7.3372,7.3372,7.3372,7.3372,7.3372,7.3372,7.3372,7.3372,7.3372,7.3372,7.3424,7.3527,7.3578,7.3678,7.3961,7.4009,7.4404,7.5286,7.615,7.7013,7.7802,7.7877,7.8031,7.8414,7.8457,7.8424,7.8276,7.9922,8.0696,8.0157,8.1012,8.1504,8.1504,8.1504,8.1504,8.1504,8.1194,8.1001,8.1001,8.1001,8.0653,0.0,0.0,0.0,5.9012,0.0,0.0,0.0,5.9012,5.9012,5.9012,5.9012,5.9012,5.9012,5.9012,5.9012,5.9012,5.9012,5.915,5.953,5.9254,5.9249,5.9873,6.0001,6.0468,6.1787,6.2621,6.3875,6.5763,6.6659,6.7283,6.765,6.7687,6.7687,6.7687,6.7687,6.7687,6.7687,6.7687,6.7687,6.7687,6.7687,6.7687,6.7687,6.7687,6.7907,6.8311,6.8311,6.8752,6.9522,6.9982,7.1029,7.2282,7.2834,7.3145,7.3372,7.3372,7.3372,7.3372,7.3372,7.3372,7.3372,7.3372,7.3372,7.3372,7.3372,7.3372,7.3372,7.3372,7.3372,7.3372,7.3372,7.3372,7.3372,7.3372,7.3372,7.3372,7.3372,7.3372,7.3372,7.3372,7.3372,7.3424,7.3476,7.3564,7.3665,7.3777,7.3875,7.4506,7.5791,7.6365,7.7126,7.8365,7.8515,7.8634,7.9021,7.892,7.8875,7.9021,8.0048,8.0496,8.0315,8.106,8.1504,8.1504,8.1504,8.1504,8.1504,8.1504,8.1504,8.1504,8.1039,8.0614,0.0,0.0,0.0,0.0,0.0,5.9012,0.0,0.0,0.0,5.9012,5.9012,5.9012,5.9012,5.9012,5.8909,5.8633,5.8806,5.9185,5.9702,5.9323,5.9388,6.0294,6.0212,6.0477,6.18,6.2671,6.3892,6.5677,6.6279,6.6809,6.743,6.7614,6.7687,6.7687,6.7687,6.7687,6.7687,6.7687,6.7687,6.7687,6.7687,6.7687,6.7687,6.7687,6.7687,6.7687,6.7687,6.8054,6.8678,6.8934,6.9797,7.114,7.2354,7.305,7.3372,7.3372,7.3372,7.3372,7.3372,7.3372,7.3372,7.3372,7.3372,7.3372,7.3372,7.3372,7.3372,7.3372,7.3372,7.3372,7.3372,7.3372,7.3372,7.3372,7.3372,7.3372,7.3372,7.3372,7.3372,7.3372,7.3372,7.3372,7.3372,7.3476,7.3564,7.3615,7.3927,7.4672,7.6069,7.6579,7.734,7.8741,7.9004,7.9225,7.9569,7.9284,7.9236,7.9665,8.0085,8.0352,8.0425,8.1119,8.1504,8.1504,8.1504,8.1504,8.1504,8.1349,8.1271,8.1233,8.0536,8.0034,0.0,0.0,0.0,0.0,5.9012,0.0,0.0,0.0,5.9012,5.9012,0.0,5.9012,5.9012,0.0,0.0,5.7253,5.815,5.8806,5.8254,5.8668,5.9769,6.18,6.0844,6.0501,6.1914,6.282,6.331,6.3493,6.5452,6.666,6.6659,6.7283,6.7687,6.7687,6.7687,6.7687,6.7687,6.7687,6.7687,6.7687,6.7687,6.7687,6.7687,6.7687,6.7687,6.7687,6.7687,6.7724,6.7871,6.8605,6.9117,6.9573,7.1353,7.2532,7.3252,7.3357,7.3372,7.3372,7.3372,7.3372,7.3372,7.3372,7.3372,7.3372,7.3372,7.3372,7.3372,7.3372,7.3372,7.3372,7.3372,7.3372,7.3372,7.3372,7.3372,7.3372,7.3372,7.3372,7.3372,7.3372,7.3372,7.3372,7.3372,7.3424,7.3424,7.3578,7.4211,7.4885,7.5271,7.663,7.7654,7.799,7.8666,7.9116,7.9177,7.9165,7.9236,7.9665,8.0085,8.0461,8.0837,8.1242,8.1504,8.1504,8.1504,8.1504,8.1504,8.073,8.0343,8.0343,8.0266,7.9415,0.0,0.0,0.0,0.0,0.0,0.0,5.9012,0.0,5.9012,0.0,0.0,0.0,0.0,0.0,0.0,0.0,5.8599,5.9047,5.9219,5.9116,5.9564,6.0911,0.0,0.0,6.0803,6.2284,6.3019,6.2579,6.4674,6.5916,6.5915,6.6609,6.721,6.7687,6.7687,6.7687,6.7687,6.7687,6.7687,6.7687,6.7687,6.7687,6.7687,6.7687,6.7687,6.7687,6.7687,6.7687,6.7724,6.8162,6.862,6.9205,7.0132,7.1309,7.2585,7.3172,7.3372,7.3372,7.3372,7.3372,7.3372,7.3372,7.3372,7.3372,7.3372,7.3372,7.3372,7.3372,7.3372,7.3372,7.3372,7.3372,7.3372,7.3372,7.3372,7.3372,7.3372,7.3372,7.3372,7.3372,7.3372,7.3372,7.3372,7.3372,7.3424,7.3476,7.4234,7.5045,7.5733,7.6918,7.7917,7.8553,7.8891,7.8928,7.844,7.8403,7.8606,7.8945,8.0047,8.0837,8.1242,8.1388,8.1504,8.1504,8.1504,8.1271,8.073,8.0382,7.9685,7.8757,7.8757,7.837,5.9012,0.0,0.0,0.0,0.0,0.0,0.0,0.0,0.0,0.0,0.0,0.0,0.0,0.0,5.8875,5.8461,0.0,5.915,5.953,5.9254,5.9392,6.0392,5.9978,0.0,0.0,6.1938,6.2653,6.1955,6.3689,6.4742,6.4621,6.5604,6.6482,6.7067,6.7486,6.7687,6.7687,6.7687,6.7687,6.7687,6.7687,6.7687,6.7687,6.7687,6.7687,6.7687,6.7687,6.7687,6.7687,6.7794,6.8178,6.8783,6.9267,7.0346,7.1769,7.2689,7.3187,7.3372,7.3372,7.3372,7.3372,7.3372,7.3372,7.3372,7.3372,7.3372,7.3372,7.3372,7.3372,7.3372,7.3372,7.3372,7.3372,7.3372,7.3372,7.3372,7.3372,7.3372,7.3372,7.3372,7.3372,7.3372,7.3372,7.3372,7.3372,7.3372,7.4183,7.5105,7.6117,7.7041,7.8016,7.8954,7.8891,7.8515,7.7952,7.7877,7.8191,7.8798,8.0116,8.103,8.1335,8.1335,8.1388,8.1504,8.1504,8.1078,8.0188,7.9995,7.9105,7.7713,7.7713,7.7558,0.0,0.0,0.0,5.9012,0.0,0.0,0.0,0.0,5.9012,0.0,0.0,0.0,0.0,5.9012,5.853,5.7116,5.8081,0.0,0.0,5.8564,5.9564,6.1082,6.1254,6.122,0.0,6.2016,6.2162,6.12,6.2631,6.317,6.2367,6.4383,6.5504,6.554,6.6939,6.7687,6.7687,6.7687,6.7687,6.7687,6.7687,6.7687,6.7687,6.7687,6.7687,6.7687,6.7687,6.7687,6.7687,6.7687,6.7794,6.8062,6.8941,6.9873,7.0879,7.1835,7.2704,7.3372,7.3372,7.3372,7.3372,7.3372,7.3372,7.3372,7.3372,7.3372,7.3372,7.3372,7.3372,7.3372,7.3372,7.3372,7.3372,7.3372,7.3372,7.3372,7.3372,7.3372,7.3372,7.3372,7.3372,7.3372,7.3372,7.3372,7.3372,7.3372,7.4078,7.4948,7.5925,7.6886,7.7863,7.884,7.8304,7.7915,7.7877,7.7877,7.8417,7.9589,8.0423,8.09,8.09,8.09,8.109,8.1504,8.1504,8.1078,8.0188,7.9415,7.8564,7.7713,7.7713,7.7248,0.0,0.0,5.9012,5.9012,0.0,0.0,0.0,0.0,0.0,0.0,0.0,0.0,0.0,5.9012,5.884,5.8357,5.8668,5.8909,0.0,5.884,5.9392,6.0461,6.0565,6.0771,6.1254,0.0,6.2446,6.123,6.2869,6.3558,6.281,6.3956,6.5073,6.6135,6.6717,6.723,6.7687,6.7687,6.7687,6.7687,6.7687,6.7687,6.7687,6.7687,6.7687,6.7687,6.7687,6.7687,6.7687,6.7794,6.7899,6.8055,6.8504,6.9531,7.0944,7.1849,7.2704,7.3372,7.3372,7.3372,7.3372,7.3372,7.3372,7.3372,7.3372,7.3372,7.3372,7.3372,7.3372,7.3372,7.3372,7.3372,7.3372,7.3372,7.3372,7.3372,7.3372,7.3372,7.3372,7.3372,7.3372,7.3372,7.3372,7.3372,7.3372,7.3372,7.4078,7.5001,7.6066,7.6453,7.7279,7.8866,7.8365,7.7877,7.7877,7.8134,7.8435,7.8874,7.9934,8.0601,8.09,8.09,8.109,8.1504,8.0923,8.0227,7.9415,7.8564,7.7674,7.6823,7.6823,7.6668,5.9357,5.9426,0.0,5.9426,5.9633,0.0,5.9495,0.0,0.0,0.0,0.0,0.0,0.0,0.0,5.9633,5.9116,5.9254,5.9323,0.0,5.9012,5.9323,6.0082,6.0427,6.0771,6.1254,6.2296,6.2415,6.0869,6.2188,6.2723,0.0,0.0,6.4674,6.5678,6.6627,6.723,6.7687,6.7687,6.7687,6.7687,6.7687,6.7687,6.7687,6.7687,6.7687,6.7687,6.7687,6.7687,6.7687,6.7847,6.8004,6.807,6.8259,6.9174,7.0586,7.1441,7.2444,7.3372,7.3372,7.3372,7.3372,7.3372,7.3372,7.3372,7.3372,7.3372,7.3372,7.3372,7.3372,7.3372,7.3372,7.3372,7.3372,7.3372,7.3372,7.3372,7.3372,7.3372,7.3372,7.3372,7.3372,7.3372,7.3372,7.3372,7.3372,7.3372,7.4078,7.5001,7.6066,7.6192,7.683,7.8416,7.7689,7.7126,7.7426,7.8081,7.8566,7.8731,7.9575,8.0277,8.0668,8.0668,8.0816,8.1014,8.0498,7.9647,7.8525,7.7983,7.7248,7.6397,7.6397,7.6397]},{"header":{"parameterUnit":"m.s-1","parameterCategory":1,"la1":30.6,"la2":29.2853,"lo1":-89.7004,"lo2":-87.6739,"dy":0.0162,"dx":0.0183,"nx":112,"ny":82,"refTime":"2023-03-25T12:00:00:Z","depth":0,"parameterNumber":3,"parameterNumberName":"V-component_of_WINDS"},"data":[0.0,0.0,0.0,0.0,0.0,0.0,0.0,0.0,0.0,0.0,0.0,0.0,0.0,0.0,0.0,0.0,0.0,0.0,0.0,0.0,0.0,0.0,0.0,0.0,0.0,0.0,0.0,0.0,0.0,0.0,0.0,0.0,0.0,0.0,0.0,0.0,0.0,0.0,0.0,0.0,0.0,0.0,0.0,0.0,0.0,0.0,0.0,0.0,0.0,0.0,0.0,0.0,0.0,0.0,0.0,0.0,0.0,0.0,0.0,0.0,0.0,0.0,0.0,0.0,0.0,0.0,0.0,0.0,0.0,0.0,0.0,0.0,0.0,0.0,0.0,0.0,0.0,0.0,0.0,0.0,0.0,0.0,0.0,0.0,0.0,0.0,0.0,0.0,0.0,0.0,0.7394,0.7557,0.7861,0.8095,0.8198,0.8111,0.7654,0.672,0.0,0.0,0.0,0.0,0.0,0.0,0.0,0.0,0.0,0.0,0.0,0.0,0.0,0.0,0.0,0.0,0.0,0.0,0.0,0.0,0.0,0.0,0.0,0.0,0.0,0.0,0.0,0.0,0.0,0.0,0.0,0.0,0.0,0.0,0.0,0.0,0.0,0.0,0.0,0.0,0.0,0.0,0.0,0.0,0.0,0.0,0.0,0.0,0.0,0.0,0.0,0.0,0.0,0.0,0.0,0.0,0.0,0.0,0.0,0.0,0.0,0.0,0.0,0.0,0.0,0.0,0.0,0.0,0.0,0.0,0.0,0.0,0.0,0.0,0.0,0.0,0.0,0.0,0.0,0.0,0.0,0.0,0.0,0.0,0.0,0.0,0.0,0.0,0.0,0.0,0.0,0.0,0.0,0.0,0.0,0.0,0.0,0.0,0.0,0.0,0.0,0.0,0.0,0.0,0.7459,0.7785,0.7959,0.8062,0.8079,0.8068,0.7654,0.672,0.0,0.0,0.0,0.0,0.0,0.0,0.0,0.0,0.0,0.0,0.0,0.0,0.0,0.0,0.0,0.0,0.0,0.0,0.0,0.0,0.0,0.0,0.0,0.0,0.0,0.0,0.0,0.0,0.0,0.0,0.0,0.0,0.0,0.0,0.0,0.0,0.0,0.0,0.0,0.0,0.0,0.0,0.0,0.0,0.0,0.0,0.0,0.0,0.0,0.0,0.0,0.0,0.0,0.0,0.0,0.0,0.0,0.0,0.0,0.0,0.0,0.0,0.0,0.0,0.0,0.0,0.0,0.0,0.0,0.0,0.0,0.0,0.0,0.0,0.0,0.0,0.0,0.0,0.0,0.0,0.0,0.0,0.0,0.0,0.0,0.0,0.0,0.0,0.0,0.0,0.0,0.0,0.0,0.0,0.0,0.0,0.0,0.0,0.0,0.0,0.0,0.0,0.0,0.7551,0.7741,0.8035,0.8117,0.8149,0.8149,0.8089,0.7654,0.672,0.6584,0.0,0.0,0.0,0.0,0.0,0.0,0.0,0.0,0.0,0.0,0.0,0.0,0.0,0.0,0.0,0.0,0.0,0.0,0.0,0.0,0.0,0.0,0.0,0.0,0.0,0.0,0.0,0.0,0.0,0.0,0.0,0.0,0.0,0.0,0.0,0.0,0.0,0.0,0.0,0.0,0.0,0.0,0.0,0.0,0.0,0.0,0.0,0.0,0.0,0.0,0.0,0.0,0.0,0.0,0.0,0.0,0.0,0.0,0.0,0.0,0.0,0.0,0.0,0.0,0.0,0.0,0.0,0.0,0.0,0.0,0.0,0.0,0.0,0.0,0.0,0.0,0.0,0.0,0.0,0.0,0.0,0.0,0.0,0.0,0.0,0.0,0.0,0.0,0.0,0.0,0.0,0.0,0.0,0.0,0.0,0.0,0.0,0.0,0.0,0.0,0.0,0.0,0.778,0.791,0.8127,0.8149,0.8149,0.8149,0.8062,0.7638,0.6754,0.6593,0.0,0.0,0.0,0.0,0.0,0.0,0.0,0.0,0.0,0.0,0.0,0.0,0.0,0.0,0.0,0.0,0.0,0.0,0.0,0.0,0.0,0.0,0.0,0.0,0.0,0.0,0.0,0.0,0.0,0.0,0.0,0.0,0.0,0.0,0.0,0.0,0.0,0.0,0.0,0.0,0.0,0.0,0.0,0.0,0.0,0.0,0.0,0.0,0.0,0.0,0.0,0.0,0.0,0.0,0.0,0.0,0.0,0.0,0.0,0.0,0.0,0.0,0.0,0.0,0.0,0.0,0.0,0.0,0.0,0.0,0.0,0.0,0.0,0.0,0.0,0.0,0.0,0.0,0.0,0.0,0.0,0.0,0.0,0.0,0.0,0.0,0.0,0.0,0.0,0.0,0.0,0.0,0.0,0.0,0.0,0.0,0.0,0.0,0.0,0.0,0.0,0.0,0.7709,0.7763,0.7883,0.7894,0.7894,0.7894,0.7888,0.7585,0.6856,0.6636,0.0,0.0,0.0,0.0,0.0,0.0,0.0,0.0,0.0,0.0,0.0,0.0,0.0,0.0,0.0,0.0,0.0,0.0,0.0,0.0,0.0,0.0,0.0,0.0,0.0,0.0,0.0,0.0,0.0,0.0,0.0,0.0,0.0,0.0,0.0,0.0,0.0,0.0,0.0,0.0,0.0,0.0,0.0,0.0,0.0,0.0,0.0,0.0,0.0,0.0,0.0,0.0,0.0,0.0,0.0,0.0,0.0,0.0,0.0,0.0,0.0,0.0,0.0,0.0,0.0,0.0,0.0,0.0,0.0,0.0,0.0,0.0,0.0,0.0,0.0,0.0,0.0,0.0,0.0,0.0,0.0,0.0,0.0,0.0,0.0,0.0,0.0,0.0,0.0,0.0,0.0,0.0,0.0,0.0,0.0,0.0,0.0,0.0,0.0,0.0,0.0,0.0,0.7872,0.7937,0.0,0.8051,0.8068,0.7992,0.7986,0.7659,0.687,0.0,0.0,0.0,0.0,0.0,0.0,0.0,0.0,0.0,0.0,0.0,0.0,0.0,0.0,0.0,0.0,0.0,0.0,0.0,0.0,0.0,0.0,0.0,0.0,0.0,0.0,0.0,0.0,0.0,0.0,0.0,0.0,0.0,0.0,0.0,0.0,0.0,0.0,0.0,0.0,0.0,0.0,0.0,0.0,0.0,0.0,0.0,0.0,0.0,0.0,0.0,0.0,0.0,0.0,0.0,0.0,0.0,0.0,0.0,0.0,0.0,0.0,0.0,0.0,0.0,0.0,0.0,0.0,0.0,0.0,0.0,0.0,0.0,0.0,0.0,0.0,0.0,0.0,0.0,0.0,0.0,0.0,0.0,0.0,0.0,0.0,0.0,0.0,0.0,0.0,0.0,0.0,0.0,0.0,0.0,0.0,0.0,0.0,0.0,0.0,0.0,0.0,0.7861,0.7943,0.7997,0.0,0.8068,0.8084,0.8002,0.7997,0.768,0.6924,0.0,0.0,0.0,0.0,0.0,0.0,0.0,0.0,0.0,0.0,0.0,0.0,0.0,0.0,0.0,0.0,0.0,0.0,0.0,0.0,0.0,0.0,0.0,0.0,0.0,0.0,0.0,0.0,0.0,0.0,0.0,0.0,0.0,0.0,0.0,0.0,0.0,0.0,0.0,0.0,0.0,0.0,0.0,0.0,0.0,0.0,0.0,0.0,0.0,0.0,0.0,0.0,0.0,0.0,0.0,0.0,0.0,0.0,0.0,0.0,0.0,0.0,0.0,0.0,0.0,0.0,0.0,0.0,0.0,0.0,0.0,0.0,0.0,0.0,0.0,0.0,0.0,0.0,0.0,0.0,0.0,0.0,0.0,0.0,0.0,0.0,0.0,0.0,0.0,0.0,0.0,0.0,0.0,0.0,0.0,0.0,0.0,0.0,0.0,0.0,0.0,0.0,0.7872,0.7872,0.7872,0.7872,0.7872,0.7872,0.7872,0.7872,0.7627,0.0,0.0,0.0,0.0,0.0,0.0,0.0,0.0,0.0,0.0,0.0,0.0,0.0,0.0,0.0,0.0,0.0,0.0,0.0,0.0,0.0,0.0,0.0,0.0,0.0,0.0,0.0,0.0,0.0,0.0,0.0,0.0,0.0,0.0,0.0,0.0,0.0,0.0,0.0,0.0,0.0,0.0,0.0,0.0,0.0,0.0,0.0,0.0,0.0,0.0,0.0,0.0,0.0,0.0,0.0,0.0,0.0,0.0,0.0,0.0,0.0,0.0,0.0,0.0,0.0,0.0,0.0,0.0,0.0,0.0,0.0,0.0,0.0,0.0,0.0,0.0,0.0,0.0,0.0,0.0,0.0,0.0,0.0,0.0,0.0,0.0,0.0,0.0,0.0,0.0,0.0,0.0,0.0,0.0,0.0,0.0,0.0,0.0,0.0,0.0,0.0,0.0,0.0,0.7872,0.7872,0.7872,0.7872,0.7872,0.7872,0.7872,0.7872,0.7627,0.6898,0.0,0.0,0.0,0.0,0.0,0.0,0.0,0.0,0.0,0.0,0.0,0.0,0.0,0.0,0.0,0.0,0.0,0.0,0.0,0.0,0.0,0.0,0.0,0.0,0.0,0.0,0.0,0.0,0.0,0.0,0.0,0.0,0.0,0.0,0.0,0.0,0.0,0.0,0.0,0.0,0.0,0.0,0.0,0.0,0.0,0.0,0.0,0.0,0.0,0.0,0.0,0.0,0.0,0.0,0.0,0.0,0.0,0.0,0.0,0.0,0.0,0.0,0.0,0.0,0.0,0.0,0.0,0.0,0.0,0.0,0.0,0.0,0.0,0.0,0.0,0.0,0.0,0.0,0.0,0.0,0.0,0.0,0.0,0.0,0.0,0.0,0.0,0.0,0.0,0.0,0.0,0.0,0.0,0.0,0.0,0.0,0.0,0.0,0.0,0.0,0.0,0.0,0.7872,0.7872,0.7872,0.7872,0.7872,0.7872,0.7872,0.7872,0.7627,0.6898,0.0,0.0,0.0,0.0,0.0,0.0,0.0,0.0,0.0,0.0,0.0,0.0,0.0,0.0,0.0,0.0,0.0,0.0,0.0,0.0,0.0,0.0,0.0,0.0,0.0,0.0,0.0,0.0,0.0,0.0,0.0,0.0,0.0,0.0,0.0,0.0,0.0,0.0,0.0,0.0,0.0,0.0,0.0,0.0,0.0,0.0,0.0,0.0,0.0,0.0,0.0,0.0,0.0,0.0,0.0,0.0,0.0,0.0,0.0,0.0,0.0,0.0,0.0,0.0,0.0,0.0,0.0,0.0,0.0,0.0,0.0,0.0,0.0,0.0,0.0,0.0,0.0,0.0,0.0,0.0,0.0,0.0,0.0,0.0,0.0,0.0,0.0,0.0,0.0,0.0,0.0,0.0,0.0,0.0,0.0,0.0,0.0,0.0,0.0,0.0,0.0,0.0,0.7872,0.7872,0.7872,0.7872,0.7872,0.7872,0.7872,0.7872,0.7627,0.6898,0.0,0.0,0.0,0.0,0.0,0.0,0.0,0.0,0.0,0.0,0.0,0.0,0.0,0.0,0.0,0.0,0.0,0.0,0.0,0.0,0.0,0.0,0.0,0.0,0.0,0.0,0.0,0.0,0.0,0.0,0.0,0.0,0.0,0.0,0.0,0.0,0.0,0.0,0.0,0.0,0.0,0.0,0.0,0.0,0.0,0.0,0.0,0.0,0.0,0.0,0.0,0.0,0.0,0.0,0.0,0.0,0.0,0.0,0.0,0.0,1.5908,0.0,0.0,0.0,0.0,0.0,0.0,0.0,0.0,0.0,0.0,0.0,0.0,0.0,0.0,0.0,0.0,0.0,0.0,0.0,0.0,0.0,0.0,0.0,0.0,0.0,0.0,0.0,0.0,0.0,0.0,0.0,0.0,0.0,0.0,0.0,0.0,0.0,0.0,0.0,0.0,0.0,0.7872,0.7872,0.7872,0.7872,0.7872,0.7872,0.7872,0.7627,0.7388,0.6898,0.6653,0.0,0.0,0.0,0.0,0.0,0.0,0.0,0.0,0.0,0.0,0.0,0.0,0.0,0.0,0.0,0.0,0.0,0.0,0.0,0.0,0.0,0.0,0.0,0.0,0.0,0.0,0.0,0.0,0.0,0.0,0.0,0.0,0.0,0.0,0.0,0.0,0.0,0.0,0.0,0.0,0.0,0.0,0.0,0.0,0.0,0.0,0.0,0.0,0.0,0.0,0.0,0.0,0.0,0.0,0.0,0.0,0.0,0.0,0.0,0.0,1.6149,0.0,0.0,0.0,0.0,0.0,0.0,0.0,0.0,0.0,0.0,0.0,0.0,0.0,0.0,0.0,0.0,0.0,0.0,0.0,0.0,0.0,0.0,0.0,0.0,0.0,0.0,0.0,0.0,0.0,0.0,0.0,0.0,0.0,0.0,0.0,0.0,0.0,0.0,0.0,0.0,0.7796,0.7921,0.8046,0.8046,0.7921,0.7796,0.7796,0.7495,0.7093,0.6726,0.6553,0.0,0.0,0.0,0.0,0.0,0.0,0.0,0.0,0.0,0.0,0.0,0.0,0.0,0.0,0.0,0.0,0.0,0.0,0.0,0.0,0.0,0.0,0.0,0.0,0.0,0.0,0.0,0.0,0.0,0.0,0.0,0.0,0.0,0.0,0.0,0.0,0.0,0.0,0.0,0.0,0.0,0.0,0.0,0.0,0.0,0.0,0.0,0.0,0.0,0.0,0.0,0.0,0.0,1.7744,1.7829,1.7636,1.7853,1.7829,1.7612,1.7149,1.6903,1.6903,1.6487,0.0,0.0,0.0,0.0,0.0,0.0,0.0,0.0,0.0,0.0,0.0,0.0,0.0,0.0,0.0,0.0,0.0,0.0,0.0,0.0,0.0,0.0,0.0,0.0,1.3769,1.1825,0.0,0.0,0.0,0.0,0.0,0.0,0.0,0.0,0.0,0.0,0.0,0.0,0.7852,0.798,0.8236,0.8108,0.7852,0.773,0.7596,0.7253,0.6827,0.6575,0.6358,0.6183,0.0,0.0,0.0,0.0,0.0,0.0,0.0,0.0,0.0,0.0,0.0,0.0,0.0,0.0,0.0,0.0,0.0,0.0,0.0,0.0,0.0,0.0,0.0,0.0,0.0,0.0,0.0,0.0,0.0,0.0,0.0,0.0,1.5885,1.5885,0.0,0.0,0.0,0.0,0.0,0.0,0.0,0.0,0.0,0.0,0.0,0.0,0.0,1.7382,1.7382,1.7877,1.8131,1.8131,1.8203,1.8215,1.8191,1.8227,1.8215,1.8191,1.8155,0.0,1.7044,1.7148,0.0,0.0,0.0,0.0,0.0,0.0,0.0,0.0,0.0,0.0,0.0,0.0,0.0,0.0,0.0,0.0,0.0,0.0,0.0,0.0,0.0,0.0,1.546,1.4794,1.4337,1.3706,0.0,1.0842,0.9424,0.8419,0.8937,0.0,0.0,0.0,0.0,0.0,0.0,0.0,0.8108,0.8236,0.8108,0.7852,0.7724,0.7596,0.7335,0.6942,0.6682,0.6682,0.6336,0.6035,0.6035,0.5957,0.0,0.0,0.0,0.0,0.0,0.0,0.0,0.0,0.0,0.0,0.0,0.0,0.0,0.0,0.0,0.0,0.0,0.0,0.0,0.0,0.0,0.0,0.0,0.0,0.0,0.0,0.0,0.0,0.0,1.6018,1.6103,1.6103,1.6247,1.6344,0.0,0.0,0.0,0.0,0.0,0.0,0.0,0.0,0.0,1.7358,1.7732,1.7937,1.7937,1.8179,1.83,1.83,1.8444,1.8517,1.8517,1.8662,1.865,1.8517,1.8674,1.8309,1.7696,1.754,1.7136,1.6549,0.0,0.0,0.0,0.0,1.5601,1.5601,1.5601,1.5601,0.0,1.5601,0.0,0.0,0.0,0.0,0.0,0.0,0.0,0.0,0.0,0.0,1.606,1.5535,1.5431,1.5087,1.3934,1.313,1.1925,0.0,0.9742,0.9774,0.8582,0.0,0.0,0.0,0.0,0.8301,0.8175,0.8301,0.8301,0.7913,0.7782,0.7388,0.7121,0.6679,0.6519,0.6519,0.6302,0.6125,0.6125,0.6039,0.5994,0.0,0.0,0.0,0.0,0.0,0.0,0.0,0.0,0.0,0.0,0.0,0.0,0.0,0.0,0.0,0.0,0.0,0.0,0.0,0.0,0.0,0.0,0.0,0.0,0.0,0.0,0.0,0.0,1.632,1.6465,1.6392,1.6634,1.6779,0.0,0.0,0.0,0.0,0.0,0.0,1.7382,1.7587,1.7781,1.7974,1.8251,1.8432,1.8493,1.8565,1.8625,1.8698,1.8903,1.8988,1.9,1.9193,1.9132,1.8891,1.9096,1.8879,1.8372,1.7923,1.7576,1.722,1.6743,1.6384,1.6264,1.6025,1.5905,1.5785,1.5785,1.5785,1.5785,1.5785,0.0,1.6043,1.6043,0.0,0.0,0.0,0.0,1.6334,1.6387,1.6409,1.642,1.6474,1.6495,1.6286,1.5425,1.5199,1.4373,0.0,1.1254,1.0913,0.9222,0.0,0.0,0.0,0.0,0.8499,0.837,0.8499,0.8488,0.8061,0.7679,0.743,0.6888,0.6556,0.6386,0.6386,0.628,0.6215,0.6215,0.6133,0.6088,0.6088,0.0,0.0,0.0,0.0,0.0,0.0,0.0,0.0,0.0,0.0,0.0,0.0,0.0,0.0,0.0,0.0,0.0,0.0,0.0,0.0,0.0,0.0,0.0,0.0,0.0,0.0,0.0,0.0,0.0,1.6706,1.6911,0.0,0.0,0.0,0.0,1.7418,1.7672,1.7937,1.8215,1.8239,1.8263,1.8275,1.8529,1.8782,1.9036,1.9289,1.9543,1.9808,1.982,1.982,1.9833,1.9845,1.9688,1.9422,1.9434,1.9157,1.8662,1.865,1.8232,1.7749,1.7749,1.738,1.6764,1.6764,1.6516,1.628,1.628,1.628,1.628,1.628,1.6291,1.6291,1.6291,1.6301,0.0,0.0,1.6312,1.6366,1.6592,1.6646,1.67,1.6915,1.6969,1.6969,1.685,1.685,1.6063,0.0,1.3692,1.3831,1.1087,0.0,1.1659,0.9143,0.8764,0.8764,0.8764,0.8764,0.8449,0.767,0.7612,0.7397,0.6719,0.6578,0.6578,0.6578,0.6406,0.6308,0.6308,0.6223,0.6174,0.6174,0.6092,0.0,0.0,0.0,0.0,0.0,0.0,0.0,0.0,0.0,0.0,0.0,0.0,0.0,0.0,0.0,0.0,0.0,0.0,0.0,0.0,0.0,0.0,0.0,0.0,0.0,0.0,0.0,0.0,1.7213,1.7599,0.0,1.7732,1.7805,1.7901,1.7998,1.8094,1.8191,1.8287,1.8613,1.8794,1.8794,1.9229,1.9507,1.9603,1.9688,1.9784,1.9881,1.9881,1.9977,2.0134,2.0134,2.0086,1.9989,1.9989,1.9784,1.9458,1.9458,1.9,1.8042,1.7907,1.7538,1.7055,1.692,1.6549,1.6312,1.6312,1.6312,1.6344,1.6484,1.6538,1.6571,1.671,1.6754,1.6754,1.6754,1.6754,1.6775,1.6861,1.7001,1.7109,1.7023,1.713,1.7195,1.7033,1.7001,1.6742,1.5684,1.5279,1.4572,1.2578,1.2712,1.2429,1.0391,0.9984,0.9722,0.8784,0.8649,0.837,0.7531,0.756,0.7309,0.6639,0.65,0.6529,0.6586,0.6472,0.6431,0.6492,0.6349,0.6268,0.6268,0.6182,0.6108,0.0,0.0,0.0,0.0,0.0,0.0,0.0,0.0,0.0,0.0,0.0,0.0,0.0,0.0,0.0,0.0,0.0,0.0,0.0,0.0,0.0,0.0,0.0,0.0,0.0,0.0,1.7756,1.7756,1.8155,1.8396,1.83,1.83,1.8336,1.842,1.8505,1.8601,1.8686,1.9108,1.935,1.935,1.97,1.9977,2.0146,2.0146,2.0195,2.0279,2.0279,2.0327,2.0412,2.0412,2.0364,2.0279,2.0279,2.0122,1.9881,1.9881,1.947,1.8831,1.8566,1.8186,1.7805,1.7551,1.7169,1.6786,1.6786,1.6786,1.6818,1.6969,1.7023,1.7044,1.7195,1.7195,1.713,1.713,1.7066,1.7001,1.7001,1.713,1.7206,1.7044,1.713,1.7206,1.7033,1.7001,1.7033,1.7109,1.6388,1.5375,1.4051,1.3785,1.3095,1.1052,1.0778,1.0251,0.8918,0.8687,0.8412,0.7536,0.7588,0.7346,0.6639,0.65,0.6525,0.6586,0.6504,0.648,0.6541,0.6427,0.6362,0.6362,0.6272,0.6182,0.6096,0.0,0.0,0.0,0.0,0.0,0.0,0.0,0.0,0.0,0.0,0.0,0.0,0.0,0.0,0.0,0.0,0.0,0.0,0.0,0.0,0.0,0.0,0.0,1.7877,1.8118,1.8312,1.8312,1.8553,1.8613,1.8372,1.8348,1.8444,1.871,1.8963,1.9217,1.947,1.9748,1.9905,1.9905,1.9929,2.0183,2.069,2.069,2.081,2.1064,2.1052,2.0907,2.0665,2.0665,2.0533,2.0291,2.0291,2.0146,1.9905,1.9905,1.9905,1.9905,1.9893,1.948,1.8799,1.8799,1.8396,1.7723,1.7712,1.7712,1.7712,1.7701,1.7701,1.7712,1.7701,1.754,1.7367,1.7367,1.7195,1.7001,1.7001,1.7012,1.7012,1.7001,1.7012,1.7012,1.7001,1.7001,1.7077,1.7324,1.7173,1.6613,1.5183,1.4922,1.4059,1.144,1.1056,0.0,0.9036,0.8867,0.8576,0.755,0.7707,0.7511,0.6739,0.6594,0.659,0.6594,0.6504,0.6455,0.646,0.6455,0.6455,0.6455,0.6362,0.6272,0.6186,0.0,0.0,0.0,0.0,0.0,0.0,0.0,0.0,0.0,0.0,0.0,0.0,0.0,0.0,0.0,0.0,0.0,0.0,0.0,0.0,0.0,0.0,1.7877,1.7877,1.8275,1.865,1.8843,1.9096,1.9301,1.9434,1.9446,1.9483,1.9555,1.9627,1.97,1.9772,2.0207,2.0448,2.0448,2.0834,2.1112,2.1257,2.1052,2.0991,2.1052,2.0871,2.0738,2.0665,2.0665,2.0629,2.0557,2.0557,2.0521,2.0448,2.0448,2.0448,2.0412,2.0038,1.948,1.8799,1.8799,1.8396,1.7701,1.7529,1.7583,1.7658,1.7313,1.7324,1.7443,1.726,1.7152,1.7109,1.7109,1.7055,1.7001,1.7001,1.7141,1.7227,1.7044,1.7141,1.7227,1.7044,1.7001,1.7023,1.7098,1.7055,1.6925,1.6713,1.6744,1.6044,1.4086,1.3805,0.0,1.0498,1.0136,0.9496,0.7767,0.7683,0.7465,0.6684,0.6627,0.6619,0.6684,0.6541,0.6484,0.6549,0.6488,0.6455,0.6455,0.6362,0.6304,0.0,0.0,0.0,0.0,0.0,0.0,0.0,0.0,0.0,0.0,0.0,0.0,0.0,0.0,0.0,0.0,0.0,0.0,0.0,0.0,0.0,0.0,1.7974,1.8131,1.8348,1.865,1.8951,1.9205,1.9483,1.97,1.9869,1.9881,1.9881,1.9881,2.0086,2.0219,2.0219,2.0714,2.1003,2.1003,2.1317,2.1474,2.1474,2.1317,2.1172,2.1052,2.0907,2.0774,2.0665,2.0665,2.0665,0.0,2.0665,2.0665,2.0665,2.0665,2.0665,0.0,0.0,0.0,0.0,0.0,1.8505,1.7863,1.7723,1.769,1.7669,1.7389,1.74,1.7496,1.7346,1.7238,1.7163,1.7163,1.7087,1.7001,1.7001,1.7109,1.7184,1.7033,1.712,1.7184,1.7033,1.7001,1.7001,1.7001,1.7001,0.0,1.7195,1.7227,1.664,1.5192,1.4912,1.4119,1.1886,1.1073,1.0084,0.8753,0.8025,0.74,0.6725,0.668,0.0,0.0,0.0,0.6517,0.6533,0.6484,0.0,0.0,0.0,0.6374,0.6374,0.0,0.0,0.0,0.6194,0.6153,0.0,0.0,0.0,0.0,0.0,0.0,0.0,0.0,0.0,0.0,0.0,0.0,0.0,0.0,0.0,0.0,1.8179,1.8553,1.9048,1.9169,1.9301,1.9531,1.9772,1.9953,2.0014,2.0026,2.0038,2.0062,2.0496,2.0762,2.0762,0.0,0.0,0.0,0.0,2.1523,2.1523,2.1462,2.1305,2.1064,2.1028,2.0895,2.0665,2.0665,2.0665,2.0665,2.0665,2.0665,2.0665,2.0665,2.0665,2.0665,2.0665,2.0388,1.997,1.9273,1.8582,1.8121,1.8067,0.0,0.0,1.7669,1.7658,1.768,1.7647,1.7496,1.7335,1.7335,1.7173,1.7001,1.7001,1.7001,1.7001,1.7001,1.7001,1.7001,1.7001,1.7023,1.7044,1.7044,1.7066,1.7087,1.7087,1.7044,1.6623,1.5332,1.5211,1.4688,1.312,1.1646,1.041,0.9621,0.0,0.0,0.6762,0.6745,0.6709,0.6623,0.6611,0.6562,0.646,0.6464,0.6464,0.6455,0.6455,0.6455,0.6455,0.6455,0.6455,0.6451,0.6288,0.621,0.0,0.0,0.0,0.0,0.0,0.0,0.0,0.0,0.0,0.0,0.0,0.0,0.0,0.0,0.0,1.8131,1.8613,1.9036,1.935,1.9772,2.0062,2.011,2.0171,2.0364,2.0798,2.0834,2.0931,2.1148,2.1269,2.1329,2.1329,2.1619,2.18,2.18,2.18,2.18,2.18,2.1366,2.1112,2.1052,0.0,0.0,2.0665,2.0665,2.0665,2.0665,2.0665,2.0665,2.0665,2.0665,2.0527,2.0249,2.0249,1.997,1.968,1.9133,1.8681,1.8315,1.7927,1.7895,1.7927,1.7335,1.7281,1.741,1.7206,1.7109,0.0,1.7077,1.7044,1.7001,1.7001,1.7001,1.7001,1.7001,1.7001,1.7001,1.7001,1.7163,1.7303,1.7303,1.7453,1.7583,1.7583,1.726,1.6936,1.6876,1.6907,1.6022,1.3477,1.2741,1.1303,0.862,0.7827,0.7308,0.6933,0.6872,0.6823,0.6803,0.6737,0.6627,0.646,0.6525,0.6529,0.6455,0.6455,0.6455,0.6455,0.6455,0.6455,0.6451,0.6419,0.6402,0.0,0.0,0.0,0.0,0.0,0.0,0.0,0.0,0.0,0.0,0.0,1.7563,1.7841,0.0,1.8215,1.8613,1.9012,1.941,1.982,2.0219,2.0472,2.0472,2.0593,2.0822,2.1233,2.1269,2.1329,2.1474,2.1595,2.1679,2.1679,2.1921,2.2066,2.2066,2.1933,2.1812,2.1679,2.1269,2.0991,2.0859,2.0726,2.0665,2.0665,2.081,2.0859,2.0871,2.1016,2.0991,2.0859,2.0726,2.0388,2.011,2.011,1.9831,1.9262,1.9133,1.8637,1.8229,1.7992,1.783,1.768,1.7313,1.7195,1.7163,1.7044,1.7001,1.7001,1.7001,1.7098,1.7195,1.7195,1.7281,1.7356,1.7356,1.7356,1.7356,1.7356,1.7464,1.755,1.755,1.7647,1.7723,1.7723,1.7518,1.741,1.7529,1.755,1.7047,1.5643,1.3821,1.197,1.037,0.8459,0.7085,0.6986,0.6905,0.6851,0.6851,0.6774,0.6684,0.6594,0.6635,0.6639,0.659,0.659,0.659,0.659,0.659,0.659,0.659,0.659,0.6541,0.0,0.0,0.0,0.0,0.0,0.0,0.0,1.7563,1.7636,1.7901,1.795,1.8034,1.8312,1.8589,1.8843,1.9108,1.9422,1.9796,2.0279,2.0581,2.0786,2.0895,2.104,2.1245,2.1523,2.1559,2.1583,2.1631,2.1824,2.1945,2.1945,2.2102,2.2186,2.2186,2.1873,2.1607,2.1402,2.1124,2.0907,2.0738,2.0738,2.0774,2.0834,2.104,2.1136,2.1148,2.1329,2.1269,2.104,2.0774,2.0388,1.997,1.997,1.9413,1.8854,1.8993,1.8593,1.8153,1.811,1.7841,1.7507,1.7464,1.7313,1.7141,1.7141,1.7141,1.7141,1.7141,1.7292,1.7443,1.7443,1.7583,1.7723,1.7723,1.7723,1.7723,1.7723,1.7755,1.7787,1.7787,1.783,1.7863,1.7863,1.7863,1.7841,1.7798,1.7787,1.7538,1.7025,1.4536,1.2522,1.1684,0.9088,0.7276,0.699,0.6921,0.6872,0.6856,0.6807,0.6762,0.6729,0.6741,0.6741,0.6725,0.6725,0.6725,0.6725,0.6725,0.6725,0.6725,0.6725,0.6647,1.7443,1.7443,1.7443,1.7479,1.7479,1.7539,0.0,1.7829,1.7913,1.8191,1.8251,1.8324,1.8589,1.8855,1.912,1.9374,1.9857,2.0291,2.0581,2.0847,2.1197,2.1679,2.1559,2.1535,2.18,2.1824,2.1921,2.2162,2.2198,2.2223,2.2223,2.2029,2.1909,2.1909,2.1414,2.1136,2.1112,2.0847,2.081,2.1016,2.1016,2.1148,2.139,2.1414,2.1426,2.1426,2.1197,2.1088,2.104,2.0495,1.997,1.968,1.9262,1.8854,1.8573,1.8854,1.8692,1.8369,1.8164,1.8056,1.7981,1.7755,1.7658,1.7636,1.7636,1.7636,1.7636,1.7636,1.7658,1.768,1.768,1.7701,1.7723,1.7723,1.7723,1.7723,1.7723,1.7895,1.8056,1.8056,1.8218,1.8358,1.8358,1.8358,1.8282,1.8078,1.8056,1.7144,1.4647,1.4248,1.2693,0.8992,0.8569,0.814,0.7135,0.6978,0.6937,0.686,0.6921,0.6888,0.6733,0.6798,0.6803,0.6729,0.6725,0.6725,0.6725,0.6725,0.6725,0.6725,0.6725,0.6717,1.7479,1.7479,1.7515,1.7672,1.7708,1.7781,1.8058,1.8118,1.8191,1.8469,1.8638,1.8831,1.9096,1.9483,1.9808,1.9917,2.0388,2.0774,2.0883,2.1124,2.139,2.1619,2.1547,2.1643,2.2054,2.1957,2.1981,2.2247,2.2259,2.2259,2.2259,2.2162,2.2029,2.1873,2.1655,2.1462,2.1305,2.1197,2.1197,2.1305,2.1305,2.1366,2.1486,2.1631,2.1788,2.1921,2.1655,2.145,2.1281,2.0874,2.0239,1.9541,1.9401,1.8982,1.8433,1.8573,1.8573,1.8422,1.8326,1.8207,1.8078,1.797,1.7841,1.7723,1.7723,1.7723,1.7723,1.7723,1.783,1.7938,1.7938,1.8035,1.8132,1.8132,1.8132,1.8175,1.8304,1.8422,1.8541,1.8681,1.8789,1.8853,1.8853,1.8853,1.8821,1.8724,1.8584,1.7814,1.5748,1.4601,1.2395,0.8295,0.7711,0.7566,0.699,0.699,0.6974,0.6933,0.697,0.6958,0.6884,0.6913,0.6917,0.688,0.688,0.688,0.688,0.688,0.688,0.688,0.688,0.688,1.7479,1.7539,1.7636,1.7829,1.7937,1.8058,1.8336,1.8456,1.8589,1.8843,1.9108,1.9362,1.9543,1.9965,2.0303,2.0376,2.0762,2.1088,2.116,2.1354,2.1474,2.1474,2.1414,2.1547,2.2005,2.1873,2.1836,2.2029,2.2114,2.2126,2.2054,2.2042,2.1957,2.1764,2.1691,2.1595,2.1474,2.1474,2.151,2.1583,2.1583,2.1631,2.1704,2.1897,2.2078,2.2247,2.1909,2.1655,2.145,2.11,2.0414,1.9541,1.9541,1.9122,1.8433,1.8433,1.8433,1.8433,1.8433,1.8326,1.8186,1.8186,1.8067,1.7916,1.7916,1.7916,1.7916,1.7916,1.8046,1.8207,1.8261,1.8401,1.8552,1.8616,1.8627,1.8681,1.8842,1.8885,1.8939,1.9112,1.9155,1.9155,1.9155,1.9155,1.9176,1.9241,1.909,1.8373,1.6846,1.435,1.153,0.8382,0.7504,0.7056,0.7031,0.7027,0.7015,0.699,0.699,0.699,0.699,0.699,0.699,0.699,0.699,0.699,0.699,0.699,0.699,0.699,0.699,0.699,1.7479,1.7672,1.7865,1.7865,1.8082,1.8348,1.8613,1.8867,1.9132,1.9386,1.9664,1.9869,1.9869,2.0098,2.0364,2.0617,2.0883,2.116,2.1426,2.1474,2.1474,2.1474,2.1233,2.1185,2.1474,2.1498,2.1498,2.1498,2.174,2.1776,2.151,2.1498,2.1498,2.1486,2.1233,2.1209,2.1474,2.1474,2.1607,2.186,2.186,2.1993,2.2235,2.2247,2.2259,2.2235,2.1716,2.1486,2.1438,2.0907,2.0249,1.9541,1.9541,1.9122,1.8433,1.8433,1.8433,1.8433,1.8433,1.8433,1.8422,1.8422,1.8422,1.8412,1.8412,1.8412,1.8412,1.8412,1.8422,1.8476,1.8702,1.8767,1.8832,1.9068,1.9133,1.9133,1.9144,1.9144,1.9144,1.9144,1.9155,1.9155,1.9155,1.9155,1.923,1.9456,1.9478,1.879,1.7077,1.3496,1.053,0.9045,0.8004,0.7219,0.7129,0.7121,0.7084,0.6994,0.699,0.699,0.699,0.699,0.699,0.699,0.699,0.699,0.699,0.699,0.699,0.699,0.699,0.699,1.7648,1.7805,1.7998,1.8541,1.8746,1.8927,1.9374,1.9555,1.9591,1.9483,1.9688,1.9833,1.9639,1.9977,2.0303,2.04,2.0931,2.1305,2.1209,2.151,2.1607,2.1245,2.1112,2.1028,2.0943,2.11,2.1281,2.1462,2.1559,2.1643,2.1728,2.174,2.174,2.174,2.1812,2.1824,2.174,2.1909,2.2042,2.2126,2.2126,2.2174,2.2259,2.2259,2.2259,2.2247,2.2078,2.1897,2.1728,2.1547,2.0923,2.0043,2.0043,1.9614,1.8907,1.8907,1.8907,1.8864,1.8552,1.8433,1.8466,1.8616,1.867,1.8692,1.8864,1.8907,1.8907,1.8907,1.8907,1.8928,1.9004,1.9025,1.9047,1.9133,1.9155,1.9198,1.9348,1.9381,1.9424,1.9585,1.9607,1.9607,1.9607,1.9607,1.9639,1.9714,1.869,1.7514,1.6396,1.3878,1.1437,0.9655,0.891,0.815,0.7369,0.7215,0.7203,0.7174,0.7113,0.708,0.708,0.7023,0.699,0.699,0.699,0.699,0.699,0.699,0.699,0.699,0.699,0.699,1.7901,1.8155,1.8444,1.906,1.9289,1.9458,1.9808,1.9881,1.9833,1.9652,1.9676,1.9676,1.9495,1.9748,2.0026,2.0122,2.0726,2.116,2.1076,2.1366,2.145,2.11,2.0979,2.0859,2.069,2.0907,2.11,2.1185,2.1366,2.151,2.1583,2.1764,2.1873,2.1873,2.2029,2.209,2.2005,2.2174,2.2259,2.2259,2.2259,2.2259,2.2259,2.2259,2.2259,2.2259,2.2162,2.2029,2.186,2.1618,2.1038,2.0295,2.0161,1.9726,1.9155,1.9155,1.9155,1.9112,1.8799,1.8692,1.8713,1.8864,1.8918,1.8939,1.9101,1.9155,1.9155,1.9155,1.9155,1.9165,1.9252,1.9273,1.9295,1.9381,1.9402,1.9445,1.9596,1.9628,1.9671,1.9822,1.9844,1.9876,1.9962,2.0048,2.0102,2.0102,1.9202,1.7825,1.6153,1.4667,1.2792,0.9932,0.933,0.8707,0.7461,0.7309,0.7297,0.7264,0.7207,0.7174,0.7174,0.7088,0.7039,0.7039,0.7007,0.699,0.699,0.699,0.699,0.699,0.699,0.699,1.8251,1.871,1.9169,1.9434,1.9712,1.9905,1.9905,1.9905,1.9905,1.9869,1.9652,1.9458,1.9446,1.947,1.9579,1.9845,2.0352,2.0798,2.1028,2.11,2.1112,2.1088,2.0871,2.0726,2.0714,2.0931,2.0979,2.0726,0.0,2.1366,2.1112,2.1595,2.1873,2.1885,2.1885,2.2005,2.2259,2.2271,2.2283,2.2283,2.2283,2.2271,2.2259,2.2259,2.2259,2.2247,2.1993,2.1885,2.1873,2.1171,2.063,2.034,1.9904,1.9468,1.9187,1.9187,1.9187,1.9187,1.9187,1.9165,1.9155,1.9165,1.9165,1.9165,1.9187,1.9187,1.9187,1.9187,1.9187,1.9241,1.9456,1.9521,1.9575,1.979,1.9844,1.9854,1.9865,1.9865,1.9865,1.9876,1.9887,1.9962,2.0188,2.0414,2.0565,2.0565,2.0565,1.944,1.6068,1.571,1.4168,1.0003,0.9542,0.8881,0.7556,0.7395,0.7362,0.728,0.7272,0.7268,0.7268,0.7182,0.7133,0.7133,0.7047,0.7003,0.7003,0.7003,0.7003,0.7003,0.7003,0.7003,1.8698,1.912,1.9483,1.9953,2.0122,2.0183,2.0183,2.0183,2.0062,1.9652,1.9519,1.941,1.9217,1.9507,1.9808,1.9869,2.0665,2.1221,2.1076,2.1571,2.1812,2.1414,2.1486,2.1486,2.1293,2.1329,2.1341,0.0,2.1402,2.1535,2.1655,2.18,2.1957,2.2162,2.2162,2.2198,2.2259,2.2452,2.2549,2.2549,2.2549,2.2452,2.2259,2.2259,2.2259,2.2259,2.2186,2.2162,2.2162,2.1644,2.1312,2.0866,2.0419,2.0109,1.9671,1.9671,1.9671,1.9671,1.9671,1.9445,1.9176,1.9348,1.9413,1.9445,1.9618,1.9671,1.9671,1.9671,1.9671,1.9682,1.9747,1.9758,1.9779,1.9833,1.9844,1.9898,2.0081,2.0124,2.0177,2.035,2.0382,2.0404,2.0468,2.0522,2.0565,2.0565,2.0565,1.9824,1.7517,1.718,1.5872,1.2494,1.1399,1.0302,0.9036,0.7955,0.748,0.746,0.7395,0.7358,0.7358,0.7276,0.7227,0.7227,0.7207,0.7194,0.7194,0.7194,0.7194,0.7194,0.7194,0.7194,1.9241,1.9627,1.9929,2.034,2.0364,2.0279,2.0279,2.0098,1.9833,1.9531,1.9289,1.912,1.9084,1.9326,1.9567,1.9688,2.04,2.0979,2.1052,2.145,2.1716,2.1655,2.1679,2.1643,2.1486,2.1583,2.1655,2.1655,2.1655,2.1716,2.186,2.1981,2.2102,2.2259,2.2367,2.2488,2.2609,2.2754,2.2766,2.2657,2.2657,2.2512,2.2259,2.2259,2.2259,2.2259,0.0,2.2259,2.2259,2.181,2.151,2.1071,2.0597,2.0296,1.9844,1.9844,1.9844,1.9844,1.9844,1.9671,1.9478,1.9607,1.965,1.9671,1.9811,1.9844,1.9844,1.9844,1.9844,1.9876,1.9984,2.0005,2.0037,2.0134,2.0167,2.0199,2.0339,2.0371,2.0404,2.0533,2.064,2.0716,2.0716,2.0802,2.0877,2.0877,2.0877,2.0316,1.8809,1.7751,1.5929,1.2848,1.1842,1.0554,0.8836,0.848,0.8145,0.7525,0.7476,0.7448,0.7448,0.7366,0.7317,0.7317,0.728,0.7264,0.7264,0.7264,0.7264,0.7264,0.7264,0.7264,1.9784,2.0134,2.0388,2.0617,2.0472,2.0267,2.0231,1.9833,1.9458,1.9422,1.9048,1.8807,1.9036,1.9108,1.9217,1.9483,1.9977,2.0496,2.0991,2.1124,2.1341,2.1812,2.1704,2.1583,2.1583,2.1788,2.1921,2.1921,2.1921,2.1921,2.1921,2.2138,2.2283,2.2307,2.2573,2.2826,2.3092,2.3056,2.2923,2.2705,2.2669,2.2512,2.2259,2.2259,2.2259,2.2259,2.2259,0.0,2.2259,2.181,2.151,2.1071,2.0597,2.0318,1.9898,1.9898,1.9919,1.9941,1.9941,1.9941,1.993,1.9865,1.9865,1.9898,1.9898,1.9919,1.9941,1.9941,1.9941,1.9994,2.021,2.0264,2.0317,2.0511,2.0565,2.0576,2.0597,2.063,2.0662,2.0662,2.0823,2.0953,2.0953,2.1136,2.1276,2.1276,2.1276,2.0878,1.9855,1.7704,1.5186,1.2455,1.1708,1.0527,0.8473,0.885,0.8788,0.7855,0.7533,0.7525,0.7525,0.7448,0.7407,0.7407,0.7337,0.7297,0.7297,0.7297,0.7297,0.7297,0.7297,0.7297,2.0062,2.04,2.0617,2.0653,2.0472,2.0219,2.0002,1.97,1.941,1.9193,1.9072,1.9024,1.906,1.9253,1.9495,1.9772,2.0255,2.0702,2.1016,2.145,2.1764,2.186,2.2017,2.2126,2.2126,2.2162,2.2198,2.2198,2.2198,2.2198,2.2198,2.2235,2.2355,2.2573,2.2838,2.3104,2.3381,2.3152,2.3019,2.2971,2.2754,2.2512,2.2259,2.2259,2.2259,2.2259,2.2259,0.0,2.2259,2.181,2.151,2.1071,2.0597,2.0417,2.0145,2.0145,2.0274,2.0436,2.0436,2.0436,2.0371,1.9973,1.9984,2.0145,2.0145,2.0285,2.0436,2.0436,2.0436,2.0447,2.049,2.05,2.0511,2.0554,2.0565,2.0619,2.0802,2.1007,2.1157,2.1157,2.119,2.1211,2.1211,2.1254,2.1276,2.1276,2.1276,2.0931,2.0069,1.874,1.7102,1.4548,1.2755,1.1462,1.0982,0.9118,0.8427,0.9213,0.8194,0.7525,0.7525,0.7509,0.7501,0.7501,0.7488,0.748,0.748,0.748,0.748,0.748,0.748,0.748,2.0376,2.0569,2.0665,2.0665,2.0364,2.0038,1.9917,1.9567,1.9229,1.9096,1.9072,1.9072,1.9072,1.9289,1.9507,1.9652,2.0002,2.04,2.0798,2.1197,2.1547,2.1836,2.2102,2.2259,2.2259,2.2259,2.2319,2.2452,2.2464,2.2464,2.2464,2.2597,2.279,2.3056,2.3188,2.3381,2.3659,2.3393,2.3188,2.3043,2.2778,2.2512,2.2259,2.2259,2.2259,2.2259,2.2259,0.0,2.2271,2.2253,2.2011,2.1569,2.1544,2.1209,2.0703,2.0703,2.0624,2.0565,2.0565,2.0565,2.0522,2.0296,2.0296,2.0393,2.0393,2.0468,2.0565,2.0565,2.0565,2.0587,2.0705,2.0737,2.077,2.0899,2.0931,2.0963,2.1071,2.119,2.1276,2.1276,2.1276,2.1276,2.1276,2.1276,2.1276,2.1276,2.1276,2.1114,2.0779,1.9876,1.8142,1.5448,1.3098,1.1439,1.0784,1.019,0.9807,0.9812,0.9698,0.9321,0.8697,0.8485,0.8145,0.7525,0.7525,0.7525,0.7525,0.7525,0.7525,0.7525,0.7525,0.7525,2.0569,2.0665,2.0665,2.0665,2.0279,1.9881,1.9881,1.947,1.9072,1.9072,1.9072,1.9072,1.9072,1.9241,1.9398,1.9458,1.9652,1.9977,2.0509,2.0859,2.1245,2.1728,2.2066,2.2259,2.2259,2.2307,2.2428,2.2633,2.2754,2.2802,2.2742,2.2983,2.3225,2.3442,2.3454,2.355,2.3756,2.3442,2.3176,2.2959,2.2693,2.2464,2.2259,2.2259,2.2295,2.2343,2.2343,0.0,0.0,2.2657,2.2589,2.2142,2.2341,2.1992,2.1257,2.1257,2.1133,2.0716,2.0716,2.0716,2.0716,2.0716,2.0684,2.064,2.064,2.0673,2.0716,2.0716,2.0716,2.0759,2.0931,2.0985,2.1028,2.1233,2.1276,2.1276,2.1276,2.1276,2.1276,2.1276,2.1276,2.1276,2.1276,2.1276,2.1276,2.1276,2.1276,2.1276,2.1276,2.0455,1.9144,1.6673,1.4095,1.1898,1.0579,1.1288,1.1374,1.0249,1.1095,1.1025,0.9755,0.9484,0.8802,0.7554,0.7537,0.7525,0.7525,0.7525,0.7525,0.7525,0.7525,0.7525,2.046,2.0665,2.0665,2.0665,2.0279,1.9881,1.9881,1.947,1.9072,1.9072,1.9072,1.9072,1.9072,1.9096,1.9193,1.9422,1.9495,1.9688,2.0243,2.0738,2.1172,2.1474,2.1957,2.2259,2.2259,2.2476,2.2621,2.2645,2.3104,2.3273,2.3019,2.3261,2.343,2.3454,2.3454,2.3466,2.349,2.2983,2.2718,2.2681,2.2416,2.2283,2.2259,2.2259,2.2392,2.2621,2.2621,0.0,0.0,2.2995,2.2853,2.2388,2.2412,2.2096,2.1512,2.1512,2.1497,2.1211,2.1211,2.1211,2.1211,2.1211,2.106,2.0877,2.0877,2.1028,2.1211,2.1211,2.1211,2.1222,2.1243,2.1243,2.1254,2.1276,2.1276,2.1276,2.1276,2.1276,2.1276,2.1276,2.1276,2.1276,2.1276,2.1276,2.1276,2.1276,2.1276,2.1276,2.1276,2.0455,1.9957,1.9632,1.682,1.4181,1.2038,1.191,1.183,1.1667,1.1714,1.116,0.9874,0.9765,0.907,0.7652,0.7566,0.7525,0.7525,0.7525,0.7525,0.7525,0.7525,0.7525,2.0564,2.1221,2.1747,2.0943,2.0934,2.092,2.0148,1.947,1.9072,1.9072,1.9072,1.9072,1.9072,1.9072,1.9108,1.9217,1.9362,1.9603,1.9989,2.0496,2.0991,2.1426,2.18,2.215,2.2464,2.2585,2.279,2.3116,2.3478,2.3647,2.3526,2.3623,2.3611,2.3466,2.3454,2.3369,2.3212,2.2838,2.2657,2.2645,2.238,2.2259,2.2271,2.2428,2.2549,2.2657,2.2814,0.0,0.0,2.3225,2.3128,2.2984,2.3151,2.2952,2.2567,2.2567,2.2316,2.2084,2.1761,2.1922,2.2084,2.1761,2.1856,2.1767,2.1286,2.12,2.1276,2.1276,2.1276,2.1276,2.1276,2.1276,2.1276,2.1276,2.1276,2.1276,2.1276,2.1276,2.1276,2.1276,2.1276,2.1276,2.1276,2.1276,2.1276,2.1276,2.1276,2.1276,2.1276,2.0952,2.0617,2.013,1.7173,1.5028,1.4203,1.3487,1.3124,1.3124,1.381,1.3233,1.1126,1.1005,0.9982,0.7746,0.7656,0.7607,0.7607,0.7554,0.7525,0.7525,0.7525,0.7525,2.0405,2.1207,2.1757,2.082,2.1007,2.1159,2.0038,1.941,1.9072,1.9072,1.9132,1.9169,1.9084,1.9132,1.9169,1.9084,1.9301,1.9567,1.9845,2.034,2.0834,2.1305,2.1595,2.1957,2.2488,2.2754,2.308,2.3538,2.3744,2.384,2.384,2.3768,2.3647,2.3466,2.3297,2.3128,2.2923,2.2669,2.2536,2.2536,2.2428,2.238,2.238,2.2645,2.2814,2.2899,2.308,0.0,0.0,2.349,2.3562,2.3587,2.3768,2.352,2.3211,2.3211,2.2889,2.2567,2.2245,2.2245,2.2567,2.2245,2.2406,2.2567,2.1922,2.1599,2.1438,2.1438,2.1438,2.1276,2.1276,2.1276,2.1276,2.1276,2.1276,2.1276,2.1276,2.1276,2.1276,2.1276,2.1276,2.1276,2.1276,2.1276,2.1276,2.1276,2.1276,2.1276,2.1276,2.1276,2.1114,2.0455,1.8155,1.6344,1.553,1.4871,1.4375,1.4045,1.4765,1.4371,1.2566,1.2106,1.0745,0.8481,0.7906,0.7701,0.7701,0.764,0.7591,0.7566,0.7566,0.755,1.9989,2.0279,2.0279,2.0279,2.0086,1.9808,1.9531,1.9265,1.9072,1.9072,1.9277,1.9386,1.912,1.9289,1.9374,1.912,1.9301,1.9567,1.9845,2.034,2.0762,2.1028,2.1305,2.1691,2.2211,2.2983,2.355,2.3816,2.384,0.0,2.384,2.3599,2.3454,2.3454,2.2935,2.2657,2.2657,2.2392,2.2259,2.2271,2.2524,2.2645,2.2657,2.2923,2.3188,2.3442,0.0,0.0,0.0,2.384,2.384,2.384,2.384,2.352,2.3211,2.3211,2.2889,2.2567,2.2567,2.2567,2.2567,2.2567,2.2567,2.2567,2.2567,2.2245,2.1922,2.1922,2.1599,2.1276,2.1276,2.1276,2.1276,2.1276,2.1276,2.1276,2.1276,2.1276,2.1276,2.1276,2.1276,2.1276,2.1276,2.1276,2.1276,2.1276,2.1276,2.1276,2.1276,2.1276,2.1276,2.1276,2.0455,1.8645,1.5687,1.5365,1.5036,1.4045,1.4045,1.4045,1.4045,1.2578,1.119,0.9886,0.849,0.7799,0.7799,0.7795,0.775,0.766,0.766,0.7611,2.0303,2.1937,2.3534,2.0659,2.124,2.1889,2.0005,1.9398,1.9338,1.9338,1.9567,1.9724,1.9652,1.9543,1.9434,1.9362,1.941,1.9567,1.9845,2.0183,2.0629,2.1269,2.2054,2.2609,2.2778,2.3357,2.3756,2.384,2.384,2.3768,2.3587,2.3321,2.3176,2.3176,2.2838,2.2573,2.2392,2.2307,2.2355,2.2524,2.2609,2.2742,2.2923,2.32,2.3369,0.0,0.0,0.0,0.0,2.384,2.384,2.384,2.384,2.368,2.368,2.368,2.352,2.3359,2.305,2.3199,2.3359,2.305,2.3211,2.3371,2.3371,2.2878,2.2245,2.1922,2.1761,2.1599,2.1438,2.1276,2.1276,2.1276,2.1276,2.1276,2.1276,2.1276,2.1276,2.1276,2.1276,2.1276,2.1276,2.1276,2.1276,2.1276,2.1276,2.1276,2.1276,2.1276,2.1276,2.1276,2.1114,2.0292,1.8645,1.751,1.6698,1.6369,1.5711,1.4878,1.4045,1.3501,1.2319,1.0004,0.9568,0.8866,0.7893,0.7827,0.7782,0.7754,0.7754,0.7742,2.1093,2.2535,2.4238,2.0636,2.1267,2.2382,2.049,1.9776,1.985,2.0877,2.0555,2.0136,2.0547,2.0133,1.9591,1.9483,1.9555,1.9688,1.9857,2.0279,2.0834,2.1547,2.238,2.2935,2.3031,2.3526,2.3804,2.3707,2.3695,2.3587,2.3309,2.3043,2.2899,2.2899,2.2645,2.2428,2.2259,2.2355,2.2488,2.2657,2.2862,2.3043,2.3212,2.3478,2.3599,0.0,0.0,0.0,0.0,2.384,2.384,2.384,2.384,2.384,2.384,2.384,2.384,2.368,2.3532,2.352,2.368,2.3532,2.352,2.384,2.384,2.3359,2.2728,2.2245,2.2084,2.1922,2.1599,2.1438,2.1276,2.1276,2.1276,2.1276,2.1276,2.1276,2.1276,2.1276,2.1276,2.1276,2.1276,2.1276,2.1276,2.1276,2.1276,2.1276,2.1276,2.1276,2.1276,2.1276,2.1276,2.1114,2.0455,1.8491,1.7182,1.7363,1.604,1.5051,1.4713,1.4217,1.3217,1.1552,1.0485,0.9628,0.8806,0.8057,0.7852,0.7848,0.7815,0.7799,0.0,2.2751,2.3134,2.0333,2.0579,2.1545,2.1036,2.0194,0.0,2.2979,2.178,2.0626,2.178,2.08,1.9796,1.9507,1.9688,1.9869,1.9881,2.0581,2.1281,2.1812,2.2343,2.2778,2.3019,2.3514,2.3719,2.3478,2.343,2.3309,2.3031,2.279,2.2645,2.2621,2.2404,2.2295,2.2295,2.2536,2.2669,2.2718,2.3212,2.3466,2.349,2.3731,2.384,0.0,0.0,0.0,0.0,2.384,2.384,2.384,2.384,2.384,2.384,2.384,2.384,2.384,2.384,2.384,2.384,2.384,2.384,2.384,2.384,2.3532,2.3199,2.2728,2.2406,2.1922,2.1922,2.1599,2.1276,2.1276,2.1276,2.1276,2.1276,2.1276,2.1276,2.1276,2.1276,2.1276,2.1276,2.1276,2.1276,2.1276,2.1276,2.1276,2.1276,2.1276,2.1276,2.1276,2.1276,2.1276,2.1276,1.8636,1.7156,1.7527,1.5538,1.4878,1.6048,1.4878,1.4052,1.4045,1.1392,1.006,0.9893,0.8641,0.7946,0.7942,0.7856,0.7819,2.4456,0.0,2.5322,2.1683,2.1683,2.223,0.0,1.9842,2.0364,2.227,2.1539,2.0897,2.207,2.0939,1.9796,1.9507,1.9519,1.9639,1.9857,2.075,2.1498,2.1836,2.2512,2.2971,2.3031,2.3345,2.3514,2.3454,2.3261,2.3019,2.2754,2.2681,2.2561,2.2355,2.2488,2.2561,2.2561,2.2621,2.2862,2.3273,2.3393,2.3562,2.3756,2.3816,2.384,0.0,0.0,0.0,2.384,2.384,2.384,2.384,2.384,2.384,2.384,2.384,2.384,2.384,2.384,2.384,2.384,2.384,2.384,2.384,2.384,2.368,2.352,2.3211,2.305,2.2717,2.2084,2.1761,2.1761,2.1438,2.1276,2.1276,2.1276,2.1276,2.1276,2.1276,2.1276,2.1276,2.1276,2.1276,2.1276,2.1276,2.1276,2.1276,2.1276,2.1276,2.1276,2.1276,2.1276,2.1276,2.1276,1.9957,1.9307,1.9316,1.7682,1.6698,1.7035,1.604,1.5043,1.4045,1.1392,0.9559,0.8562,0.8207,0.8032,0.8032,0.8011,0.7999,2.6017,2.6571,2.6327,2.2827,2.3076,2.3539,2.17,2.111,2.1262,2.2993,2.1952,2.1032,2.2347,2.1167,1.9977,1.97,1.976,1.9977,2.0364,2.0919,2.1523,2.215,2.2609,2.2959,2.3212,2.3369,2.3345,2.3104,2.2947,2.2754,2.2488,2.2476,2.2404,2.2259,2.2512,2.2657,2.2657,2.2899,2.3164,2.3454,2.3575,2.3707,2.384,2.384,2.384,0.0,0.0,0.0,2.384,2.384,2.384,2.384,2.384,2.384,2.384,2.384,2.384,2.384,2.384,2.384,2.384,2.384,2.384,2.384,2.384,2.384,2.368,2.3532,2.3359,2.3038,2.2567,2.2245,2.1922,2.1599,2.1438,2.1276,2.1276,2.1276,2.1276,2.1276,2.1276,2.1276,2.1276,2.1276,2.1276,2.1276,2.1276,2.1276,2.1276,2.1276,2.1276,2.1276,2.1276,2.1276,2.1276,2.0952,2.0455,1.9967,1.8664,1.7846,1.7363,1.6871,1.5875,1.4045,1.205,1.0393,0.9059,0.8395,0.806,0.806,0.806,0.806,2.7073,2.7073,2.6449,2.407,2.4193,2.4796,2.3799,2.2818,2.2586,2.4245,2.2659,2.1333,2.2493,2.1318,2.0134,1.9869,2.005,2.0424,2.104,2.1124,2.1498,2.2536,2.2657,2.285,2.3345,2.3357,2.314,2.2681,2.2621,2.25,2.2271,2.2259,2.2283,2.2319,2.2573,2.273,2.2778,2.3225,2.3478,2.3514,2.3731,2.384,2.384,2.384,2.384,2.384,0.0,0.0,2.384,2.384,2.384,2.384,2.384,2.384,2.384,2.384,2.384,2.384,2.384,2.384,2.384,2.384,2.384,2.384,2.384,2.384,2.384,2.384,2.352,2.3199,2.3199,2.2728,2.2084,2.1922,2.1599,2.1438,2.1276,2.1276,2.1276,2.1276,2.1276,2.1276,2.1276,2.1276,2.1276,2.1276,2.1276,2.1276,2.1276,2.1276,2.1276,2.1276,2.1276,2.1276,2.1276,2.1276,2.0952,2.0292,1.9307,1.8491,1.7363,1.7363,1.6205,1.3714,1.272,1.1386,0.9726,0.8729,0.806,0.806,0.806,0.806,2.7073,2.7073,2.6692,2.5194,2.4949,2.4859,2.408,2.3739,2.3941,2.4669,2.361,2.2479,2.2498,2.104,1.9857,1.9579,1.976,2.0291,2.1281,2.1414,2.1728,2.2549,2.2657,2.2778,2.308,2.2899,2.2742,2.2657,2.2452,2.2307,2.2259,2.2259,2.2367,2.2585,2.285,2.3092,2.3333,2.3406,2.3562,2.378,2.3828,2.384,2.384,2.384,2.384,2.384,0.0,2.384,2.384,2.384,2.384,2.384,2.384,2.384,2.384,2.384,2.384,2.384,2.384,2.384,2.384,2.384,2.384,2.384,2.384,2.384,2.384,2.384,2.368,2.368,2.3371,2.305,2.2889,2.2084,2.1922,2.1761,2.1438,2.1276,2.1276,2.1276,2.1276,2.1276,2.1276,2.1276,2.1276,2.1276,2.1276,2.1276,2.1276,2.1276,2.1276,2.1276,2.1276,2.1276,2.1276,2.1276,2.1276,2.1114,2.0292,1.9153,1.7527,1.7363,1.5867,1.2388,1.2222,1.0893,0.8395,0.8227,0.806,0.806,0.806,0.806,2.7073,2.7073,2.6952,2.6327,2.6338,2.5859,2.3422,2.4174,2.508,2.4082,2.3229,2.2726,2.2445,2.1104,2.0098,2.011,2.034,2.075,2.139,2.1474,2.1716,0.0,0.0,2.2549,2.2802,2.2718,2.2597,2.2452,2.2331,2.2259,2.2259,2.2259,2.238,2.2645,2.2911,2.3176,2.3454,2.3599,2.3719,2.384,2.384,2.384,2.384,2.384,2.384,2.384,0.0,2.384,2.384,2.384,2.384,2.384,2.384,2.384,2.384,2.384,2.384,2.384,2.384,2.384,2.384,2.384,2.384,2.384,2.384,2.384,2.384,2.384,2.384,2.368,2.352,2.3371,2.305,2.2717,2.2234,2.1922,2.1599,2.1438,2.1276,2.1276,2.1276,2.1276,2.1276,2.1276,2.1276,2.1276,2.1276,2.1276,2.1276,2.1276,2.1276,2.1276,2.1276,2.1276,2.1276,2.1276,2.1276,2.1276,2.0455,1.9642,1.8827,1.7846,1.6534,1.5036,1.3045,1.1558,1.0226,0.8729,0.806,0.806,0.806,0.806,2.7073,2.7073,2.709,2.6793,2.7153,2.6819,2.358,2.5076,2.633,2.3433,2.3038,2.3052,2.2432,2.1411,2.0811,2.1071,2.1065,2.1112,2.151,2.1571,2.1764,2.2295,2.2295,2.2367,2.2621,2.2597,2.2476,2.2283,2.2259,2.2259,2.2259,2.2259,2.2416,2.273,2.2935,2.32,2.3538,2.3744,2.384,2.384,2.384,2.384,2.384,2.384,2.384,2.384,2.384,2.384,2.384,2.384,2.384,2.384,2.384,2.384,2.384,2.384,2.384,2.384,2.384,2.384,2.384,2.384,2.384,2.384,2.384,2.384,2.384,2.384,2.384,2.384,2.384,2.352,2.3371,2.3199,2.2728,2.2073,2.1922,2.1599,2.1438,2.1276,2.1276,2.1276,2.1276,2.1276,2.1276,2.1276,2.1276,2.1276,2.1276,2.1276,2.1276,2.1276,2.1276,2.1276,2.1276,2.1276,2.1276,2.1276,2.0617,2.013,1.9967,1.8164,1.7018,1.6525,1.3211,1.1552,1.1225,0.9059,0.806,0.806,0.806,0.806,2.7073,2.7073,2.6898,2.5951,2.6686,2.7317,2.6025,2.718,2.754,2.3569,2.3672,2.3994,2.2539,2.2058,2.1833,2.2123,2.1333,2.0967,2.1728,0.0,2.2042,2.2561,2.2404,2.2367,2.2621,2.2428,2.2283,2.2259,2.2259,2.2259,2.2259,2.2259,2.2488,2.2995,2.3031,2.3297,2.3816,2.384,2.384,2.384,2.384,2.384,2.384,2.384,2.384,2.384,2.384,2.384,2.384,2.384,2.384,2.384,2.384,2.384,2.384,2.384,2.384,2.384,2.384,2.384,2.384,2.384,2.384,2.384,2.384,2.384,2.384,2.384,2.384,2.384,2.384,2.384,2.368,2.3371,2.3199,2.2889,2.2084,2.1922,2.1761,2.1438,2.1276,2.1276,2.1276,2.1276,2.1276,2.1276,2.1276,2.1276,2.1276,2.1276,2.1276,2.1276,2.1276,2.1276,2.1276,2.1276,2.1276,2.1276,2.1276,2.079,1.9967,1.7973,1.5835,1.37,1.1386,0.9559,0.8395,0.8227,0.806,0.806,0.806,0.806,2.7073,2.7073,2.7037,2.6884,2.7402,2.742,2.5566,2.6577,2.7142,2.4709,2.3672,2.2726,2.1111,2.0881,2.1019,2.1283,2.1438,2.1523,2.1824,2.2005,2.2186,2.238,2.2319,2.2295,2.2404,2.2319,2.2259,2.2259,2.2259,2.2259,2.2259,2.2259,2.25,2.3031,2.3043,2.3297,2.384,2.384,2.384,2.384,2.384,2.384,2.384,2.384,2.384,2.384,2.384,2.384,2.384,2.384,2.384,2.384,2.384,2.384,2.384,2.384,2.384,2.384,2.384,2.384,2.384,2.384,2.384,2.384,2.384,2.384,2.384,2.384,2.384,2.384,2.384,2.384,2.368,2.368,2.3359,2.305,2.2728,2.2234,2.1922,2.1761,2.1438,2.1276,2.1276,2.1276,2.1276,2.1276,2.1276,2.1276,2.1276,2.1276,2.1276,2.1276,2.1276,2.1276,2.1276,2.1276,2.1276,2.1276,2.1276,2.0617,1.9124,1.7819,1.6008,1.3865,1.1546,1.006,0.9392,0.8562,0.806,0.806,0.806,0.806,2.7073,2.7073,2.7193,2.7672,2.7997,2.7671,2.589,2.6315,2.662,2.4723,2.3588,2.259,2.1343,2.134,2.1488,0.0,2.153,2.1704,2.1957,2.2078,2.2174,2.2247,2.2259,2.2259,2.2259,2.2259,2.2259,2.2259,2.2259,2.2259,2.2259,2.2259,2.25,2.3031,2.3043,2.3297,2.384,2.384,2.384,2.384,2.384,2.384,2.384,2.384,2.384,2.384,2.384,2.384,2.384,2.384,2.384,2.384,2.384,2.384,2.384,2.384,2.384,2.384,2.384,2.384,2.384,2.384,2.384,2.384,2.384,2.384,2.384,2.384,2.384,2.384,2.384,2.384,2.384,2.384,2.352,2.3359,2.3211,2.2717,2.2245,2.1911,2.1761,2.1438,2.1276,2.1276,2.1276,2.1276,2.1276,2.1276,2.1276,2.1276,2.1276,2.1276,2.1276,2.1276,2.1276,2.1276,2.1114,2.0444,2.0444,1.9947,1.8626,1.7319,1.5679,1.37,1.122,0.9898,0.9731,0.8562,0.806,0.806,0.806,0.806,2.7073,2.7073,2.7261,2.8015,2.8186,2.7993,2.7406,2.7169,2.6337,2.3352,2.3406,2.3898,2.3912,2.3898,0.0,2.3126,2.2026,2.1341,2.2138,2.2029,2.1969,2.2223,2.2259,2.2259,2.2259,2.2259,2.2259,2.2259,2.2259,2.2259,2.2259,2.2259,2.25,2.3019,2.3043,2.3297,2.384,2.384,2.384,2.384,2.384,2.384,2.384,2.384,2.384,2.384,2.384,2.384,2.384,2.384,2.384,2.384,2.384,2.384,2.384,2.384,2.384,2.384,2.384,2.384,2.384,2.384,2.384,2.384,2.384,2.384,2.384,2.384,2.384,2.384,2.384,2.384,2.384,2.384,2.384,2.368,2.3371,2.3211,2.2889,2.2084,2.1922,2.1761,2.1438,2.1276,2.1276,2.1276,2.1276,2.1276,2.1276,2.1276,2.1276,2.1276,2.1276,2.1276,2.1276,2.1276,2.0607,1.8789,1.8626,1.8626,1.8626,1.6492,1.4511,1.2701,1.0065,0.8738,0.8738,0.8232,0.806,0.806,0.806,0.806,2.7073,2.6511,2.6313,2.7815,2.6809,2.5797,2.6925,2.63,2.4451,2.1334,2.1844,2.2525,2.1616,2.1347,0.0,2.1395,2.1212,2.1148,2.1378,2.1679,2.1897,2.1981,2.215,2.2259,2.2259,2.2259,2.2259,2.2259,2.2259,2.2259,2.2259,2.2259,2.2416,2.2754,2.2947,2.3212,2.3562,2.3756,2.384,2.384,2.384,2.384,2.384,2.384,2.384,2.384,2.384,2.384,2.384,2.384,2.384,2.384,2.384,2.384,2.384,2.384,2.384,2.384,2.384,2.384,2.384,2.384,2.384,2.384,2.384,2.384,2.384,2.384,2.384,2.384,2.384,2.384,2.384,2.384,2.384,2.384,2.368,2.3359,2.305,2.2567,2.2084,2.1761,2.1438,2.1276,2.1276,2.1276,2.1276,2.1276,2.1276,2.1276,2.1276,2.1276,2.1276,2.1276,2.1276,2.1276,2.0607,1.8789,1.8626,1.7474,1.502,1.4368,1.3045,1.0893,1.007,0.9407,0.8738,0.8571,0.8399,0.806,0.806,0.806,2.7073,2.67,2.6678,2.7832,2.6761,2.5449,2.5789,2.5321,2.4214,2.2058,2.302,2.363,2.1629,2.1778,0.0,2.1053,2.0871,2.0979,2.1197,2.1414,2.1631,2.1848,2.2005,2.215,2.2247,2.2259,2.2259,2.2259,2.2259,2.2259,2.2259,2.2259,2.238,2.2645,2.2911,2.3176,2.3454,2.3719,2.384,2.384,2.384,2.384,2.384,2.384,2.384,2.384,2.384,2.384,2.384,2.384,2.384,2.384,2.384,2.384,2.384,2.384,2.384,2.384,2.384,2.384,2.384,2.384,2.384,2.384,2.384,2.384,2.384,2.384,2.384,2.384,2.384,2.384,2.384,2.384,2.384,2.384,2.384,2.368,2.3371,2.2889,2.2406,2.2084,2.1599,2.1438,2.1276,2.1276,2.1276,2.1276,2.1276,2.1276,2.1276,2.1276,2.1276,2.1276,2.1276,2.1276,2.0282,1.781,1.7638,1.5999,1.2388,1.3052,1.2388,1.0404,1.0237,0.9903,0.924,0.8905,0.8571,0.8399,0.8232,0.806,2.7073,2.7241,2.7616,2.81,2.7421,2.6143,2.4361,2.4496,2.4832,2.426,2.5662,2.6039,2.3092,2.3774,2.4022,2.1542,2.0822,2.0847,2.1341,2.1209,2.1245,2.1776,2.186,2.1969,2.2235,2.2259,2.2259,2.2259,2.2259,2.2259,2.2259,2.2259,2.2367,2.2609,2.2899,2.3164,2.3418,2.3707,2.384,2.384,2.384,2.384,2.384,2.384,2.384,2.384,2.384,2.384,2.384,2.384,2.384,2.384,2.384,2.384,2.384,2.384,2.384,2.384,2.384,2.384,2.384,2.384,2.384,2.384,2.384,2.384,2.384,2.384,2.384,2.384,2.384,2.384,2.384,2.384,2.384,2.384,2.384,2.384,2.368,2.3199,2.2889,2.2406,2.1922,2.1599,2.1276,2.1276,2.1276,2.1276,2.1276,2.1276,2.1276,2.1276,2.1276,2.1276,2.1276,2.1276,1.9795,1.6172,1.6008,1.4361,1.0904,1.2229,1.2395,1.0737,1.0404,1.007,1.007,0.924,0.8738,0.8738,0.8399,0.8064,2.7073,2.667,2.6661,2.7916,2.7421,2.6127,2.4361,2.4014,2.3839,2.2731,2.3865,2.4286,2.1709,2.2559,2.3133,2.1155,2.0979,2.0979,2.0822,2.0967,2.1185,2.1523,2.1752,2.1969,2.2235,2.2259,2.2259,2.2259,2.2259,2.2259,2.2259,2.2259,2.2283,2.2343,2.2802,2.3068,2.3128,2.3611,2.384,0.0,2.384,2.384,2.384,2.384,2.384,2.384,2.384,2.384,2.384,2.384,2.384,2.384,2.384,2.384,2.384,2.384,2.384,2.384,2.384,2.384,2.384,2.384,2.384,2.384,2.384,2.384,2.384,2.384,2.384,2.384,2.384,2.384,2.384,2.384,2.384,2.384,2.384,2.384,2.368,2.3199,2.2889,2.2406,2.1922,2.1599,2.1276,2.1276,2.1276,2.1276,2.1276,2.1276,2.1276,2.1276,2.1276,2.1276,2.1276,2.1276,1.9795,1.6172,1.6008,1.4361,1.0904,1.1065,1.107,1.0737,1.057,1.0404,1.007,0.9903,0.9407,0.8738,0.8571,0.8399,2.7297,2.7216,2.7111,2.7586,2.7553,2.6986,2.5479,2.493,2.4619,2.4149,2.5206,2.5011,2.1419,2.2846,2.4215,2.2448,2.1622,2.1484,2.216,2.1748,2.1579,2.2001,2.2174,2.241,2.2819,2.2856,2.2856,2.2856,2.2856,2.2856,2.2856,2.2856,2.2856,2.2856,2.3376,2.3661,2.3661,2.4207,2.4492,2.4492,2.4172,2.4012,2.384,2.384,2.384,2.384,2.384,2.384,2.384,2.384,2.384,2.384,2.384,2.384,2.384,2.384,2.384,2.384,2.384,2.384,2.384,2.384,2.384,2.384,2.384,2.384,2.384,2.384,2.384,2.384,2.384,2.384,2.384,2.384,2.384,2.384,2.384,2.384,2.368,2.352,2.3199,2.2728,2.2245,2.1761,2.1276,2.1276,2.1276,2.1276,2.1276,2.1276,2.1276,2.1276,2.1276,2.1276,2.1276,2.0444,1.8799,1.6172,1.5185,1.3542,1.0737,1.0737,1.0737,1.0737,1.0737,1.057,1.0404,1.0237,0.9908,0.9407,0.9072,0.8738,2.7418,2.785,2.8103,2.739,2.7814,2.806,2.6869,2.5907,2.5488,2.615,2.7033,2.6355,2.2028,2.3896,2.5695,2.4088,2.2696,2.2297,2.3638,2.2846,2.2254,2.2548,2.2624,2.2841,2.3387,2.3438,2.3438,2.3438,2.3438,2.3438,2.3438,2.3438,2.3438,2.3438,2.3934,2.4227,2.4278,2.4799,2.5079,2.513,2.4811,2.4332,2.4,2.4,2.384,2.384,2.384,2.384,2.384,2.384,2.384,2.384,2.384,2.384,2.384,2.384,2.384,2.384,2.384,2.384,2.384,2.384,2.384,2.384,2.384,2.384,2.384,2.384,2.384,2.384,2.384,2.384,2.384,2.384,2.384,2.384,2.384,2.384,2.384,2.384,2.3371,2.2889,2.2567,2.1761,2.1276,2.1276,2.1276,2.1276,2.1276,2.1276,2.1276,2.1276,2.1276,2.1276,2.1276,1.9622,1.7801,1.6172,1.4368,1.2554,1.0737,1.0737,1.0737,1.0737,1.0737,1.0737,1.0737,1.0404,1.0237,1.007,0.9741,0.924,2.7194,2.785,2.8467,2.7769,2.8331,2.8689,2.725,2.5548,2.4564,2.5839,2.6711,2.6424,2.3525,2.4937,2.5981,2.4181,2.406,2.406,2.391,2.3774,2.3336,2.2691,2.2624,2.2841,2.3387,2.3438,2.3438,2.3438,2.3438,2.3438,2.3438,2.3438,2.3438,2.3438,2.3744,2.4023,2.4278,2.4596,2.4875,2.513,2.497,2.497,2.497,2.4492,2.4172,2.384,2.384,2.384,2.384,2.384,2.384,2.384,2.384,2.384,2.384,2.384,2.384,2.384,2.384,2.384,2.384,2.384,2.384,2.384,2.384,2.384,2.384,2.384,2.384,2.384,2.384,2.384,2.384,2.384,2.384,2.384,2.384,2.384,2.384,2.384,2.3199,2.2567,2.2084,2.1599,2.1276,2.1276,2.1276,2.1276,2.1276,2.1276,2.1276,2.1276,2.1276,2.1276,2.1276,1.9622,1.7801,1.6172,1.4368,1.2554,1.0737,1.0737,1.0737,1.0737,1.0737,1.0737,1.0737,1.057,1.0404,1.007,1.007,0.9741,2.7833,2.8584,2.9252,2.9292,2.9247,2.9065,2.8654,2.7446,2.6779,2.7504,2.8184,2.7537,2.4043,2.5835,2.7254,2.592,2.4993,2.4723,2.5517,2.4317,2.3349,2.3274,2.334,2.3419,2.3979,2.4044,2.4044,2.4044,2.4044,2.4044,2.4044,2.4044,2.4044,2.4044,2.4318,2.4605,2.4892,2.5334,2.5466,2.5435,2.5435,2.5289,2.513,2.497,2.4652,2.4172,2.384,2.384,2.384,2.384,2.384,2.384,2.384,2.384,2.384,2.384,2.384,2.384,2.384,2.384,2.384,2.384,2.384,2.384,2.384,2.384,2.384,2.384,2.384,2.384,2.384,2.384,2.384,2.384,2.384,2.384,2.384,2.384,2.384,2.384,2.3211,2.2567,2.2406,2.1761,2.1276,2.1276,2.1276,2.1276,2.1276,2.1276,2.1276,2.1276,2.1276,2.1276,2.1276,1.8799,1.682,1.6008,1.3376,1.1564,1.0737,1.0737,1.0737,1.0737,1.0737,1.0737,1.0737,1.0737,1.057,1.0404,1.0404,1.0237,2.8622,2.9348,2.9992,3.0401,3.0102,2.969,2.9831,2.9026,2.8385,2.8874,2.9046,2.8184,2.5242,2.6841,2.8474,2.7768,2.6588,2.6069,2.6972,2.5263,2.3859,2.3735,2.3728,2.3968,2.4476,2.4596,2.4636,2.4636,2.4636,2.4636,2.4636,2.4636,2.4636,2.4636,2.485,2.5104,2.5398,2.5772,2.5949,2.5911,2.5911,2.5753,2.5448,2.5289,2.513,2.4811,2.4172,2.384,2.384,2.384,2.384,2.384,2.384,2.384,2.384,2.384,2.384,2.384,2.384,2.384,2.384,2.384,2.384,2.384,2.384,2.384,2.384,2.384,2.384,2.384,2.384,2.384,2.384,2.384,2.384,2.384,2.384,2.384,2.384,2.384,2.3211,2.2728,2.2567,2.1922,2.1438,2.1276,2.1276,2.1276,2.1276,2.1276,2.1276,2.1276,2.1276,2.1276,2.1276,1.7983,1.6008,1.6008,1.2714,1.0737,1.0737,1.0737,1.0737,1.0737,1.0737,1.0737,1.0737,1.0737,1.0737,1.0737,1.0737,1.057,2.9084,2.9744,3.0392,3.0771,3.0811,3.0662,3.0277,2.8835,2.794,2.881,2.8303,2.7689,2.7815,2.8332,2.8854,2.9083,2.9134,2.8592,2.7254,2.6972,2.6056,2.3579,2.3607,2.3888,2.4195,2.4476,2.4636,2.4636,2.4636,2.4636,2.4636,2.4636,2.4636,2.4636,2.4649,2.4796,2.5104,2.5678,2.6106,2.6386,2.6386,2.6386,2.6386,2.5911,2.5753,2.5753,2.4811,2.4172,2.384,2.384,2.384,2.384,2.384,2.384,2.384,2.384,2.384,2.384,2.384,2.384,2.384,2.384,2.384,2.384,2.384,2.384,2.384,2.384,2.384,2.384,2.384,2.384,2.384,2.384,2.384,2.384,2.384,2.384,2.384,2.384,2.352,2.305,2.2728,2.2245,2.1761,2.1438,2.1276,2.1276,2.1276,2.1276,2.1276,2.1276,2.1276,2.1276,2.1276,1.7983,1.6008,1.6008,1.2714,1.0737,1.0737,1.0737,1.0737,1.0737,1.0737,1.0737,1.0737,1.0737,1.0737,1.0737,1.0737,1.0737,2.9726,3.0247,3.0828,3.1083,3.0956,3.0754,3.0607,2.9668,2.9022,2.9276,2.9107,2.8939,2.935,2.9744,2.9882,2.9344,2.9265,2.9134,2.8592,2.6871,2.5517,2.4773,2.4131,2.3888,2.4168,2.4462,2.4636,2.4636,2.4636,2.4636,2.4636,2.4636,2.4636,2.4636,2.4636,2.4783,2.5077,2.5665,2.6012,2.6119,2.6306,2.6386,2.6386,2.6228,2.607,2.5753,2.5435,2.5117,2.4652,2.4332,2.4332,2.4172,2.3852,2.384,2.384,2.384,2.384,2.384,2.384,2.384,2.384,2.384,2.384,2.384,2.384,2.384,2.384,2.384,2.384,2.384,2.384,2.384,2.384,2.384,2.384,2.384,2.384,2.384,2.384,2.384,2.3532,2.305,2.2728,2.2245,2.1761,2.1438,2.1276,2.1276,2.1276,2.1276,2.1276,2.1276,2.1276,2.1276,2.1276,1.7983,1.6008,1.6008,1.2714,1.0737,1.0737,1.0737,1.0737,1.0737,1.0737,1.0737,1.0737,1.0737,1.0737,1.0737,1.0737,1.0737,3.0339,3.0701,3.112,3.1377,3.1176,3.0956,3.0827,3.0369,2.9947,2.98,2.9782,2.991,3.0332,3.0607,3.0665,3.0125,3.0065,2.9805,2.9395,2.727,2.5622,2.5301,2.4261,2.3741,2.4035,2.4315,2.4529,2.4623,2.4636,0.0,2.4636,2.4636,2.4636,2.4636,2.4636,2.4783,2.5077,2.5464,2.5705,2.5812,2.6106,2.6239,2.6253,2.6346,2.6228,2.607,2.607,2.5594,2.513,2.4652,2.4492,2.4492,2.4012,2.384,2.384,2.384,2.384,2.384,2.384,2.384,2.384,2.384,2.384,2.384,2.384,2.384,2.384,2.384,2.384,2.384,2.384,2.384,2.384,2.384,2.384,2.384,2.384,2.384,2.384,2.384,2.352,2.3211,2.2889,2.2406,2.1922,2.1599,2.1438,2.1276,2.1276,2.1351,2.1394,2.1394,2.1394,2.1394,2.1394,1.8083,1.6073,1.6008,1.2804,1.084,1.0802,1.084,1.0857,1.0857,1.0857,1.0857,1.0857,1.0775,1.0737,1.0737,1.0737,1.0737,0.0,0.0,0.0,3.1377,3.1377,3.1267,3.0901,3.0791,3.0681,3.0296,3.0222,3.0332,3.0717,3.0791,3.0937,3.1322,3.1377,3.0972,2.9526,2.8048,2.6722,2.5278,2.4094,2.3574,2.387,2.4165,2.4315,2.4596,2.4636,2.4636,2.4636,2.4636,2.4636,2.4636,2.4636,2.477,2.5064,2.5077,2.5224,2.5504,2.5798,2.5945,2.5959,2.6239,2.6373,2.6373,2.6373,2.5911,2.513,2.4652,2.4492,2.4492,2.4,2.384,2.384,2.384,2.384,2.384,2.384,2.384,2.384,2.384,2.384,2.384,2.384,2.384,2.384,2.384,2.384,2.384,2.384,2.384,2.384,2.384,2.384,2.384,2.384,2.384,2.384,2.384,2.384,2.368,2.3199,2.2889,2.2406,2.1922,2.1599,2.1276,2.1286,2.148,2.162,2.1631,2.162,2.162,2.1456,1.8274,1.6202,1.6024,1.2991,1.1052,1.0927,1.1036,1.1101,1.1101,1.1101,1.1101,1.1101,1.0862,1.0748,1.0748,1.0748,1.0748,3.1139,0.0,0.0,0.0,0.0,0.0,3.1231,3.0992,3.0754,3.0644,3.0626,3.0662,3.0772,3.1029,3.1249,3.1359,3.1377,3.1249,3.0843,2.9526,2.8592,2.8196,2.705,2.6085,2.5068,2.5427,2.5352,0.0,2.4516,2.4636,2.4636,2.4636,2.4636,2.4636,2.4636,2.4676,2.4756,2.497,2.5117,2.5197,2.5491,2.5638,2.5638,2.5718,2.5879,2.6079,2.6079,2.6042,2.607,2.5594,2.5276,2.4811,2.4492,2.4172,2.384,2.384,2.384,2.384,2.384,2.384,2.384,2.384,2.384,2.384,2.384,2.384,2.384,2.384,2.384,2.384,2.384,2.384,2.384,2.384,2.384,2.384,2.384,2.384,2.384,2.384,2.384,2.352,2.2889,2.2728,2.2406,2.1599,2.1438,2.134,2.1502,2.1577,2.1685,2.1868,2.1728,2.1116,1.9785,1.7609,1.6251,1.6369,1.3043,1.1767,1.3088,1.1767,1.1101,1.1101,1.1101,1.1101,1.1101,1.1036,1.1003,1.1003,1.1003,1.1003,3.1322,3.1377,3.1377,3.1377,0.0,0.0,3.1377,3.1194,3.1029,3.1029,3.1029,3.1029,3.1029,3.1231,3.1377,3.1377,3.1377,3.1377,3.1377,3.0195,2.9134,2.846,2.7328,2.6027,2.4663,2.4989,2.4911,2.4195,2.4476,2.4636,2.4636,2.4636,2.4636,2.4636,2.4636,2.4636,2.4636,2.481,2.489,2.4903,2.5184,2.5331,2.5331,2.5464,2.5611,2.5772,2.5772,2.5945,2.6213,2.6042,2.549,2.513,2.4652,2.4172,2.384,2.384,2.384,2.384,2.384,2.384,2.384,2.384,2.384,2.384,2.384,2.384,2.384,2.384,2.384,2.384,2.384,2.384,2.384,2.384,2.384,2.384,2.384,2.384,2.384,2.384,2.384,2.368,2.3211,2.2889,2.2406,2.1922,2.1599,2.1362,2.1588,2.1706,2.1868,2.2105,2.2008,2.1243,1.938,1.8193,1.7306,1.6549,1.3892,1.2947,1.3919,1.2259,1.1248,1.1248,1.1248,1.1248,1.1248,1.115,1.1101,1.1101,1.1101,1.1101,3.1377,3.1377,3.1377,3.1377,3.1377,0.0,3.1377,3.1377,3.1377,3.1377,3.1377,3.1377,3.1377,3.1377,3.1377,3.1377,3.1377,3.1377,3.1377,3.0325,2.9003,2.7519,2.6203,2.4989,2.3651,2.3823,2.3977,2.4128,2.4449,2.4636,2.4636,2.4636,2.4636,2.4636,2.4636,2.4636,2.4636,2.4636,2.4636,2.4636,2.4903,2.5037,2.5037,2.5304,2.5438,2.5464,2.5464,2.5638,2.5905,2.5945,2.5662,2.513,2.4652,2.4332,2.384,2.384,2.384,2.384,2.384,2.384,2.384,2.384,2.384,2.384,2.384,2.384,2.384,2.384,2.384,2.384,2.384,2.384,2.384,2.384,2.384,2.384,2.384,2.384,2.384,2.384,2.384,2.384,2.368,2.3211,2.2567,2.2567,2.1922,2.1362,2.1588,2.1836,2.2083,2.2309,2.2331,2.147,1.9742,1.9571,1.8803,1.6916,1.5322,1.438,1.4416,1.2626,1.1455,1.1455,1.1455,1.1455,1.1455,1.1243,1.1145,1.1145,1.1145,1.1134,0.0,0.0,0.0,0.0,0.0,0.0,3.1377,3.1377,3.1377,3.1377,3.1377,3.1377,3.1377,3.1377,3.1377,3.1377,3.1377,3.1377,3.1377,3.112,3.0455,2.9003,2.8608,2.7435,2.496,2.4991,2.4764,2.3977,2.4342,2.4636,2.4636,2.4636,2.4636,2.4636,2.4636,2.4636,2.4636,2.4636,2.4636,2.4636,2.469,2.4716,2.473,2.4783,2.4943,2.5157,2.5157,2.5331,2.5611,2.5852,2.5662,2.513,2.497,2.4492,2.384,2.384,2.384,2.384,2.384,2.384,2.384,2.384,2.384,2.384,2.384,2.384,2.384,2.384,2.384,2.384,2.384,2.384,2.384,2.384,2.384,2.384,2.384,2.384,2.384,2.384,2.384,2.368,2.3359,2.3199,2.2878,2.2084,2.1922,2.1687,2.1588,2.1836,2.2083,2.2309,2.2331,2.164,1.9733,1.9562,1.9372,1.9154,1.6079,1.4956,1.649,1.3375,1.1455,1.1455,1.1455,1.1455,1.1455,1.1411,1.1384,1.1384,1.1384,1.1335,0.0,0.0,0.0,3.1377,0.0,0.0,0.0,3.1377,3.1377,3.1377,3.1377,3.1377,3.1377,3.1377,3.1377,3.1377,3.1377,3.1451,3.1653,3.1506,3.0843,2.9526,2.9265,2.8196,2.5278,2.5301,2.5,2.4098,2.4262,2.4489,2.4623,2.4636,2.4636,2.4636,2.4636,2.4636,2.4636,2.4636,2.4636,2.4636,2.4636,2.4636,2.4636,2.4636,2.4716,2.4863,2.4863,2.5024,2.5304,2.5298,2.5153,2.5242,2.5079,2.4652,2.384,2.384,2.384,2.384,2.384,2.384,2.384,2.384,2.384,2.384,2.384,2.384,2.384,2.384,2.384,2.384,2.384,2.384,2.384,2.384,2.384,2.384,2.384,2.384,2.384,2.384,2.384,2.368,2.352,2.3371,2.305,2.2556,2.2234,2.1893,2.2091,2.2078,2.2116,2.2471,2.2514,2.1807,1.9885,2.0594,2.0766,1.9885,1.7197,1.6194,1.7071,1.3565,1.1455,1.1455,1.1455,1.1455,1.1455,1.1455,1.1455,1.1455,1.1389,1.133,0.0,0.0,0.0,0.0,0.0,3.1377,0.0,0.0,0.0,3.1377,3.1377,3.1377,3.1377,3.1377,3.1322,3.1176,3.1267,3.1469,3.1744,3.1543,3.0915,2.9733,2.9367,2.8362,2.5757,2.5799,2.549,2.4556,2.4616,2.4647,2.4543,2.4609,2.4636,2.4636,2.4636,2.4636,2.4636,2.4636,2.4636,2.4636,2.4636,2.4636,2.4636,2.4636,2.4636,2.4636,2.4636,2.477,2.4997,2.475,2.4888,2.5192,2.4914,2.4442,2.384,2.384,2.384,2.384,2.384,2.384,2.384,2.384,2.384,2.384,2.384,2.384,2.384,2.384,2.384,2.384,2.384,2.384,2.384,2.384,2.384,2.384,2.384,2.384,2.384,2.384,2.384,2.384,2.384,2.352,2.3371,2.3211,2.2602,2.2296,2.2533,2.2321,2.236,2.2579,2.2654,2.2157,2.0578,2.1801,2.1974,2.0047,1.8121,1.6896,1.6545,1.3211,1.1455,1.1455,1.1455,1.1455,1.1455,1.1433,1.1422,1.1417,1.1319,1.1248,0.0,0.0,0.0,0.0,3.1377,0.0,0.0,0.0,3.1377,3.1377,0.0,3.1377,3.1377,0.0,0.0,3.0442,3.0919,3.1267,3.0974,3.1194,3.1114,3.0476,2.9676,2.8858,2.7566,2.7642,2.72,2.5331,2.6113,2.5923,2.4262,2.4489,2.4636,2.4636,2.4636,2.4636,2.4636,2.4636,2.4636,2.4636,2.4636,2.4636,2.4636,2.4636,2.4636,2.4636,2.4636,2.4649,2.4703,2.497,2.4816,2.4466,2.4221,2.4269,2.4332,2.4012,2.384,2.384,2.384,2.384,2.384,2.384,2.384,2.384,2.384,2.384,2.384,2.384,2.384,2.384,2.384,2.384,2.384,2.384,2.384,2.384,2.384,2.384,2.384,2.384,2.384,2.384,2.384,2.368,2.368,2.3199,2.3399,2.3073,2.2475,2.2699,2.2818,2.2363,2.2557,2.2686,2.233,2.2514,2.1974,2.0047,1.8121,1.637,1.4618,1.2686,1.1455,1.1455,1.1455,1.1455,1.1455,1.1346,1.1291,1.1291,1.1281,1.1161,0.0,0.0,0.0,0.0,0.0,0.0,3.1377,0.0,3.1377,0.0,0.0,0.0,0.0,0.0,0.0,0.0,3.1157,3.1396,3.1488,3.1433,3.1338,3.1371,0.0,0.0,2.8677,2.7406,2.6588,2.6725,2.5639,2.5138,2.5468,2.4739,2.4462,2.4636,2.4636,2.4636,2.4636,2.4636,2.4636,2.4636,2.4636,2.4636,2.4636,2.4636,2.4636,2.4636,2.4636,2.4636,2.4649,2.4473,2.4468,2.4337,2.3807,2.386,2.411,2.3952,2.384,2.384,2.384,2.384,2.384,2.384,2.384,2.384,2.384,2.384,2.384,2.384,2.384,2.384,2.384,2.384,2.384,2.384,2.384,2.384,2.384,2.384,2.384,2.384,2.384,2.384,2.384,2.384,2.368,2.352,2.3584,2.3482,2.2973,2.2967,2.2895,2.2525,2.2622,2.2632,2.2492,2.2482,2.1615,1.9866,1.7015,1.4618,1.2686,1.1982,1.1455,1.1455,1.1455,1.1422,1.1346,1.1297,1.1199,1.1069,1.1069,1.1014,3.1377,0.0,0.0,0.0,0.0,0.0,0.0,0.0,0.0,0.0,0.0,0.0,0.0,0.0,3.1304,3.1084,0.0,3.1451,3.1653,3.1506,3.1579,3.2111,3.1891,0.0,0.0,2.8554,2.7731,2.8235,2.6707,2.5993,2.6602,2.5512,2.4856,2.5075,2.473,2.4636,2.4636,2.4636,2.4636,2.4636,2.4636,2.4636,2.4636,2.4636,2.4636,2.4636,2.4636,2.4636,2.4636,2.4341,2.4311,2.4357,2.3681,2.3538,2.384,2.3794,2.378,2.384,2.384,2.384,2.384,2.384,2.384,2.384,2.384,2.384,2.384,2.384,2.384,2.384,2.384,2.384,2.384,2.384,2.384,2.384,2.384,2.384,2.384,2.384,2.384,2.384,2.384,2.384,2.384,2.384,2.3746,2.3681,2.3453,2.337,2.3109,2.2826,2.2622,2.2514,2.2352,2.2331,2.1501,1.9647,1.63,1.3742,1.2337,1.2337,1.1982,1.1455,1.1455,1.1395,1.127,1.1243,1.1118,1.0922,1.0922,1.09,0.0,0.0,0.0,3.1377,0.0,0.0,0.0,0.0,3.1377,0.0,0.0,0.0,0.0,3.1377,3.1121,3.0369,3.0882,0.0,0.0,3.1139,3.1671,3.2478,3.257,3.2551,0.0,3.2801,3.2015,3.0015,3.0378,2.9793,2.7605,2.6668,2.6299,2.6314,2.5194,2.4636,2.4636,2.4636,2.4636,2.4636,2.4636,2.4636,2.4636,2.4636,2.4636,2.4636,2.4636,2.4636,2.4636,2.4636,2.4341,2.3935,2.3907,2.3719,2.3544,2.3514,2.3623,2.384,2.384,2.384,2.384,2.384,2.384,2.384,2.384,2.384,2.384,2.384,2.384,2.384,2.384,2.384,2.384,2.384,2.384,2.384,2.384,2.384,2.384,2.384,2.384,2.384,2.384,2.384,2.384,2.384,2.4069,2.4172,2.3939,2.3874,2.362,2.3354,2.2824,2.2342,2.2331,2.2331,2.1563,2.0028,1.6362,1.4265,1.4265,1.4265,1.3388,1.1455,1.1455,1.1395,1.127,1.1161,1.1041,1.0922,1.0922,1.0857,0.0,0.0,3.1377,3.1377,0.0,0.0,0.0,0.0,0.0,0.0,0.0,0.0,0.0,3.1377,3.1286,3.1029,3.1194,3.1322,0.0,3.1286,3.1579,3.2148,3.2203,3.2313,3.257,0.0,2.9952,2.9864,2.7336,2.6002,2.6177,2.6165,2.5797,2.4891,2.5777,2.5639,2.4636,2.4636,2.4636,2.4636,2.4636,2.4636,2.4636,2.4636,2.4636,2.4636,2.4636,2.4636,2.4636,2.4341,2.4044,2.36,2.3254,2.3265,2.3222,2.3345,2.3623,2.384,2.384,2.384,2.384,2.384,2.384,2.384,2.384,2.384,2.384,2.384,2.384,2.384,2.384,2.384,2.384,2.384,2.384,2.384,2.384,2.384,2.384,2.384,2.384,2.384,2.384,2.384,2.384,2.384,2.4069,2.4008,2.3619,2.3557,2.3258,2.2987,2.2471,2.2331,2.2331,2.1119,2.0285,1.9666,1.7355,1.5667,1.4265,1.4265,1.3388,1.1455,1.1373,1.1275,1.1161,1.1041,1.0916,1.0797,1.0797,1.0775,3.1561,3.1598,0.0,3.1598,3.1708,0.0,3.1634,0.0,0.0,0.0,0.0,0.0,0.0,0.0,3.1708,3.1433,3.1506,3.1543,0.0,3.1377,3.1543,3.1946,3.2129,3.2313,3.257,3.1059,3.0106,3.068,2.7526,2.5981,0.0,0.0,2.5639,2.4883,2.5576,2.5639,2.4636,2.4636,2.4636,2.4636,2.4636,2.4636,2.4636,2.4636,2.4636,2.4636,2.4636,2.4636,2.4636,2.4193,2.3748,2.3438,2.3005,2.2978,2.2935,2.3212,2.3538,2.384,2.384,2.384,2.384,2.384,2.384,2.384,2.384,2.384,2.384,2.384,2.384,2.384,2.384,2.384,2.384,2.384,2.384,2.384,2.384,2.384,2.384,2.384,2.384,2.384,2.384,2.384,2.384,2.384,2.4069,2.4008,2.3619,2.3476,2.3123,2.2856,2.2277,2.2116,2.2202,2.0557,1.9771,2.0544,1.9104,1.7247,1.5315,1.5315,1.4068,1.1566,1.1313,1.1194,1.1036,1.096,1.0857,1.0737,1.0737,1.0737]}]]